[[{"header":{"parameterUnit":"m.s-1","parameterCategory":1,"la1":30.6,"la2":28.766,"lo1":-90.7593,"lo2":-88.6598,"dy":0.0162,"dx":0.0183,"nx":116,"ny":114,"refTime":"2023-09-11T18:00:00:Z","depth":0,"parameterNumber":2,"parameterNumberName":"U-component_of_WINDS"},"data":[0.0,0.0,0.0,0.0,0.0,0.0,0.0,0.0,0.0,0.0,0.0,0.0,0.0,0.0,0.0,0.0,0.0,0.0,0.0,0.0,0.0,0.0,0.0,0.0,0.0,0.0,0.0,0.0,0.0,0.0,0.0,0.0,0.0,0.0,0.0,0.0,0.0,0.0,0.0,0.0,0.0,0.0,0.0,0.0,0.0,0.0,0.0,0.0,0.0,0.0,0.0,0.0,0.0,0.0,0.0,0.0,0.0,0.0,0.0,0.0,0.0,0.0,0.0,0.0,0.0,0.0,0.0,0.0,0.0,0.0,0.0,0.0,0.0,0.0,0.0,0.0,0.0,0.0,0.0,0.0,0.0,0.0,0.0,0.0,0.0,0.0,0.0,0.0,0.0,0.0,0.0,0.0,0.0,0.0,0.0,0.0,0.0,0.0,0.0,0.0,0.0,0.0,0.0,0.0,0.0,0.0,0.0,0.0,0.0,0.0,0.0,0.0,0.0,0.0,0.0,0.0,0.0,0.0,0.0,0.0,0.0,0.0,0.0,0.0,0.0,0.0,0.0,0.0,0.0,0.0,0.0,0.0,0.0,0.0,0.0,0.0,0.0,0.0,0.0,0.0,0.0,0.0,0.0,0.0,0.0,0.0,0.0,0.0,0.0,0.0,0.0,0.0,0.0,0.0,0.0,0.0,0.0,0.0,0.0,0.0,0.0,0.0,0.0,0.0,0.0,0.0,0.0,0.0,0.0,0.0,0.0,0.0,0.0,0.0,0.0,0.0,0.0,0.0,0.0,0.0,0.0,0.0,0.0,0.0,0.0,0.0,0.0,0.0,0.0,0.0,0.0,0.0,0.0,0.0,0.0,0.0,0.0,0.0,0.0,0.0,0.0,0.0,0.0,0.0,0.0,0.0,0.0,0.0,0.0,0.0,0.0,0.0,0.0,0.0,0.0,0.0,0.0,0.0,0.0,0.0,0.0,0.0,0.0,0.0,0.0,0.0,0.0,0.0,0.0,0.0,0.0,0.0,0.0,0.0,0.0,0.0,0.0,0.0,0.0,0.0,0.0,0.0,0.0,0.0,0.0,0.0,0.0,0.0,0.0,0.0,0.0,0.0,0.0,0.0,0.0,0.0,0.0,0.0,0.0,0.0,0.0,0.0,0.0,0.0,0.0,0.0,0.0,0.0,0.0,0.0,0.0,0.0,0.0,0.0,0.0,0.0,0.0,0.0,0.0,0.0,0.0,0.0,0.0,0.0,0.0,0.0,0.0,0.0,0.0,0.0,0.0,0.0,0.0,0.0,0.0,0.0,0.0,0.0,0.0,0.0,0.0,0.0,0.0,0.0,0.0,0.0,0.0,0.0,0.0,0.0,0.0,0.0,0.0,0.0,0.0,0.0,0.0,0.0,0.0,0.0,0.0,0.0,0.0,0.0,0.0,0.0,0.0,0.0,0.0,0.0,0.0,0.0,0.0,0.0,0.0,0.0,0.0,0.0,0.0,0.0,0.0,0.0,0.0,0.0,0.0,0.0,0.0,0.0,0.0,0.0,0.0,0.0,0.0,0.0,0.0,0.0,0.0,0.0,0.0,0.0,0.0,0.0,0.0,0.0,0.0,0.0,0.0,0.0,0.0,0.0,0.0,0.0,0.0,0.0,0.0,0.0,0.0,0.0,0.0,0.0,0.0,0.0,0.0,0.0,0.0,0.0,0.0,0.0,0.0,0.0,0.0,0.0,0.0,0.0,0.0,0.0,0.0,0.0,0.0,0.0,0.0,0.0,0.0,0.0,0.0,0.0,0.0,0.0,0.0,0.0,0.0,0.0,0.0,0.0,0.0,0.0,0.0,0.0,0.0,0.0,0.0,0.0,0.0,0.0,0.0,0.0,0.0,0.0,0.0,0.0,0.0,0.0,0.0,0.0,0.0,0.0,0.0,0.0,0.0,0.0,0.0,0.0,0.0,0.0,0.0,0.0,0.0,0.0,0.0,0.0,0.0,0.0,0.0,0.0,0.0,0.0,0.0,0.0,0.0,0.0,0.0,0.0,0.0,0.0,0.0,0.0,0.0,0.0,0.0,0.0,0.0,0.0,0.0,0.0,0.0,0.0,0.0,0.0,0.0,0.0,0.0,0.0,0.0,0.0,0.0,0.0,0.0,0.0,0.0,0.0,0.0,0.0,0.0,0.0,0.0,0.0,0.0,0.0,0.0,0.0,0.0,0.0,0.0,0.0,0.0,0.0,0.0,0.0,0.0,0.0,0.0,0.0,0.0,0.0,0.0,0.0,0.0,0.0,0.0,0.0,0.0,0.0,0.0,0.0,0.0,0.0,0.0,0.0,0.0,0.0,0.0,0.0,0.0,0.0,0.0,0.0,0.0,0.0,0.0,0.0,0.0,0.0,0.0,0.0,0.0,0.0,0.0,0.0,0.0,0.0,0.0,0.0,0.0,0.0,0.0,0.0,0.0,0.0,0.0,0.0,0.0,0.0,0.0,0.0,0.0,0.0,0.0,0.0,0.0,0.0,0.0,0.0,0.0,0.0,0.0,0.0,0.0,0.0,0.0,0.0,0.0,0.0,0.0,0.0,0.0,0.0,0.0,0.0,0.0,0.0,0.0,0.0,0.0,0.0,0.0,0.0,0.0,0.0,0.0,0.0,0.0,0.0,0.0,0.0,0.0,0.0,0.0,0.0,0.0,0.0,0.0,0.0,0.0,0.0,0.0,0.0,0.0,0.0,0.0,0.0,0.0,0.0,0.0,0.0,0.0,0.0,0.0,0.0,0.0,0.0,0.0,0.0,0.0,0.0,0.0,0.0,0.0,0.0,0.0,0.0,0.0,0.0,0.0,0.0,0.0,0.0,0.0,0.0,0.0,0.0,0.0,0.0,0.0,0.0,0.0,0.0,0.0,0.0,0.0,0.0,0.0,0.0,0.0,0.0,0.0,0.0,0.0,0.0,0.0,0.0,0.0,0.0,0.0,0.0,0.0,0.0,0.0,0.0,0.0,0.0,0.0,0.0,0.0,0.0,0.0,0.0,0.0,0.0,0.0,0.0,0.0,0.0,0.0,0.0,0.0,0.0,0.0,0.0,0.0,0.0,0.0,0.0,0.0,0.0,0.0,0.0,0.0,0.0,0.0,0.0,0.0,0.0,0.0,0.0,0.0,0.0,0.0,0.0,0.0,0.0,0.0,0.0,0.0,0.0,0.0,0.0,0.0,0.0,0.0,0.0,0.0,0.0,0.0,0.0,0.0,0.0,0.0,0.0,0.0,0.0,0.0,0.0,0.0,0.0,0.0,0.0,0.0,0.0,0.0,0.0,0.0,0.0,0.0,0.0,0.0,0.0,0.0,0.0,0.0,0.0,0.0,0.0,0.0,0.0,0.0,0.0,0.0,0.0,0.0,0.0,0.0,0.0,0.0,0.0,0.0,0.0,0.0,0.0,0.0,0.0,0.0,0.0,0.0,0.0,0.0,0.0,0.0,0.0,0.0,0.0,0.0,0.0,0.0,0.0,0.0,0.0,0.0,0.0,0.0,0.0,0.0,0.0,0.0,0.0,0.0,0.0,0.0,0.0,0.0,0.0,0.0,0.0,0.0,0.0,0.0,0.0,0.0,0.0,0.0,0.0,0.0,0.0,0.0,0.0,0.0,0.0,0.0,0.0,0.0,0.0,0.0,0.0,0.0,0.0,0.0,0.0,0.0,0.0,0.0,0.0,0.0,0.0,0.0,0.0,0.0,0.0,0.0,0.0,0.0,0.0,0.0,0.0,0.0,0.0,0.0,0.0,0.0,0.0,0.0,0.0,0.0,0.0,0.0,0.0,0.0,0.0,0.0,0.0,0.0,0.0,0.0,0.0,0.0,0.0,0.0,0.0,0.0,0.0,0.0,0.0,0.0,0.0,0.0,0.0,0.0,0.0,0.0,0.0,0.0,0.0,0.0,0.0,0.0,0.0,0.0,0.0,0.0,0.0,0.0,0.0,0.0,0.0,0.0,0.0,0.0,0.0,0.0,0.0,0.0,0.0,0.0,0.0,0.0,0.0,0.0,0.0,0.0,0.0,0.0,0.0,0.0,0.0,0.0,0.0,0.0,0.0,0.0,0.0,0.0,0.0,0.0,0.0,0.0,0.0,0.0,0.0,0.0,0.0,0.0,0.0,0.0,0.0,0.0,0.0,0.0,0.0,0.0,0.0,0.0,0.0,0.0,0.0,0.0,0.0,0.0,0.0,0.0,0.0,0.0,0.0,0.0,0.0,0.0,0.0,0.0,0.0,0.0,0.0,0.0,0.0,0.0,0.0,0.0,0.0,0.0,0.0,0.0,0.0,0.0,0.0,0.0,0.0,0.0,0.0,0.0,0.0,0.0,0.0,0.0,0.0,0.0,0.0,0.0,0.0,0.0,0.0,0.0,0.0,0.0,0.0,0.0,0.0,0.0,0.0,0.0,0.0,0.0,0.0,0.0,0.0,0.0,0.0,0.0,0.0,0.0,0.0,0.0,0.0,0.0,0.0,0.0,0.0,0.0,0.0,0.0,0.0,0.0,0.0,0.0,0.0,0.0,0.0,0.0,0.0,0.0,0.0,0.0,0.0,0.0,0.0,0.0,0.0,0.0,0.0,0.0,0.0,0.0,0.0,0.0,0.0,0.0,0.0,0.0,0.0,0.0,0.0,0.0,0.0,0.0,0.0,0.0,0.0,0.0,0.0,0.0,0.0,0.0,0.0,0.0,0.0,0.0,0.0,0.0,0.0,0.0,0.0,0.0,0.0,0.0,0.0,0.0,0.0,0.0,0.0,0.0,0.0,0.0,0.0,0.0,0.0,0.0,0.0,0.0,0.0,0.0,0.0,0.0,0.0,0.0,0.0,0.0,0.0,0.0,0.0,0.0,0.0,0.0,0.0,0.0,0.0,0.0,0.0,0.0,0.0,0.0,0.0,0.0,0.0,0.0,0.0,0.0,0.0,0.0,0.0,0.0,0.0,0.0,0.0,0.0,0.0,0.0,0.0,0.0,0.0,0.0,0.0,0.0,0.0,0.0,0.0,0.0,0.0,0.0,0.0,0.0,0.0,0.0,0.0,0.0,0.0,0.0,0.0,0.0,0.0,0.0,0.0,0.0,0.0,0.0,0.0,0.0,0.0,0.0,0.0,0.0,0.0,0.0,0.0,0.0,0.0,0.0,0.0,0.0,0.0,0.0,0.0,0.0,0.0,0.0,0.0,0.0,0.0,0.0,0.0,0.0,0.0,0.0,0.0,0.0,0.0,0.0,0.0,0.0,0.0,0.0,0.0,0.0,0.0,0.0,0.0,0.0,0.0,0.0,0.0,0.0,0.0,0.0,0.0,0.0,0.0,0.0,0.0,0.0,0.0,0.0,0.0,0.0,0.0,0.0,0.0,0.0,0.0,0.0,0.0,0.0,0.0,0.0,0.0,0.0,0.0,0.0,0.0,0.0,0.0,0.0,0.0,0.0,0.0,0.0,0.0,0.0,0.0,0.0,0.0,0.0,0.0,0.0,0.0,0.0,0.0,0.0,0.0,0.0,0.0,0.0,0.0,0.0,0.0,0.0,0.0,0.0,0.0,0.0,0.0,0.0,0.0,0.0,0.0,0.0,0.0,0.0,0.0,0.0,0.0,0.0,0.0,0.0,0.0,0.0,0.0,0.0,0.0,0.0,0.0,0.0,0.0,0.0,0.0,0.0,0.0,0.0,0.0,0.0,0.0,0.0,0.0,0.0,0.0,0.0,0.0,0.0,0.0,0.0,0.0,0.0,0.0,0.0,0.0,0.0,0.0,0.0,0.0,0.0,0.0,0.0,0.0,0.0,0.0,0.0,0.0,0.0,0.0,0.0,0.0,0.0,0.0,0.0,0.0,0.0,0.0,0.0,0.0,0.0,0.0,0.0,0.0,0.0,0.0,0.0,0.0,0.0,0.0,0.0,0.0,0.0,0.0,0.0,0.0,0.0,0.0,0.0,0.0,0.0,0.0,0.0,0.0,0.0,0.0,0.0,0.0,0.0,0.0,0.0,0.0,0.0,0.0,0.0,0.0,0.0,0.0,0.0,0.0,0.0,0.0,0.0,0.0,0.0,0.0,0.0,0.0,-2.0936,0.0,0.0,0.0,0.0,0.0,0.0,0.0,0.0,0.0,0.0,0.0,0.0,0.0,0.0,0.0,0.0,0.0,0.0,0.0,0.0,0.0,0.0,0.0,0.0,0.0,0.0,0.0,0.0,0.0,0.0,0.0,0.0,0.0,0.0,0.0,0.0,0.0,0.0,0.0,-2.0325,-2.0181,-2.0691,-2.2492,-2.3205,-2.297,0.0,0.0,0.0,0.0,0.0,0.0,0.0,0.0,0.0,0.0,0.0,0.0,0.0,0.0,0.0,0.0,0.0,0.0,0.0,0.0,0.0,0.0,0.0,0.0,0.0,0.0,0.0,0.0,0.0,0.0,0.0,0.0,0.0,0.0,0.0,0.0,0.0,0.0,0.0,0.0,0.0,0.0,0.0,0.0,0.0,0.0,0.0,0.0,0.0,0.0,0.0,0.0,0.0,0.0,0.0,0.0,0.0,0.0,0.0,0.0,0.0,0.0,0.0,0.0,0.0,0.0,0.0,0.0,0.0,0.0,0.0,-2.2455,0.0,0.0,0.0,0.0,0.0,0.0,0.0,0.0,0.0,0.0,0.0,0.0,0.0,0.0,0.0,0.0,0.0,0.0,0.0,0.0,0.0,0.0,0.0,0.0,-1.6523,-1.7931,-1.8115,-1.8525,0.0,0.0,0.0,0.0,0.0,0.0,0.0,0.0,0.0,-2.1264,-1.9942,-2.0281,-2.2202,-2.3914,-2.4509,-2.42,-2.5444,0.0,0.0,0.0,0.0,0.0,0.0,0.0,0.0,0.0,0.0,0.0,0.0,0.0,0.0,0.0,0.0,0.0,0.0,0.0,0.0,0.0,0.0,0.0,0.0,0.0,0.0,0.0,0.0,0.0,0.0,0.0,0.0,0.0,0.0,0.0,0.0,0.0,0.0,0.0,0.0,0.0,0.0,0.0,0.0,0.0,0.0,0.0,0.0,0.0,0.0,0.0,0.0,0.0,0.0,0.0,0.0,0.0,0.0,0.0,0.0,0.0,0.0,0.0,-2.7677,-2.7822,-2.6959,-2.8483,-2.7566,-2.4773,-2.4829,-2.4228,-2.33,-2.453,0.0,0.0,0.0,0.0,0.0,0.0,0.0,0.0,0.0,0.0,0.0,0.0,0.0,0.0,0.0,0.0,0.0,0.0,0.0,0.0,0.0,-1.6203,-1.716,-1.8565,-1.823,-1.8554,0.0,0.0,0.0,0.0,0.0,0.0,0.0,-2.0585,-2.0661,-1.9537,-1.9384,-2.0488,-2.2813,-2.4164,-2.5476,-2.6663,-2.5677,-2.5596,-2.6158,0.0,0.0,0.0,0.0,0.0,0.0,0.0,0.0,0.0,0.0,0.0,0.0,0.0,0.0,0.0,0.0,0.0,0.0,0.0,0.0,0.0,0.0,0.0,0.0,0.0,0.0,0.0,0.0,0.0,0.0,0.0,0.0,0.0,0.0,0.0,0.0,0.0,0.0,0.0,0.0,0.0,-2.2934,-2.3676,0.0,0.0,0.0,0.0,0.0,0.0,0.0,0.0,0.0,0.0,0.0,0.0,0.0,-2.7383,-2.9476,-2.8858,-2.8939,-2.9748,-2.9971,-2.9248,-2.7771,-2.8695,-2.8483,-2.74,-2.7411,0.0,-2.3918,-2.3447,0.0,0.0,0.0,0.0,0.0,0.0,0.0,0.0,0.0,0.0,0.0,0.0,0.0,0.0,0.0,0.0,0.0,0.0,0.0,0.0,0.0,-1.7076,-1.8128,-1.9062,-1.9709,-2.0267,-2.0673,-2.0526,0.0,0.0,0.0,-1.9865,-1.9959,-2.0122,-1.9895,-1.9251,-2.1551,-2.2831,-2.3171,-2.5206,-2.6858,-2.8065,-2.709,-2.707,-2.7604,-2.5886,0.0,0.0,0.0,0.0,0.0,0.0,0.0,0.0,0.0,0.0,0.0,0.0,0.0,0.0,0.0,0.0,0.0,0.0,0.0,0.0,0.0,0.0,0.0,0.0,0.0,0.0,0.0,0.0,0.0,0.0,0.0,0.0,0.0,0.0,0.0,0.0,0.0,0.0,0.0,-2.4621,-2.5508,-2.4903,-2.6052,-2.6902,0.0,0.0,0.0,0.0,0.0,0.0,0.0,0.0,0.0,-2.8811,-2.9273,-2.9811,-3.0444,-3.0067,-3.0323,-3.1183,-3.1154,-3.0769,-3.0124,-3.0879,-3.0525,-2.9333,-2.9813,-2.8844,-2.6858,-2.6041,-2.5801,-2.5952,0.0,0.0,0.0,0.0,-2.4364,-2.4231,0.0,0.0,0.0,0.0,0.0,0.0,0.0,0.0,0.0,0.0,0.0,0.0,-1.655,-1.7675,-1.8802,-1.9875,-2.0866,-2.1426,-2.1386,-2.1162,0.0,0.0,0.0,-2.0373,-2.0757,-1.9955,-1.9963,-2.0846,-2.3445,-2.4663,-2.4572,-2.682,-2.8556,-2.9751,-2.937,-2.9217,-2.9091,-2.6528,-2.6017,-2.6774,0.0,0.0,0.0,0.0,0.0,0.0,0.0,0.0,0.0,0.0,0.0,0.0,0.0,0.0,0.0,0.0,0.0,0.0,0.0,0.0,0.0,0.0,0.0,0.0,0.0,0.0,0.0,0.0,0.0,0.0,0.0,0.0,0.0,0.0,0.0,0.0,0.0,-2.6302,-2.7157,-2.5851,-2.7245,-2.8233,0.0,0.0,0.0,0.0,0.0,0.0,-2.9226,-3.0487,-3.1163,-3.1177,-3.1953,-3.2183,-3.173,-3.1492,-3.1728,-3.2434,-3.2397,-3.2176,-3.1833,-3.2803,-3.2222,-3.0462,-3.1545,-3.1141,-2.9665,-2.8422,-2.7296,-2.6413,-2.6909,-2.7,-2.6784,-2.6332,-2.6034,-2.5789,0.0,0.0,0.0,0.0,0.0,0.0,0.0,0.0,0.0,0.0,0.0,-1.5128,-1.7126,-1.7594,-1.8765,-2.1269,-2.086,-2.0952,-2.2068,-2.1125,-2.0913,-2.1785,-2.2346,-2.2337,-2.1735,-2.0878,-2.1934,-2.501,-2.3739,-2.4737,-2.7895,-2.9096,-3.0647,-3.2417,-3.257,-3.1757,-3.0056,-2.7512,-2.6935,-2.7673,-2.6819,0.0,0.0,0.0,0.0,0.0,0.0,0.0,0.0,0.0,0.0,0.0,0.0,0.0,0.0,0.0,0.0,0.0,0.0,0.0,0.0,0.0,0.0,0.0,0.0,0.0,0.0,0.0,0.0,0.0,0.0,0.0,0.0,0.0,0.0,0.0,0.0,0.0,0.0,-2.6544,-2.8076,0.0,0.0,0.0,0.0,-3.142,-3.1554,-3.1893,-3.2702,-3.289,-3.2973,-3.2975,-3.3804,-3.4609,-3.5335,-3.4447,-3.4056,-3.4163,-3.4173,-3.335,-3.1857,-3.3481,-3.2824,-3.05,-3.2141,-3.2352,-3.1371,-2.8915,-2.8343,-2.8938,-2.8214,-2.8955,-3.0238,-2.8573,-2.7483,-2.6582,0.0,0.0,0.0,0.0,0.0,0.0,0.0,0.0,-1.5037,-1.5105,-1.6075,-1.7089,-1.801,-1.9482,-2.0813,-2.1831,-2.1896,-2.2032,-2.2367,-2.1499,-2.1207,-2.174,-2.1477,-2.145,-2.1731,-2.1934,-2.2887,-2.4592,-2.5217,-2.6496,-2.8402,-3.0016,-3.1493,-3.2805,-3.2865,-3.2859,-3.2647,-3.0092,-2.8914,-2.8659,-2.7287,-2.6907,0.0,0.0,0.0,0.0,0.0,0.0,0.0,0.0,0.0,0.0,0.0,0.0,0.0,0.0,0.0,0.0,0.0,0.0,0.0,0.0,0.0,0.0,0.0,0.0,0.0,0.0,0.0,0.0,0.0,0.0,0.0,0.0,0.0,0.0,0.0,0.0,0.0,-3.0656,-3.2217,0.0,-3.213,-3.1769,-3.1854,-3.253,-3.3055,-3.3718,-3.4558,-3.5195,-3.58,-3.6353,-3.6731,-3.6783,-3.6503,-3.617,-3.5739,-3.5209,-3.5209,-3.4861,-3.426,-3.4855,-3.4298,-3.291,-3.4064,-3.3819,-3.2575,-3.2183,-3.1241,-2.9977,-2.9255,-2.903,-2.9021,-2.8381,-2.7971,-2.7558,0.0,0.0,0.0,0.0,0.0,0.0,0.0,0.0,-1.492,-1.4756,-1.6198,-1.7507,-1.8127,-2.0114,-2.1679,-2.2408,-2.244,-2.2424,-2.2504,-2.179,-2.1588,-2.2072,-2.1852,-2.209,-2.2896,-2.3454,-2.4337,-2.5522,-2.7,-2.8322,-2.9485,-3.1291,-3.2575,-3.3353,-3.3641,-3.4103,-3.4588,-3.318,-3.1642,-2.9994,-2.8284,-2.8318,-2.9075,0.0,0.0,0.0,0.0,0.0,0.0,0.0,0.0,0.0,0.0,0.0,0.0,0.0,0.0,0.0,0.0,0.0,0.0,0.0,0.0,0.0,0.0,0.0,0.0,0.0,0.0,0.0,0.0,0.0,0.0,0.0,0.0,0.0,0.0,0.0,-3.2877,-3.3731,-3.5052,-3.5597,-3.477,-3.4392,-3.4321,-3.4655,-3.5219,-3.5919,-3.6775,-3.7468,-3.8101,-3.8684,-3.902,-3.8798,-3.7918,-3.7598,-3.7031,-3.6195,-3.5903,-3.5584,-3.5271,-3.5521,-3.4972,-3.3882,-3.5008,-3.4737,-3.3577,-3.4423,-3.3468,-3.1372,-3.0616,-2.9992,-2.9502,-2.9161,-2.8863,-2.8469,0.0,0.0,0.0,0.0,0.0,0.0,0.0,-1.4981,-1.455,-1.3551,-1.4779,-1.6214,-1.7503,-1.9352,-2.1231,-2.3064,-2.231,-2.1972,-2.2483,-2.1962,-2.2008,-2.2859,-2.3673,-2.4488,-2.5322,-2.5373,-2.6306,-2.8184,-2.9016,-3.0075,-3.1375,-3.3035,-3.3963,-3.427,-3.5155,-3.5604,-3.5737,-3.6585,-3.502,-3.1846,-3.0076,-3.0408,-3.1581,0.0,0.0,0.0,0.0,0.0,0.0,0.0,0.0,0.0,0.0,0.0,0.0,0.0,0.0,0.0,0.0,0.0,0.0,0.0,0.0,0.0,0.0,0.0,0.0,0.0,0.0,0.0,0.0,0.0,0.0,0.0,0.0,0.0,-3.0404,-3.2699,-3.4603,-3.55,-3.6327,-3.65,-3.5692,-3.6346,-3.7161,-3.7988,-3.8208,-3.8667,-3.9437,-3.9701,-3.9811,-3.9772,-4.061,-4.061,-3.9715,-3.8798,-3.7954,-3.7193,-3.6354,-3.5477,-3.4659,-3.5377,-3.4789,-3.3267,-3.4827,-3.5077,-3.4415,-3.5321,-3.4776,-3.3241,-3.2318,-3.2033,-3.2031,-3.1079,-3.0189,-2.9212,0.0,0.0,0.0,0.0,0.0,0.0,0.0,-1.4981,-1.4708,-1.4121,-1.6556,-1.8422,-1.8606,-2.1122,-2.3099,-2.3862,-2.1878,-2.1197,-2.2691,-2.1004,-2.0837,-2.2822,-2.3673,-2.4772,-2.6206,-2.5695,-2.688,-2.9909,-2.9757,-3.057,-3.2275,-3.3558,-3.4544,-3.527,-3.6178,-3.6953,-3.7572,-3.7806,-3.7397,-3.6375,-3.4057,-3.3059,-3.267,0.0,0.0,0.0,0.0,0.0,0.0,0.0,0.0,0.0,0.0,0.0,0.0,0.0,0.0,0.0,0.0,0.0,0.0,0.0,0.0,0.0,0.0,0.0,0.0,0.0,0.0,0.0,0.0,0.0,0.0,0.0,0.0,-3.2878,-3.3122,-3.4795,-3.6565,-3.8084,-3.8969,-3.9142,-3.8334,-3.8969,-3.9315,-3.8969,-4.0198,-4.105,-4.1263,-4.2078,-4.2249,-4.1605,-4.1865,-4.1325,-3.9861,-3.9583,-3.8694,-3.7193,-3.7003,-3.6387,-3.5413,-3.5714,-3.5535,-3.501,-3.546,-3.5562,-3.5488,-3.5739,-3.5246,-3.4235,-3.3333,-3.2282,-3.1211,-3.0956,-2.992,-2.8553,0.0,0.0,0.0,0.0,0.0,0.0,0.0,-1.5297,-1.4962,-1.3644,-1.6927,-1.9073,-1.8216,-2.0989,-2.2838,-2.2667,-2.1516,-2.0988,-2.1367,-2.1029,-2.1587,-2.3334,-2.4496,-2.5935,-2.7724,-2.7641,-2.8845,-3.1431,-3.1459,-3.2087,-3.3293,-3.4353,-3.5311,-3.6164,-3.6744,-3.7702,-3.8887,-3.8887,-3.9154,-3.9403,-3.7566,-3.6508,-3.5636,-3.184,-3.107,-3.1677,-2.9153,-2.8376,-2.8272,-2.6428,0.0,0.0,0.0,0.0,0.0,0.0,0.0,0.0,0.0,0.0,0.0,0.0,0.0,0.0,0.0,0.0,0.0,0.0,0.0,0.0,0.0,0.0,0.0,0.0,-3.4991,-3.6626,-3.7359,-3.799,-3.902,-4.0815,-4.1105,-4.0978,-4.048,-4.0887,-4.0958,-4.048,-4.1814,-4.2676,-4.2676,-4.329,-4.3405,-4.2898,-4.2928,-4.248,-4.1504,-4.0801,-3.9921,-3.8875,-3.8163,-3.7338,-3.6362,-3.6426,-3.6198,-3.5772,-3.572,-3.5789,-3.5862,-3.5511,-3.4889,0.0,0.0,0.0,0.0,0.0,-2.9744,-2.8301,0.0,0.0,0.0,0.0,0.0,0.0,0.0,-1.5646,-1.5167,-1.2635,-1.6287,-1.8458,-1.6702,-1.9418,-2.1143,-2.0548,-2.096,-2.0729,-1.951,-2.1605,-2.3297,-2.4213,-2.5787,-2.7556,-2.9491,-3.0228,-3.1346,-3.2878,-3.3497,-3.3994,-3.4372,-3.5322,-3.6232,-3.7075,-3.7244,-3.8273,-3.9876,-3.9876,-4.0381,-4.1133,-4.0351,-3.9916,-3.9199,-3.4289,-3.3744,-3.5195,-3.1895,-3.0241,-2.9489,-2.8606,0.0,0.0,0.0,0.0,0.0,0.0,0.0,0.0,0.0,0.0,0.0,0.0,0.0,0.0,0.0,0.0,0.0,0.0,0.0,0.0,0.0,0.0,0.0,0.0,-3.8695,-4.0303,-4.2089,-4.1653,-4.1738,-4.3222,-4.2623,-4.2114,-4.2156,-4.2111,-4.211,-4.215,-4.3133,-4.3751,-4.3751,0.0,0.0,0.0,0.0,-4.3808,-4.3691,-4.2226,-4.1387,-4.1172,-3.9629,-3.8398,-3.7441,-3.7389,-3.6946,-3.6181,-3.5977,-3.5946,-3.5988,-3.5128,-3.4345,-3.373,-3.4052,-3.3313,-3.1953,-3.1042,-2.9758,-2.8418,0.0,0.0,0.0,0.0,0.0,0.0,0.0,-1.5171,-1.4526,-1.2562,-1.5305,-1.6571,-1.4259,-1.6885,-1.9263,-2.0401,-1.8871,-1.8551,-2.0169,-2.1926,-2.3545,-2.5,-2.6654,-2.8436,-3.0329,-3.0516,-3.1929,-3.4609,-3.4061,-3.4316,-3.5342,-3.6295,-3.7225,-3.8142,-3.897,-3.9919,-4.0917,-4.0917,-4.1015,-4.1191,-4.1016,-4.0508,-3.9587,-3.71,-3.5994,-3.5488,-3.3337,-3.2444,-3.2047,-3.0597,-3.0019,-2.9751,-2.8794,0.0,0.0,0.0,0.0,0.0,0.0,0.0,0.0,0.0,0.0,0.0,0.0,0.0,0.0,0.0,0.0,0.0,0.0,0.0,0.0,-3.9553,-4.084,-4.2165,-4.4075,-4.4189,-4.3919,-4.3452,-4.2623,-4.2377,-4.3065,-4.2513,-4.2397,-4.3084,-4.4064,-4.4651,-4.4651,-4.5386,-4.5469,-4.4766,-4.4746,-4.4414,-4.3711,-4.3379,-4.2539,-4.1191,0.0,0.0,-3.8359,-3.8339,-3.8241,-3.8045,-3.7301,-3.7008,-3.6952,-3.6092,-3.5644,-3.5234,-3.2636,-3.1425,-3.1133,-3.0937,-3.0214,-2.9258,0.0,0.0,0.0,0.0,0.0,0.0,0.0,-1.54,-1.5154,-1.3737,-1.5966,-1.7207,-1.5889,-1.755,-1.8901,-1.9263,-1.7825,-1.8104,-2.0929,-2.2264,-2.3675,-2.5289,-2.7448,-2.9473,-3.1363,-3.193,-3.3226,-3.5297,-3.4896,-3.5013,-3.5616,-3.6628,-3.7578,-3.8445,-3.945,-4.0371,-4.1191,-4.1191,-4.1191,-4.1191,-4.1191,-4.0937,-4.039,-3.8989,-3.7871,-3.6862,-3.5493,-3.4148,-3.2816,-3.1616,-3.0978,-3.0484,-2.9248,-2.8268,-2.7432,0.0,0.0,0.0,0.0,0.0,0.0,0.0,0.0,0.0,0.0,0.0,0.0,0.0,0.0,-3.4705,0.0,0.0,-4.0134,-4.2251,-4.3361,-4.4287,-4.5267,-4.5514,-4.5415,-4.4909,-4.4085,-4.3702,-4.41,-4.3795,-4.3721,-4.412,-4.5051,-4.5597,-4.5597,-4.6053,-4.6094,-4.5664,-4.5644,-4.5449,-4.5019,-4.457,-4.3926,-4.3086,-4.2226,-4.1133,-3.9883,-3.9453,-3.9004,-3.8574,-3.8144,-3.7949,-3.7851,-3.6543,-3.5488,-3.4531,-3.2812,-3.2148,-3.2051,-3.1211,-3.0351,-2.9473,0.0,0.0,0.0,0.0,0.0,0.0,0.0,-1.5609,-1.5699,-1.4701,-1.6402,-1.759,-1.7324,-1.8012,-1.8329,-1.7923,-1.7564,-1.8599,-2.1505,-2.2529,-2.3786,-2.5558,-2.8054,-3.029,-3.2156,-3.3107,-3.4202,-3.5515,-3.5571,-3.5616,-3.5687,-3.6721,-3.7647,-3.8475,-3.9451,-4.0371,-4.1191,-4.1191,-4.1191,-4.1191,-4.1191,-4.1094,-4.084,-3.9852,-3.8989,-3.8146,-3.6884,-3.4735,-3.2411,-3.1797,-3.0979,-3.0034,-2.9035,-2.8481,-2.8095,-2.7437,-2.6018,0.0,0.0,0.0,0.0,0.0,0.0,0.0,0.0,0.0,-3.284,-3.5305,-3.6486,-3.7946,-4.0784,-4.1937,-4.2957,-4.4499,-4.5403,-4.5907,-4.5948,-4.6147,-4.6308,-4.6308,-4.5527,-4.5057,-4.5155,-4.5074,-4.5057,-4.5155,-4.5875,-4.6308,-4.6308,-4.6308,-4.6308,-4.6308,-4.6308,-4.6308,-4.6308,-4.5605,-4.5176,-4.498,-4.3574,-4.2383,-4.1406,-4.0703,-3.9922,-3.9101,-3.8926,-3.8769,-3.8496,-3.707,-3.5684,-3.4394,-3.4219,-3.4043,-3.3651,-3.1836,-3.0703,-2.9961,0.0,0.0,0.0,0.0,0.0,0.0,0.0,0.0,-1.4814,-1.3856,-1.4592,-1.4902,-1.4111,-1.4799,-1.5809,-1.7027,-1.8286,-1.9787,-2.1578,-2.2529,-2.4033,-2.6355,-2.8359,-3.029,-3.2156,-3.2545,-3.3676,-3.5585,-3.56,-3.5682,-3.5884,-3.6776,-3.7698,-3.8613,-3.9492,-4.0371,-4.1191,-4.1191,-4.1191,-4.1191,-4.1191,-4.0742,-3.9941,-3.9062,-3.8549,-3.7997,-3.5615,-3.3055,-3.0782,-3.0814,-2.9788,-2.8728,-3.0152,-2.955,-2.8279,-2.8182,0.0,-2.5712,-2.6493,-2.7276,0.0,-3.0914,-3.1149,-3.2166,0.0,0.0,-3.7323,-3.9921,-4.1093,-4.1959,-4.2938,-4.3806,-4.4661,-4.5531,-4.5797,-4.5936,-4.605,-4.6201,-4.6308,-4.6308,-4.5527,-4.5293,-4.6074,-4.5449,-4.5312,-4.6093,-4.623,-4.6308,-4.6308,-4.6308,-4.6308,-4.6308,-4.6308,-4.6308,-4.6308,-4.6191,-4.5762,-4.5,-4.4805,-4.3848,-4.2266,-4.2168,-4.168,-4.0879,-4.0098,-3.9316,-3.8574,-3.8398,-3.8184,-3.7949,-3.7168,-3.6343,-3.5327,-3.2947,-3.1992,-3.168,0.0,0.0,0.0,0.0,0.0,0.0,0.0,0.0,0.0,0.0,-1.5372,-1.5568,-1.5586,-1.6268,-1.7148,-1.8192,-1.8056,-1.8976,-2.1541,-2.1604,-2.2841,-2.5768,-2.7802,-2.9473,-3.0775,-3.21,-3.3455,-3.4836,-3.5396,-3.5733,-3.5923,-3.6823,-3.7732,-3.8633,-3.9512,-4.0371,-4.1191,-4.1191,-4.1191,-4.1191,-4.1191,-4.0371,-3.8984,-3.7572,-3.6354,-3.5249,-3.4182,-3.2108,0.0,-2.9373,-2.9136,-2.8978,-2.871,-2.8476,-2.8203,-2.7694,-2.7028,0.0,-2.8141,0.0,0.0,0.0,-3.4881,-3.6795,-3.9316,-3.9726,-4.0154,-4.2174,-4.3246,-4.4009,-4.4713,-4.5113,-4.545,0.0,-4.582,-4.5871,-4.5971,-4.6108,-4.6027,-4.5586,-4.5215,-4.5332,-4.6211,-4.5976,-4.5918,-4.6269,-4.6308,-4.6308,-4.6308,-4.6308,-4.6308,-4.6308,-4.6308,-4.6308,-4.6308,-4.6308,-4.6113,-4.5742,-4.5234,-4.4629,-4.3887,-4.2851,-4.1953,-4.1172,-4.0801,-4.0156,-3.9355,-3.9355,-3.9062,-3.8516,-3.7637,-3.7045,-3.6354,-3.3775,-3.2529,-3.1843,0.0,0.0,0.0,0.0,0.0,0.0,0.0,0.0,0.0,0.0,-1.5819,-1.6042,-1.6752,-1.742,-1.8111,-1.8874,-1.7895,-1.8309,-2.0908,-2.0943,-2.2032,-2.4699,-2.673,-2.8458,-2.9829,-3.1418,-3.2819,-3.3996,-3.4701,-3.5227,-3.5588,-3.6268,-3.7187,-3.8262,-3.8906,-3.9668,-4.0488,-4.0488,-4.0488,-4.0469,-4.0215,-3.9082,-3.7305,-3.5282,-3.3434,-3.1928,-3.1887,-3.0339,-2.825,-2.7662,-2.7772,-2.8006,-2.7246,-2.7422,-2.7851,-2.7479,-2.7537,-2.7987,-2.9256,0.0,0.0,-3.5136,-3.7851,-4.037,-4.0839,-4.162,-4.2654,-4.4043,-4.4624,-4.5,-4.5494,-4.5565,-4.5512,-4.5441,-4.5683,-4.5896,-4.5894,-4.585,-4.5592,-4.5058,-4.4785,-4.4883,-4.5527,-4.5801,-4.6035,-4.6289,-4.6308,-4.6308,-4.6308,-4.6308,-4.6308,-4.6308,-4.6308,-4.6308,-4.6308,-4.6308,-4.6308,-4.6289,-4.5664,-4.5117,-4.457,-4.2851,-4.1758,-4.1191,-4.1191,-4.084,-4.0254,-4.0213,-3.9842,-3.9258,-3.8572,-3.7984,-3.7232,-3.511,-3.362,-3.248,0.0,0.0,0.0,0.0,0.0,0.0,0.0,0.0,0.0,0.0,0.0,0.0,0.0,-1.6661,-1.7379,-1.826,-1.816,-1.8467,-1.9408,-2.0911,-2.2228,-2.3313,-2.5114,-2.7312,-2.9934,-3.0375,-3.1445,-3.3229,-3.3334,-3.3849,-3.4746,-3.4766,-3.5684,-3.7344,-3.7363,-3.7851,-3.8672,-3.8672,-3.8672,-3.8613,-3.7754,-3.6367,-3.4531,-3.2011,-2.9961,-2.8433,-2.8298,-2.7117,-2.5616,-2.5666,-2.5137,-2.4757,-2.6452,-2.7029,0.0,-2.8027,-2.8867,-2.9529,0.0,0.0,-3.5077,-3.6796,-3.9219,-4.1582,-4.3203,-4.4258,-4.5137,-4.6035,-4.5566,-4.4958,-4.4846,-4.4833,-4.4764,-4.4575,-4.5406,-4.6042,-4.5916,-4.5396,-4.5039,-4.5,-4.4258,-4.375,0.0,-4.4531,-4.5391,-4.623,-4.6308,-4.6308,-4.6308,-4.6308,-4.6308,-4.6308,-4.6308,-4.6308,-4.6308,-4.6308,-4.6308,-4.6308,-4.6269,-4.5371,-4.3672,-4.1992,-4.1211,-4.1191,-4.1191,-4.1172,-4.1152,-4.1016,-4.1021,-4.1113,-4.0956,-3.9804,-3.814,-3.7232,-3.5837,-3.4309,0.0,0.0,0.0,0.0,0.0,0.0,0.0,0.0,0.0,0.0,0.0,0.0,0.0,0.0,0.0,0.0,-1.7461,-1.8041,-1.9499,-1.9613,-2.025,-2.1646,-2.3562,-2.5034,-2.5921,-2.8429,-3.0046,-3.0745,-3.1303,-3.178,-3.2187,-3.2187,-3.2793,-3.3945,-3.4473,-3.5195,-3.6016,-3.6016,-3.6016,-3.5898,-3.4473,-3.3183,-3.1889,-2.9876,-2.8339,-2.7153,0.0,-2.6035,-2.5488,-2.4927,-2.4929,-2.5184,-2.5256,-2.5679,-2.6543,-2.8574,-2.9785,-3.0957,-3.3221,0.0,-3.8555,-4.0254,-4.2207,-4.4023,-4.5156,-4.5644,-4.5625,-4.4746,-4.3887,-4.2928,-4.1751,-4.1474,-4.1761,-4.2852,-4.3751,-4.4711,-4.5874,-4.5859,-4.5321,-4.4258,-4.4394,0.0,0.0,0.0,0.0,-4.543,-4.5976,-4.6308,-4.6308,-4.6308,-4.6308,-4.6308,-4.6308,-4.6308,-4.6308,-4.6308,-4.6308,-4.6308,-4.6308,-4.5391,-4.3672,-4.3125,-4.2246,-4.123,-4.1758,-4.1992,-4.1992,-4.1951,-4.1951,-4.1875,-4.072,-3.9813,-3.9064,-3.8189,-3.7428,-3.6485,0.0,0.0,0.0,0.0,0.0,0.0,0.0,0.0,0.0,0.0,0.0,0.0,0.0,0.0,0.0,0.0,0.0,-1.732,-1.8782,-1.8638,-1.9136,-2.055,-2.2123,-2.3275,-2.3959,-2.6301,-2.7851,-2.8538,-2.8481,-2.8815,-2.9491,-2.8867,-2.9219,-3.0351,-3.0879,-3.1601,-3.2402,-3.2402,-3.2577,-3.2714,-3.1324,-3.0376,-2.9613,-2.784,-2.6722,0.0,-2.5159,-2.5124,-2.5383,-2.4874,-2.5073,-2.5527,-2.5354,-2.6339,-2.7891,-2.957,-3.1328,-3.334,-3.6152,-3.8828,-4.1191,-4.2891,-4.4414,-4.5605,-4.6172,-4.6055,-4.5254,-4.3223,-4.1875,-4.0429,-3.8417,-3.7976,-3.8477,-4.0172,-4.1407,-4.2852,-4.489,-4.5201,-4.4967,-4.4258,-4.4668,-4.4668,0.0,0.0,0.0,-4.5469,-4.5976,-4.6308,-4.6308,-4.6308,-4.6308,-4.6308,-4.6308,-4.6308,-4.6308,-4.6308,-4.6288,-4.6225,-4.5913,-4.5189,-4.4076,-4.3803,-4.3083,-4.2129,-4.2637,-4.2851,-4.2851,-4.2849,-4.283,-4.2754,-4.1658,-4.0755,-4.0022,-3.9445,-3.8757,-3.781,0.0,0.0,0.0,0.0,0.0,0.0,0.0,0.0,0.0,0.0,0.0,0.0,0.0,0.0,0.0,0.0,0.0,0.0,-1.7344,-1.8068,-1.8917,-1.9944,-2.0795,-2.2061,-2.3814,-2.4116,-2.5017,-2.6604,-2.5073,-2.519,-2.677,-2.5116,-2.5215,-2.6797,-2.6855,-2.7324,-2.8105,-2.8102,-2.8528,-2.9148,-2.8223,-2.7816,-2.7543,-2.5761,-2.5054,-2.4899,-2.403,-2.4345,0.0,0.0,0.0,0.0,0.0,-2.8837,-3.0995,-3.1172,-3.3593,-3.6581,-3.8379,-4.0684,-4.3008,-4.4648,-4.5644,-4.6211,-4.6172,-4.543,-4.4023,-4.1465,-3.9512,-3.75,0.0,0.0,-3.5131,-3.6881,-3.8751,-4.0832,-4.3292,-4.3793,-4.4198,0.0,0.0,0.0,0.0,0.0,0.0,-4.6426,0.0,-4.6308,-4.6308,-4.6308,-4.6308,-4.6308,-4.6308,-4.6308,-4.6308,-4.6308,-4.6226,-4.6089,-4.5269,-4.4838,-4.4779,-4.4016,-4.3672,-4.3691,-4.375,-4.3769,-4.3769,-4.3693,-4.3718,-4.3769,-4.3654,-4.2576,-4.1056,-4.0997,-3.9912,-3.8504,0.0,0.0,0.0,0.0,0.0,0.0,0.0,0.0,0.0,0.0,0.0,0.0,0.0,0.0,0.0,0.0,0.0,0.0,-1.7554,-1.7791,-1.8041,-1.8374,-1.9862,-2.0616,-2.045,-2.2384,-2.3614,-2.4043,-2.3631,-2.3652,-2.4082,-2.3631,-2.3668,-2.4115,-2.4777,-2.5184,-2.5391,-2.5342,-2.5408,-2.541,-2.384,-2.3543,-2.3918,-2.275,-2.2985,-2.3885,-2.3746,0.0,0.0,0.0,0.0,0.0,0.0,-3.0232,-3.2305,-3.4902,-3.7207,-3.9414,-4.1758,-4.3828,-4.541,-4.5859,-4.5644,-4.5156,-4.4512,-4.2715,-4.0469,-3.7851,-3.543,-3.3359,0.0,0.0,0.0,-3.7629,-3.9705,0.0,-4.5133,-4.6171,0.0,-4.6016,0.0,-4.7558,-4.6699,-4.7598,0.0,0.0,-4.7031,-4.6308,-4.6308,-4.6308,-4.6308,-4.6308,-4.6308,-4.6308,-4.6308,-4.6308,-4.6226,-4.6108,-4.5874,-4.5425,-4.4799,-4.4584,-4.4201,-4.373,-4.4394,-4.4668,-4.4668,-4.4647,-4.4647,-4.4609,-4.3924,-4.2986,-4.1974,-4.1942,-4.161,-4.1155,0.0,0.0,0.0,0.0,0.0,0.0,0.0,0.0,0.0,0.0,0.0,0.0,0.0,0.0,0.0,0.0,0.0,0.0,0.0,-1.717,-1.7368,-1.7788,-1.8763,-1.9272,-1.9203,-2.0637,-2.1587,-2.1961,-2.16,-2.1426,-2.1387,-2.1032,-2.1066,-2.145,-2.1914,-2.2335,-2.2674,-2.2584,-2.2732,0.0,0.0,-2.1853,-2.2468,-2.1869,-2.2116,-2.2764,0.0,0.0,0.0,0.0,0.0,-3.013,-3.1423,-3.3535,-3.5976,-3.832,0.0,-4.1953,-4.3789,-4.5254,-4.6308,-4.6308,-4.5351,-4.4199,-4.3339,-4.0859,-3.7909,-3.4916,-3.2517,0.0,0.0,0.0,0.0,0.0,0.0,0.0,-4.3437,-4.5097,-4.6132,0.0,-4.8066,0.0,-4.8223,-4.8965,-4.9316,0.0,-4.7988,-4.7441,-4.7441,-4.707,-4.6875,-4.6875,-4.6504,-4.6308,-4.6308,-4.6308,-4.6226,-4.6108,-4.6039,-4.5788,-4.5365,-4.5315,-4.5119,-4.4863,0.0,-4.5566,-4.5566,-4.5566,-4.5566,-4.5527,-4.5039,-4.4295,-4.3482,-4.3447,-4.3162,-4.2804,0.0,0.0,0.0,0.0,0.0,0.0,0.0,0.0,0.0,0.0,0.0,0.0,0.0,0.0,0.0,0.0,0.0,0.0,0.0,0.0,0.0,-1.7626,-1.7764,-1.8142,-1.8856,-1.8983,-1.9461,-2.0349,-1.9645,-1.9316,-1.9355,-1.8667,-1.8735,-1.9465,-1.9397,-1.9776,-2.046,-2.0238,-2.0556,-2.1197,-2.0884,-2.1105,-2.1582,0.0,0.0,0.0,0.0,0.0,0.0,0.0,-3.0501,-3.2624,-3.4608,-3.7519,-4.0429,-4.1406,-4.2734,-4.4062,-4.4941,-4.5723,-4.6308,-4.6308,-4.4804,-4.3085,-4.2126,-3.9058,-3.5502,-3.2251,0.0,-2.8351,-2.6265,-2.5974,-2.7226,-3.082,0.0,-3.5545,-4.0722,-4.285,-4.4804,-4.7305,-4.8379,-4.8945,-4.9062,-4.9766,-4.9883,-4.9121,-4.9062,-4.8965,-4.873,-4.8008,-4.7558,-4.7422,-4.6699,-4.6308,-4.6308,-4.6308,-4.6226,-4.6108,-4.5985,-4.5988,-4.6106,-4.5981,-4.6053,-4.6308,-4.6308,-4.6308,-4.6308,-4.6308,-4.6308,-4.6308,-4.6308,-4.5762,-4.498,-4.4926,-4.4463,-4.3867,0.0,0.0,0.0,0.0,0.0,0.0,0.0,0.0,0.0,0.0,-1.4717,-1.3879,0.0,0.0,0.0,0.0,0.0,0.0,0.0,0.0,0.0,0.0,-1.7534,-1.764,-1.7135,-1.7843,-1.8648,-1.9511,-1.9373,-1.9639,-2.0261,-2.0127,-2.0148,-2.0283,-2.0219,-2.0257,-2.0285,-1.9542,-1.9216,-1.9125,-1.8324,-1.7956,-1.7969,0.0,0.0,0.0,0.0,0.0,0.0,0.0,-3.0345,-3.3727,-3.6914,-3.9785,-4.2285,-4.3867,-4.4551,-4.4961,-4.584,-4.6172,-4.6308,-4.6308,-4.3864,-4.1083,-3.9606,-3.5415,0.0,0.0,0.0,-2.6431,-2.6726,-2.7357,0.0,-3.3379,0.0,0.0,0.0,0.0,-4.5488,0.0,0.0,0.0,0.0,0.0,0.0,0.0,0.0,-4.9355,-4.7891,-4.7676,-4.7266,-4.6543,-4.6387,-4.6308,-4.6308,-4.6308,-4.6226,-4.6108,-4.608,-4.608,-4.6108,-4.6077,-4.6147,-4.6308,-4.6308,0.0,-4.6308,-4.6308,-4.6308,-4.6308,-4.6308,-4.5762,-4.5,-4.4999,-4.4882,-4.4765,0.0,0.0,0.0,0.0,0.0,0.0,0.0,-1.3537,-1.4616,-1.5467,-1.4509,-1.4134,-1.5133,-1.3717,-1.3066,0.0,0.0,0.0,0.0,0.0,0.0,0.0,0.0,0.0,0.0,-1.7558,0.0,0.0,0.0,-1.9274,-1.9206,0.0,0.0,0.0,-2.0034,-1.9865,-1.896,-1.8943,-1.858,-1.797,-1.7417,-1.7077,0.0,0.0,0.0,0.0,0.0,0.0,0.0,0.0,-2.9289,-3.2046,-3.6522,-3.998,-4.2656,-4.3945,-4.4648,-4.5195,-4.6055,-4.6308,-4.6191,-4.5742,-4.2632,-3.9261,-3.7629,0.0,0.0,0.0,-2.6515,-2.5783,-2.6248,0.0,0.0,0.0,0.0,0.0,0.0,0.0,0.0,0.0,0.0,0.0,0.0,0.0,0.0,0.0,0.0,-4.9648,-4.8359,-4.7851,-4.7207,-4.6328,-4.6308,-4.6308,-4.6308,-4.6308,-4.6268,-4.6201,-4.6122,-4.6144,-4.62,-4.6122,-4.6174,-4.6308,-4.6308,-4.6308,-4.6308,-4.6308,-4.6308,-4.6308,-4.6308,-4.6035,-4.5683,-4.5683,-4.5683,-4.5683,0.0,0.0,0.0,0.0,0.0,0.0,0.0,-1.3196,-1.4088,-1.5129,-1.4357,-1.4354,-1.6041,-1.3566,-1.2266,0.0,0.0,0.0,0.0,0.0,0.0,0.0,0.0,0.0,0.0,0.0,0.0,0.0,0.0,0.0,0.0,0.0,0.0,0.0,0.0,0.0,0.0,-1.8152,-1.7865,0.0,0.0,0.0,0.0,0.0,0.0,0.0,0.0,0.0,0.0,0.0,-2.7363,-2.9255,-3.3873,-3.8064,-4.1483,-4.2558,-4.3613,-4.4668,-4.5723,-4.6152,-4.6133,-4.5449,-4.1712,-3.7809,-3.6332,-3.179,0.0,0.0,-2.6089,-2.5615,-2.5668,0.0,0.0,0.0,0.0,0.0,0.0,0.0,0.0,0.0,0.0,0.0,0.0,0.0,0.0,0.0,0.0,-4.9433,-4.8926,-4.7891,-4.7012,-4.6328,-4.6308,-4.6308,-4.6308,-4.6308,-4.6308,-4.6308,-4.6199,-4.62,-4.6308,-4.6198,-4.62,-4.6308,-4.6308,-4.6308,-4.6308,-4.6308,-4.6308,-4.6308,-4.6308,-4.6308,-4.6308,-4.6308,-4.6308,-4.6308,0.0,0.0,0.0,0.0,0.0,0.0,0.0,-1.3265,-1.4345,-1.5879,-1.4757,-1.4173,-1.521,-1.3743,-1.2443,0.0,0.0,0.0,0.0,0.0,0.0,0.0,0.0,0.0,0.0,0.0,0.0,0.0,0.0,0.0,0.0,0.0,0.0,0.0,0.0,0.0,0.0,0.0,0.0,0.0,0.0,0.0,0.0,0.0,0.0,0.0,0.0,0.0,0.0,0.0,0.0,-2.6057,-2.8242,-3.2966,-3.8008,-3.9677,0.0,0.0,-4.4668,-4.5703,-4.6289,-4.6191,-4.1663,-3.7008,-3.6187,0.0,0.0,-2.5868,-2.5668,-2.5598,-2.5601,-2.5605,-2.618,0.0,0.0,-3.1047,0.0,0.0,0.0,0.0,0.0,0.0,0.0,0.0,0.0,0.0,0.0,-4.8144,-4.8867,-4.7324,-4.6387,-4.6308,-4.6308,-4.6308,-4.6308,-4.6308,-4.6308,-4.6308,-4.6289,-4.6289,-4.6308,-4.6289,-4.6289,-4.6308,-4.6308,-4.6308,0.0,-4.6308,-4.6308,-4.6308,-4.6308,-4.6308,-4.6308,-4.6308,-4.6308,-4.6308,0.0,0.0,0.0,0.0,0.0,0.0,-1.1702,-1.2082,-1.2887,-1.4549,-1.4199,-1.3962,-1.4431,-1.3437,-1.2412,-1.1601,0.0,0.0,0.0,0.0,0.0,0.0,0.0,0.0,0.0,0.0,0.0,0.0,0.0,0.0,0.0,0.0,0.0,0.0,0.0,0.0,0.0,0.0,0.0,0.0,0.0,0.0,0.0,0.0,0.0,0.0,0.0,0.0,0.0,0.0,0.0,0.0,-2.4351,-2.7225,0.0,0.0,-3.8644,-4.1228,-4.2969,-4.4844,-4.6055,-4.5,-4.0513,-3.6044,-3.4724,0.0,0.0,-2.564,-2.5593,-2.56,-2.5607,-2.5607,-2.5998,-2.7221,0.0,0.0,0.0,0.0,0.0,0.0,0.0,0.0,0.0,0.0,0.0,0.0,0.0,-4.7754,-4.8105,-4.6953,-4.6308,-4.6308,-4.6308,-4.6308,-4.6308,-4.6308,-4.6308,-4.6308,-4.6308,-4.6308,-4.6308,-4.6308,-4.6308,-4.6308,-4.6308,-4.6308,0.0,-4.6308,-4.6308,-4.6308,-4.6308,-4.6308,-4.6308,-4.6308,-4.6247,-4.6198,0.0,0.0,0.0,0.0,0.0,-1.0924,-1.192,-1.2065,-1.2481,-1.3652,-1.3831,-1.3796,-1.3626,-1.2853,-1.2121,-1.154,-1.0758,0.0,0.0,0.0,0.0,0.0,0.0,0.0,0.0,0.0,-1.6301,-1.6319,-1.6579,0.0,0.0,0.0,0.0,0.0,0.0,0.0,0.0,0.0,0.0,0.0,0.0,0.0,0.0,0.0,0.0,0.0,0.0,0.0,0.0,0.0,0.0,0.0,0.0,0.0,0.0,0.0,-3.5149,-3.8304,-4.0286,-4.2575,-4.4079,-4.2805,-3.8786,-3.4741,0.0,0.0,-2.5522,-2.559,-2.5596,-2.5601,-2.5605,-2.56,-2.589,-2.6751,0.0,-2.8237,0.0,0.0,0.0,0.0,0.0,0.0,0.0,0.0,0.0,0.0,-4.832,-4.7754,-4.7246,-4.6621,-4.6308,-4.6308,-4.6308,-4.6308,-4.6308,-4.6308,-4.6308,-4.6308,-4.6308,-4.6308,-4.6308,-4.6308,-4.6308,-4.6308,-4.6308,-4.6308,0.0,-4.6308,-4.6308,-4.6308,-4.6308,-4.6308,-4.6308,-4.6308,-4.6246,-4.6174,0.0,0.0,0.0,0.0,0.0,0.0,-1.3629,-1.3872,-1.3857,-1.3807,-1.3923,-1.3667,-1.2806,-1.199,-1.1514,-1.1504,-1.0763,0.0,0.0,0.0,0.0,0.0,0.0,0.0,0.0,0.0,-1.534,-1.541,-1.6276,-1.6254,-1.5421,-1.6228,0.0,0.0,0.0,0.0,0.0,0.0,0.0,0.0,0.0,0.0,0.0,0.0,0.0,0.0,0.0,0.0,0.0,0.0,0.0,0.0,0.0,0.0,0.0,0.0,-3.0642,-3.3916,-3.6475,-3.8477,-3.9834,-3.968,-3.6467,-3.3106,0.0,0.0,-2.5525,-2.5595,-2.5601,-2.5601,-2.5601,-2.5601,-2.5892,-2.677,-2.7563,0.0,0.0,0.0,0.0,0.0,0.0,0.0,0.0,0.0,0.0,0.0,-4.8887,0.0,-4.6406,-4.6308,-4.6308,-4.6308,-4.6308,-4.6308,-4.6308,-4.6308,-4.6308,-4.6308,-4.6308,-4.6308,-4.6308,-4.6308,-4.6308,-4.6308,-4.6308,-4.6308,0.0,-4.6308,-4.6308,-4.6308,-4.6308,-4.6308,-4.6308,-4.6308,-4.6308,-4.6308,0.0,0.0,0.0,0.0,0.0,0.0,0.0,-1.272,-1.3294,-1.386,-1.3975,-1.412,-1.4441,-1.3222,-1.2372,-1.2311,-1.1038,0.0,0.0,0.0,0.0,0.0,0.0,0.0,0.0,0.0,-1.5624,-1.6282,-1.6566,-1.6849,-1.7105,-1.6753,-1.6389,-1.5984,0.0,0.0,0.0,0.0,0.0,0.0,0.0,0.0,0.0,0.0,0.0,0.0,0.0,0.0,0.0,0.0,0.0,0.0,0.0,0.0,0.0,-2.3365,0.0,0.0,-3.3065,-3.5334,-3.6985,-3.6337,-3.3869,-3.1363,-3.049,0.0,-2.557,-2.5598,-2.5601,-2.5601,-2.5601,-2.5592,-2.6075,-2.7482,-2.7938,0.0,0.0,0.0,0.0,0.0,0.0,0.0,0.0,0.0,0.0,0.0,-4.8359,-4.7519,-4.6367,-4.6308,-4.6308,-4.6308,-4.6308,-4.6308,-4.6308,-4.6308,-4.6308,-4.6308,-4.6308,-4.6308,-4.6308,-4.6308,-4.6308,-4.6308,-4.6308,-4.6308,-4.6308,-4.6308,-4.6308,-4.6308,-4.6308,-4.6308,-4.6308,-4.6308,-4.6247,-4.6152,0.0,0.0,0.0,0.0,0.0,0.0,0.0,-1.2916,-1.3294,-1.3519,-1.3818,-1.421,-1.4746,-1.3291,-1.238,-1.2645,-1.113,0.0,0.0,0.0,0.0,0.0,0.0,0.0,0.0,-1.5292,-1.5765,-1.6708,-1.7034,-1.7453,-1.7925,-1.7679,-1.7141,-1.6406,-1.5816,0.0,0.0,0.0,0.0,0.0,0.0,0.0,-1.4067,0.0,0.0,0.0,0.0,0.0,0.0,0.0,0.0,0.0,0.0,0.0,0.0,0.0,-2.4034,0.0,0.0,-3.1444,-3.289,-3.2636,-3.1181,0.0,0.0,0.0,-2.5601,-2.5601,-2.5601,-2.5601,-2.5601,-2.5607,-2.6057,-2.7427,-2.7919,0.0,0.0,0.0,0.0,0.0,0.0,0.0,0.0,0.0,0.0,-4.8476,-4.791,-4.7226,-4.6348,-4.6308,-4.6308,-4.6308,-4.6308,-4.6308,-4.6308,-4.6308,-4.6308,-4.6308,-4.6308,-4.6308,-4.6308,-4.6308,-4.6308,-4.6308,-4.6308,-4.6308,0.0,-4.6308,-4.6308,-4.6308,-4.6308,-4.6308,-4.6308,-4.6308,-4.6247,-4.6173,0.0,0.0,0.0,0.0,0.0,0.0,0.0,-1.4023,-1.3816,-1.2988,-1.3593,-1.4091,-1.4083,-1.2537,-1.1791,-1.254,0.0,0.0,0.0,0.0,0.0,0.0,0.0,0.0,-1.53,-1.5291,-1.5788,-1.6785,-1.7596,-1.8042,-1.8181,-1.8804,-1.8197,-1.6571,-1.6401,-1.5822,-1.4983,-1.484,-1.4553,-1.4238,-1.4475,-1.4422,0.0,0.0,0.0,0.0,0.0,0.0,0.0,0.0,0.0,0.0,0.0,0.0,0.0,0.0,0.0,0.0,0.0,0.0,0.0,0.0,0.0,0.0,0.0,0.0,0.0,-2.5598,-2.5598,-2.5621,-2.5676,-2.5692,-2.5999,-2.6931,-2.7812,0.0,0.0,0.0,0.0,0.0,0.0,0.0,0.0,0.0,-4.8594,-4.7676,-4.7598,-4.7226,-4.6348,-4.6308,-4.6308,-4.6308,-4.6308,-4.6308,-4.6308,-4.6308,-4.6308,-4.6308,-4.6308,-4.6308,-4.6308,-4.6308,-4.6308,0.0,-4.6308,-4.6308,-4.6308,-4.6308,-4.6308,-4.6308,-4.6308,-4.6308,-4.6308,-4.6308,-4.6308,-4.6289,0.0,0.0,0.0,0.0,0.0,0.0,0.0,0.0,0.0,0.0,-1.4459,-1.4976,-1.4927,-1.341,-1.2459,0.0,0.0,0.0,0.0,0.0,0.0,0.0,0.0,0.0,-1.5307,-1.529,-1.6092,-1.7687,-1.7849,-1.8586,-1.9813,-1.9278,-1.8445,-1.7381,-1.6681,-1.5813,-1.4837,-1.4655,-1.4497,-1.4343,-1.438,-1.4325,0.0,0.0,0.0,0.0,-1.5304,-1.5633,0.0,0.0,0.0,0.0,0.0,0.0,0.0,0.0,-2.1412,-2.25,-2.3395,0.0,-2.5328,-2.6165,-2.6288,0.0,0.0,0.0,0.0,0.0,0.0,0.0,0.0,-2.6556,-2.7073,-2.8576,-2.9535,0.0,0.0,0.0,0.0,0.0,0.0,0.0,0.0,0.0,-4.9145,-4.7715,-4.7598,-4.7226,-4.6348,-4.6308,-4.6308,-4.6308,-4.6308,-4.6308,-4.6308,-4.6308,-4.6308,-4.6308,-4.6308,-4.6308,-4.6308,-4.6308,-4.6308,-4.6308,-4.6308,-4.6308,-4.6308,-4.6308,-4.6308,-4.6308,-4.6308,-4.6308,-4.6308,-4.6308,-4.6308,-4.6289,0.0,0.0,0.0,0.0,0.0,0.0,0.0,0.0,0.0,0.0,0.0,0.0,0.0,0.0,0.0,0.0,0.0,0.0,0.0,0.0,0.0,0.0,0.0,-1.4827,-1.5284,-1.5299,-1.6173,-1.7943,-1.7927,-1.8759,-2.0404,-2.0265,-1.9516,-1.8234,-1.6946,-1.5754,-1.4754,-1.4693,-1.4587,-1.4441,-1.4469,0.0,0.0,0.0,0.0,0.0,-1.4866,-1.5261,0.0,-1.7149,-1.7877,-1.8382,0.0,0.0,0.0,0.0,-2.0616,-2.1559,-2.2418,-2.3385,-2.4355,-2.5236,-2.5528,-2.5596,0.0,0.0,0.0,0.0,0.0,0.0,0.0,0.0,0.0,0.0,-2.9555,0.0,0.0,0.0,0.0,0.0,0.0,0.0,0.0,0.0,-4.8316,-4.709,-4.6992,-4.6797,-4.6328,-4.6308,-4.6308,-4.6308,-4.6308,-4.6308,-4.6308,-4.6308,-4.6308,-4.6308,-4.6308,-4.6308,-4.6308,-4.6308,-4.6308,-4.6308,-4.6308,-4.6268,-4.6203,-4.6269,-4.6268,-4.6202,-4.6202,-4.6247,-4.6289,-4.6225,-4.6247,-4.6289,0.0,0.0,0.0,0.0,0.0,0.0,0.0,0.0,0.0,0.0,0.0,0.0,0.0,0.0,0.0,0.0,0.0,0.0,0.0,0.0,0.0,0.0,0.0,-1.437,-1.5448,-1.5475,-1.6326,-1.8078,-1.8205,-1.9069,-2.0593,-2.1407,-2.0781,-1.8883,-1.6976,-1.5588,-1.4709,-1.4832,-1.4739,-1.4518,-1.4616,0.0,0.0,0.0,0.0,0.0,0.0,0.0,0.0,-1.6611,-1.7468,-1.8363,-1.9307,0.0,0.0,0.0,0.0,0.0,-2.2119,-2.3319,-2.43,-2.5185,-2.5506,-2.5603,-2.5608,0.0,0.0,0.0,0.0,0.0,0.0,0.0,0.0,0.0,0.0,0.0,0.0,0.0,0.0,0.0,0.0,0.0,0.0,-4.6726,-4.7079,-4.6347,-4.6308,-4.6308,-4.6308,-4.6308,-4.6308,-4.6308,-4.6308,-4.6308,-4.6308,-4.6308,-4.6308,-4.6308,-4.6308,-4.6308,-4.6308,-4.6308,-4.6289,-4.6268,0.0,0.0,-4.608,-4.6199,-4.6174,-4.6075,-4.6075,-4.6147,-4.6267,-4.6145,-4.6177,-4.6289,0.0,0.0,0.0,0.0,0.0,0.0,0.0,0.0,0.0,0.0,0.0,0.0,0.0,0.0,0.0,0.0,0.0,0.0,0.0,0.0,0.0,-1.3652,-1.3761,-1.4574,-1.6195,-1.63,-1.7136,-1.8838,-1.9565,-2.0443,-2.1434,-2.2242,-2.1257,-1.8729,-1.6342,-1.5068,-1.4708,-1.4785,-1.469,-1.4493,-1.4521,0.0,0.0,0.0,0.0,0.0,0.0,0.0,0.0,-1.6541,-1.7436,-1.8363,-1.9291,0.0,0.0,0.0,0.0,0.0,-2.2167,-2.3204,-2.4245,-2.5168,-2.5501,-2.5596,-2.5603,0.0,0.0,0.0,0.0,0.0,0.0,0.0,0.0,0.0,0.0,0.0,0.0,0.0,0.0,0.0,0.0,0.0,0.0,-4.6333,-4.6969,-4.6347,-4.6308,-4.6308,-4.6308,-4.6308,-4.6308,-4.6308,-4.6308,-4.6308,-4.6308,-4.6308,-4.6308,-4.6308,-4.6308,-4.6308,-4.6308,-4.6308,-4.6246,-4.612,0.0,-4.6047,-4.5928,-4.5944,-4.594,-4.5924,-4.5924,-4.6005,-4.612,-4.6113,-4.6177,-4.6268,0.0,0.0,0.0,0.0,0.0,0.0,0.0,0.0,0.0,0.0,0.0,0.0,0.0,0.0,0.0,0.0,0.0,0.0,0.0,0.0,0.0,-1.375,-1.4211,-1.5087,-1.6413,-1.6442,-1.751,-1.9659,-2.0042,-2.0923,-2.2241,-2.1665,-2.0476,-1.8709,-1.6624,-1.5328,-1.4703,-1.4732,-1.4645,-1.4492,0.0,0.0,0.0,0.0,0.0,0.0,0.0,0.0,0.0,0.0,-1.7683,-1.8878,-1.9385,0.0,0.0,0.0,0.0,0.0,-2.15,-2.2481,-2.3366,-2.3832,-2.4774,-2.5486,-2.4996,0.0,0.0,0.0,0.0,0.0,0.0,0.0,0.0,0.0,0.0,0.0,0.0,0.0,0.0,0.0,0.0,-4.5555,-4.5418,-4.6052,-4.645,-4.6308,-4.6308,-4.6308,-4.6308,-4.6308,-4.6308,-4.6308,-4.6308,-4.6308,-4.6308,-4.6308,-4.6308,-4.6308,-4.6308,-4.6308,-4.6308,-4.6308,-4.6268,-4.6201,0.0,-4.6011,-4.5899,-4.5899,-4.5881,-4.5853,-4.5853,-4.5955,-4.6113,-4.6175,-4.6247,-4.6268,0.0,0.0,0.0,0.0,0.0,0.0,0.0,0.0,0.0,0.0,0.0,0.0,0.0,0.0,0.0,0.0,0.0,0.0,0.0,0.0,-1.3221,-1.3978,-1.4829,-1.5735,-1.674,-1.6905,-1.8033,-2.0207,-2.0408,-2.1271,-2.2723,-2.0787,-1.9462,-1.8678,-1.678,-1.5498,-1.4722,-1.4738,-1.4673,-1.4547,0.0,0.0,0.0,0.0,0.0,0.0,0.0,0.0,0.0,0.0,0.0,0.0,0.0,0.0,0.0,-1.9725,-1.9782,-2.0007,-2.0928,-2.1865,-2.2587,-2.2652,0.0,-2.5454,-2.5009,-2.5627,0.0,0.0,0.0,0.0,0.0,0.0,0.0,0.0,0.0,0.0,0.0,0.0,-4.3369,-4.4546,-4.4727,-4.5059,-4.5822,-4.5899,-4.6005,-4.6289,-4.6308,-4.6308,-4.6308,-4.6308,-4.6308,-4.6308,-4.6308,-4.6308,-4.6308,-4.6308,-4.6308,-4.6308,-4.6308,-4.6308,-4.6308,-4.6308,-4.6289,-4.6247,-4.6115,-4.5981,-4.5872,-4.5841,-4.5801,-4.5761,-4.5783,-4.5925,-4.6115,-4.6247,-4.6308,-4.6268,0.0,0.0,0.0,0.0,0.0,0.0,0.0,0.0,0.0,0.0,0.0,0.0,0.0,0.0,0.0,0.0,0.0,0.0,0.0,0.0,-1.4712,-1.4905,-1.5672,-1.6561,-1.7497,-1.8315,-1.9203,-2.0201,-2.1013,-2.1842,-2.2652,-2.0093,-1.8798,-1.8512,-1.6214,-1.504,-1.4794,-1.4856,-1.4802,-1.468,-1.4688,0.0,0.0,0.0,0.0,0.0,0.0,0.0,0.0,0.0,0.0,0.0,0.0,0.0,-1.9589,-1.9621,-1.9706,-1.9982,-2.0879,-2.1789,-2.2519,-2.259,-2.4062,0.0,-2.6526,-2.7399,0.0,-3.018,0.0,0.0,0.0,0.0,0.0,0.0,0.0,0.0,0.0,0.0,-4.5389,-4.5507,-4.5526,-4.5619,-4.5876,-4.5899,-4.6005,-4.6289,-4.6308,-4.6308,-4.6308,-4.6308,-4.6308,-4.6308,-4.6308,-4.6308,-4.6308,-4.6308,-4.6308,-4.6308,-4.6308,-4.6308,-4.6308,-4.6308,-4.6226,-4.6113,-4.5978,-4.5862,-4.5809,-4.5669,-4.561,-4.5637,-4.5754,-4.5925,-4.6115,-4.6247,-4.6308,-4.6289,0.0,0.0,0.0,0.0,0.0,0.0,0.0,0.0,0.0,0.0,0.0,0.0,0.0,0.0,0.0,0.0,0.0,0.0,0.0,-1.4245,-1.4756,-1.493,-1.5759,-1.6635,-1.7584,-1.8451,-1.9563,-2.0958,-2.1785,-2.2062,-2.1784,-1.9759,-1.8529,-1.7948,-1.5937,-1.5308,-1.5696,-1.5144,-1.5162,-1.5523,-1.493,-1.4682,0.0,0.0,0.0,0.0,0.0,0.0,0.0,0.0,-1.7101,-1.8019,-1.8937,-1.932,-1.9449,-1.9555,-1.9673,-1.9819,-2.0195,-2.1312,-2.2281,-2.1939,-2.3932,0.0,0.0,-2.792,-2.9489,-3.1191,-3.2367,0.0,0.0,0.0,0.0,0.0,0.0,0.0,0.0,0.0,-4.5594,-4.5594,-4.5594,-4.5688,-4.5876,-4.5899,-4.6005,-4.6289,-4.6308,-4.6055,-4.5527,-4.6016,-4.6055,-4.5508,-4.6016,-4.6035,-4.5508,-4.595,-4.595,-4.5508,-4.6035,-4.6308,-4.6308,-4.6308,-4.6269,-4.6203,-4.5992,-4.5896,-4.585,-4.5665,-4.5594,-4.5629,-4.5789,-4.5952,-4.6115,-4.6247,-4.6308,-4.6289,0.0,0.0,0.0,0.0,0.0,0.0,0.0,0.0,0.0,0.0,0.0,0.0,0.0,0.0,0.0,0.0,0.0,0.0,-1.3841,-1.4333,-1.4716,-1.4887,-1.5738,-1.6518,-1.719,-1.83,-1.9554,-2.0962,-2.1499,-2.1455,-2.0895,-1.9478,-1.8523,-1.794,-1.6491,-1.5994,-1.6257,-1.5646,-1.5515,-1.5693,-1.5051,-1.4752,0.0,0.0,0.0,0.0,0.0,0.0,0.0,0.0,-1.7022,-1.79,-1.8859,-1.9243,-1.9361,-1.9546,-1.9447,-1.9362,-1.9657,-2.079,-2.1865,0.0,0.0,0.0,-2.7624,-2.9088,-3.08,-3.2769,-3.3851,0.0,0.0,0.0,0.0,0.0,0.0,0.0,0.0,0.0,-4.5017,-4.5537,-4.5364,-4.5379,-4.5857,-4.5899,-4.5904,-4.5898,-4.6133,-4.5801,-4.4648,-4.5409,-4.5467,-4.4629,-4.5409,-4.5562,-4.4937,-4.5464,-4.56,-4.5347,-4.5699,-4.6014,-4.6289,-4.6016,-4.5898,-4.5859,-4.5345,-4.5276,-4.5511,-4.5283,-4.5387,-4.5688,-4.5799,-4.5935,-4.6045,-4.6144,-4.6174,-4.615,0.0,0.0,0.0,0.0,0.0,0.0,0.0,0.0,0.0,0.0,0.0,0.0,0.0,0.0,0.0,0.0,0.0,0.0,-1.4489,-1.4627,-1.4749,-1.4887,-1.5729,-1.6231,-1.6303,-1.794,-1.9188,-2.0006,-1.9923,-1.9974,-2.0069,-1.9206,-1.8778,-1.8674,-1.7935,-1.7137,-1.633,-1.6387,-1.5876,-1.5046,-1.5027,-1.4888,-1.4713,0.0,0.0,0.0,0.0,0.0,0.0,0.0,-1.7014,-1.7958,-1.8828,-1.9238,-1.942,-1.9555,-1.9046,-1.8601,-1.9403,-2.0298,0.0,0.0,0.0,0.0,-2.9784,-3.1129,-3.2567,-3.5187,0.0,-3.4662,-3.5499,0.0,0.0,-3.6547,-3.8895,-4.1112,0.0,0.0,-4.372,-4.5383,-4.4797,-4.4703,-4.576,-4.5879,-4.5631,-4.5039,-4.5781,-4.5527,-4.3789,-4.4457,-4.4513,-4.3711,-4.4477,-4.4844,-4.4779,-4.4842,-4.5273,-4.605,-4.5254,-4.5375,-4.6269,-4.5391,-4.5,-4.4922,-4.3863,-4.3891,-4.4666,-4.4414,-4.489,-4.5803,-4.5803,-4.5842,-4.5899,-4.5899,-4.5899,-4.5899,0.0,0.0,0.0,0.0,0.0,0.0,0.0,0.0,0.0,0.0,0.0,0.0,0.0,0.0,0.0,0.0,0.0,0.0,-1.4415,-1.46,-1.4698,-1.4687,-1.5062,-1.5544,-1.6078,-1.7681,-1.8975,-1.9923,-1.9907,-1.9934,-2.0015,-1.9225,-1.8878,-1.8874,-1.8041,-1.7865,-1.8114,-1.6903,-1.693,-1.7634,-1.635,-1.5801,-1.5723,0.0,0.0,0.0,0.0,0.0,0.0,0.0,0.0,0.0,-1.8845,-1.9156,-1.918,-1.9519,-1.9873,-2.0226,-2.051,-2.1194,0.0,0.0,0.0,0.0,0.0,-3.1603,0.0,0.0,0.0,-3.6643,-3.8025,0.0,0.0,-3.8349,-3.9673,-4.09,-4.2027,-4.272,-4.3278,-4.3778,-4.3605,-4.3634,-4.4106,-4.4148,-4.413,-4.4082,-4.4336,-4.3984,-4.2851,-4.3559,-4.3603,-4.2735,-4.3544,-4.3634,-4.2916,-4.3536,-4.3701,-4.3437,-4.3701,-4.4385,-4.5371,-4.5117,-4.4668,-4.4062,-4.3693,-4.3624,-4.3815,-4.4163,-4.489,-4.5803,-4.5803,-4.5842,-4.5899,-4.5899,-4.5899,-4.5899,0.0,0.0,0.0,0.0,0.0,0.0,0.0,0.0,0.0,0.0,0.0,0.0,0.0,0.0,0.0,0.0,0.0,0.0,0.0,-1.456,-1.4643,-1.459,-1.4766,-1.5377,-1.6445,-1.7402,-1.8509,-1.9788,-1.9821,-1.9923,-2.0039,-1.9963,-1.9772,-1.9499,-1.9296,-1.9135,-1.8931,-1.7872,-1.7822,-1.8329,-1.7174,-1.6676,-1.6583,0.0,0.0,0.0,0.0,0.0,0.0,0.0,0.0,0.0,-1.8986,-1.9188,-1.9107,-1.9058,-1.9678,-2.0313,-2.0049,0.0,0.0,0.0,0.0,0.0,0.0,0.0,0.0,0.0,0.0,-3.6895,-3.855,-3.7694,0.0,-3.9077,-3.9991,-4.0804,-4.1681,-4.195,0.0,-4.3028,-4.2797,-4.2804,-4.3348,-4.3408,-4.3331,-4.3183,-4.3496,-4.3164,-4.1908,-4.2577,-4.2634,-4.1816,-4.2576,-4.2715,-4.2105,-4.2307,-4.2512,-4.2733,-4.2509,-4.2944,-4.3965,-4.3965,-4.3672,-4.3183,-4.3102,-4.3179,-4.3359,-4.3703,-4.4391,-4.517,-4.4841,-4.4756,-4.4826,-4.5155,-4.5252,-4.531,0.0,0.0,0.0,0.0,0.0,0.0,0.0,0.0,0.0,0.0,0.0,0.0,0.0,0.0,0.0,0.0,0.0,0.0,0.0,0.0,-1.4574,-1.4592,-1.4783,-1.5605,-1.7145,-1.7113,-1.7826,-1.9345,-1.9575,-1.9812,-2.0098,-2.0969,-2.0993,-2.0338,-2.107,-2.0542,-1.9104,-1.9027,-1.8593,-1.7907,-1.7697,-1.7544,-1.7324,-1.6379,0.0,0.0,0.0,0.0,0.0,0.0,0.0,0.0,-1.9235,-1.9303,-1.9158,-1.852,-1.8936,-1.9464,-1.879,0.0,0.0,0.0,0.0,0.0,0.0,0.0,0.0,0.0,0.0,-3.6192,-3.7719,-3.7353,-3.7334,-3.8911,-3.9804,-4.0554,-4.1335,-4.0777,-4.09,-4.2566,-4.1989,-4.1896,-4.3056,-4.3039,-4.2727,-4.2207,-4.291,-4.2634,-4.0978,-4.1575,-4.1662,-4.1005,-4.1627,-4.1945,-4.1846,-4.114,-4.1494,-4.2909,-4.1467,-4.1267,-4.2168,-4.2324,-4.2363,-4.2285,-4.2202,-4.2525,-4.3091,-4.3098,-4.3533,-4.4124,-4.3393,-4.3104,-4.3201,-4.3989,-4.4297,-4.4412,0.0,0.0,0.0,0.0,0.0,0.0,0.0,0.0,0.0,0.0,0.0,0.0,0.0,0.0,0.0,0.0,0.0,0.0,0.0,0.0,-1.4475,-1.4517,-1.514,-1.5962,-1.694,-1.6995,-1.7167,-1.749,-1.8408,-1.9231,-1.9947,-2.0311,-2.0415,-2.0316,-2.0485,-2.0323,-1.9892,-1.9269,-1.9265,-1.9607,-1.8827,-1.8474,-1.8355,-1.7984,-1.7374,0.0,0.0,0.0,0.0,0.0,0.0,0.0,-1.9363,-1.9349,-1.9237,-1.9279,-1.9441,-1.9692,0.0,-2.0847,0.0,0.0,0.0,0.0,0.0,0.0,0.0,0.0,0.0,0.0,0.0,-3.7853,-3.7834,-3.8219,-3.8411,-3.8604,-3.8796,-3.8661,-3.8931,-3.9988,-3.9354,-3.949,-4.1189,-4.0159,-3.9689,-4.039,-4.0605,-4.0504,-4.0001,-4.0676,-4.1003,-4.085,-4.1007,-4.0721,-3.9984,-3.9917,-3.9684,-3.9315,-3.9699,-4.0028,-4.0333,-4.1756,-4.2051,-4.1445,-4.1327,-4.1688,-4.232,-4.2274,-4.2683,-4.3335,-4.3162,-4.3104,-4.3201,-4.3989,-4.4297,-4.4412,0.0,0.0,0.0,0.0,0.0,0.0,0.0,0.0,0.0,0.0,0.0,0.0,0.0,0.0,0.0,0.0,0.0,0.0,0.0,0.0,-1.435,-1.4453,-1.5183,-1.5797,-1.6219,-1.6295,-1.668,-1.7431,-1.7807,-1.8639,-1.9928,-2.0962,-2.1457,-2.1496,-2.1493,-2.1266,-2.0816,-1.9988,-1.9842,-2.0141,-1.9564,-1.9299,-1.9149,-1.849,-1.7937,-1.7399,-1.6813,0.0,0.0,0.0,0.0,0.0,0.0,0.0,-1.9201,-1.8952,-1.9464,-2.0061,0.0,0.0,0.0,0.0,0.0,0.0,0.0,0.0,0.0,0.0,0.0,0.0,0.0,0.0,-3.7065,-3.7873,-3.8007,-3.8007,-3.8007,-3.8007,-3.8161,-3.8623,-3.8277,-3.8421,-3.9493,-3.8816,-3.8578,-3.9238,-3.9668,-3.9836,-3.9664,-4.0376,-4.0797,-4.0797,-4.0797,-4.0388,-3.95,-3.9155,-3.8723,-3.8202,-3.87,-3.9415,-4.0356,-4.1364,-4.1601,-4.1191,-4.1055,-4.1424,-4.2065,-4.1574,-4.1814,-4.245,-4.2027,-4.2104,-4.2585,-4.3412,-4.397,-4.4412,0.0,0.0,0.0,0.0,0.0,0.0,0.0,0.0,0.0,0.0,0.0,0.0,0.0,0.0,0.0,0.0,0.0,0.0,0.0,0.0,0.0,-1.4482,-1.5128,-1.5524,-1.5648,-1.573,-1.6444,-1.7785,-1.7727,-1.8608,-2.0358,-2.1857,-2.2645,-2.2797,-2.2804,-2.2435,-2.176,-2.0893,-2.0485,-2.0391,-2.0048,-1.9881,-1.9681,-1.8703,-1.8291,-1.8132,-1.7261,-1.748,-1.8149,-1.8094,0.0,0.0,0.0,0.0,-1.9156,-1.8511,-1.9239,-2.0011,0.0,0.0,0.0,0.0,0.0,0.0,0.0,0.0,0.0,0.0,0.0,0.0,0.0,0.0,-3.55,-3.6892,-3.7123,-3.7123,-3.7123,-3.7123,-3.718,-3.7334,-3.7334,-3.752,-3.8011,-3.793,-3.8043,-3.8533,-3.9121,-3.9498,-3.9595,-4.0248,-4.0602,-4.0583,-4.0598,-4.0146,-3.9202,-3.8452,-3.7965,-3.7757,-3.7913,-3.8895,-4.0569,-4.07,-4.0918,-4.1191,-4.1055,-4.1329,-4.1816,-4.1031,-4.1041,-4.1527,-4.095,-4.1162,-4.1923,-4.2931,-4.372,-4.4412,0.0,0.0,0.0,0.0,0.0,0.0,0.0,0.0,0.0,0.0,0.0,0.0,0.0,0.0,0.0,0.0,0.0,0.0,-1.3613,0.0,0.0,-1.4884,-1.5246,-1.5666,-1.6179,-1.642,-1.6696,-1.6954,-1.8532,-2.0245,0.0,0.0,-2.2014,-2.2794,-2.2798,-2.2771,-2.2674,-2.1801,-2.1382,-2.1257,-2.0346,-1.9904,-1.9755,-1.9379,-1.9228,-1.9168,-1.8859,-1.8984,-1.9273,-1.9143,-1.9196,0.0,0.0,0.0,-1.9206,-1.9156,-1.8857,-1.8642,0.0,0.0,0.0,0.0,0.0,0.0,0.0,0.0,0.0,0.0,0.0,0.0,0.0,0.0,0.0,-3.3545,-3.3583,-3.3583,-3.3583,-3.3583,-3.3853,-3.4629,-3.4706,-3.5328,-3.6939,-3.6456,-3.6701,-3.8312,-3.7945,-3.8228,-3.9536,-3.9758,-3.9822,-3.9762,-3.982,-3.9091,-3.7533,-3.7286,-3.6752,-3.5959,-3.6778,-3.7714,-3.8756,-3.8883,-3.9766,-4.1191,-4.1055,-4.0998,-4.0964,-4.0779,-4.07,-4.0746,-4.1373,-4.17,-4.1981,-4.3566,-4.4201,-4.4412,0.0,0.0,0.0,0.0,0.0,0.0,0.0,0.0,0.0,0.0,0.0,0.0,0.0,0.0,0.0,-1.2984,-1.3119,-1.3252,-1.3419,-1.3515,-1.3732,-1.4143,-1.4698,-1.5174,-1.5515,-1.6068,-1.6707,-1.742,-1.8363,0.0,0.0,-2.2712,-2.3837,0.0,0.0,-2.4324,-2.4265,-2.2903,-2.2291,-2.2138,-2.1139,-2.0636,-2.0458,-2.0296,-1.9903,-1.9549,-2.0333,-2.0162,-1.9609,-1.9873,-1.9698,-1.9357,-1.9295,0.0,0.0,0.0,0.0,0.0,0.0,0.0,0.0,0.0,0.0,0.0,0.0,0.0,0.0,0.0,0.0,0.0,0.0,0.0,0.0,0.0,0.0,-3.2891,-3.2891,-3.2891,-3.3045,-3.343,-3.3898,-3.4526,-3.5354,-3.5567,-3.6016,-3.6932,-3.7149,-3.7513,-3.8177,-3.9143,-3.9694,-3.9664,-3.9672,-3.9101,-3.7876,-3.7366,-3.6842,-3.6322,-3.6745,-3.7424,-3.8287,-3.839,-3.9133,-4.0357,-4.0267,-4.0416,-4.0747,-4.063,-4.0552,-4.0593,-4.147,-4.2104,-4.2681,-4.3855,-4.4605,-4.5075,0.0,0.0,0.0,0.0,0.0,0.0,0.0,0.0,0.0,0.0,0.0,0.0,0.0,0.0,0.0,0.0,-1.2922,-1.3106,-1.3408,-1.3619,-1.3773,-1.387,-1.4537,-1.4959,-1.508,-1.5976,-1.6894,-1.7842,0.0,0.0,-2.2726,-2.3832,-2.562,0.0,-2.668,-2.5924,0.0,0.0,0.0,0.0,-2.1761,-2.1165,-2.0991,0.0,0.0,-1.9627,-2.1,0.0,0.0,0.0,0.0,0.0,-1.9327,-1.917,0.0,0.0,0.0,0.0,0.0,0.0,0.0,0.0,0.0,0.0,0.0,0.0,0.0,0.0,0.0,0.0,0.0,0.0,0.0,0.0,0.0,0.0,0.0,-3.1621,-3.1621,-3.1621,-3.2583,-3.3249,-3.3309,-3.4318,-3.5219,-3.5838,-3.629,-3.6801,-3.7398,-3.8701,-3.9307,-3.9041,-3.9288,-3.8903,-3.7793,-3.7178,-3.666,-3.6244,-3.6275,-3.6605,-3.7214,-3.7308,-3.8053,-3.9301,-3.9466,-4.0,-4.0686,-4.0552,-4.0631,-4.0912,-4.1797,-4.2643,-4.3508,-4.4335,-4.5037,-4.5603,0.0,0.0,0.0,0.0,0.0,0.0,0.0,0.0,0.0,0.0,0.0,0.0,-1.2822,-1.2581,-1.2503,-1.2684,-1.2665,-1.2948,-1.3711,-1.4485,-1.4913,-1.4923,-1.5272,0.0,-1.5562,-1.6734,-1.7453,0.0,0.0,0.0,-2.3557,-2.4778,-2.6316,-2.8081,-2.7993,-2.7071,-2.5596,0.0,0.0,0.0,0.0,0.0,0.0,0.0,0.0,0.0,0.0,0.0,0.0,0.0,0.0,0.0,0.0,-1.9158,-1.9027,0.0,0.0,0.0,0.0,0.0,0.0,0.0,0.0,0.0,0.0,0.0,0.0,0.0,0.0,0.0,0.0,0.0,0.0,0.0,0.0,0.0,0.0,0.0,-2.8165,-2.8165,-2.9602,-3.0602,-3.0608,-3.2202,-3.3945,-3.5684,-3.5145,-3.5791,-3.82,-3.8548,-3.8217,-3.7264,-3.8157,-3.7832,-3.6133,-3.6018,-3.5452,-3.4434,-3.4552,-3.4587,-3.4517,-3.4637,-3.5966,-3.8236,-3.9055,-3.9901,-4.0686,-4.0552,-4.0989,-4.1808,-4.2701,-4.3528,-4.4335,-4.521,-4.5556,-4.562,0.0,0.0,0.0,0.0,0.0,0.0,0.0,0.0,0.0,0.0,0.0,0.0,0.0,-1.411,-1.4015,-1.4041,-1.4062,-1.4223,-1.4562,-1.4881,-1.5033,-1.5006,-1.5739,-1.6183,-1.6292,-1.7356,-1.8091,0.0,0.0,-2.079,-2.2865,-2.4013,-2.5254,-2.6517,-2.7082,-2.6998,-2.6403,-2.5835,0.0,0.0,0.0,0.0,0.0,0.0,0.0,0.0,0.0,0.0,0.0,0.0,0.0,0.0,-2.0469,-2.004,-1.9721,-1.9146,0.0,0.0,0.0,0.0,0.0,0.0,0.0,0.0,0.0,0.0,0.0,0.0,0.0,0.0,0.0,0.0,0.0,0.0,0.0,0.0,0.0,0.0,0.0,-2.7895,-2.939,-3.0404,-3.0404,-3.1964,-3.3538,-3.487,-3.4692,-3.5225,-3.677,-3.7441,-3.7597,-3.724,-3.7577,-3.6934,-3.5176,-3.5101,-3.4847,-3.442,-3.4387,-3.4613,-3.5078,-3.5118,-3.6194,-3.8047,-3.8363,-3.9288,-4.0574,-4.0527,-4.0689,-4.1046,-4.1931,-4.2777,-4.3566,-4.3874,-4.469,-4.5466,0.0,0.0,0.0,0.0,0.0,0.0,0.0,0.0,0.0,0.0,0.0,0.0,0.0,0.0,-1.4935,-1.4847,-1.5084,-1.5252,-1.5263,-1.5507,-1.5637,-1.5674,-1.6357,-1.6814,-1.6996,-1.7742,-1.8297,0.0,0.0,0.0,0.0,-2.3165,-2.4307,-2.5638,-2.6201,-2.6491,0.0,0.0,0.0,-2.5465,0.0,0.0,-2.3239,0.0,0.0,0.0,0.0,0.0,0.0,0.0,0.0,0.0,0.0,-2.0704,-2.0617,-1.9939,0.0,0.0,0.0,0.0,0.0,0.0,0.0,0.0,0.0,0.0,0.0,0.0,0.0,0.0,0.0,0.0,0.0,0.0,0.0,0.0,0.0,0.0,0.0,0.0,-2.8269,-2.9231,-2.9519,-3.0814,-3.2182,-3.3521,-3.3631,0.0,-3.5078,-3.623,-3.6855,-3.6855,-3.6582,-3.5879,-3.4707,-3.466,-3.4585,-3.4494,-3.4404,-3.4756,-3.55,-3.55,-3.6558,-3.843,-3.843,-3.9219,-4.0496,-4.0496,-4.0669,-4.0989,-4.1566,-4.2508,-4.347,-4.3201,-4.397,-4.4974,0.0,0.0,0.0,0.0,0.0,0.0,0.0,0.0,0.0,-1.5374,0.0,0.0,0.0,0.0,0.0,-1.501,-1.5628,-1.5967,-1.5843,-1.6409,-1.6821,-1.6985,-1.7138,-1.7337,-1.7589,-1.7871,-1.8107,-1.83,-1.885,-2.0074,0.0,0.0,-2.3682,-2.5581,-2.5585,-2.5622,-2.5755,0.0,-2.6429,-2.5548,0.0,-2.3572,-2.488,0.0,0.0,0.0,-2.3948,-2.3599,0.0,-2.1581,0.0,0.0,0.0,-2.1126,-2.1589,-2.1441,0.0,0.0,0.0,0.0,0.0,0.0,0.0,0.0,0.0,0.0,0.0,0.0,0.0,0.0,0.0,0.0,0.0,0.0,0.0,0.0,0.0,0.0,0.0,0.0,-2.6077,-2.6928,-2.778,-2.8588,-2.9849,-3.1728,-3.1857,-3.2305,-3.3339,-3.5,-3.5918,-3.5918,-3.5098,-3.4668,-3.4668,-3.4668,-3.4615,-3.4507,-3.4507,-3.4859,-3.55,-3.5526,-3.6899,-3.9273,-3.9299,-3.9761,-4.0504,-4.0496,-4.0989,-4.175,-4.175,-4.2777,-4.4124,-4.3316,-4.3547,-4.4171,0.0,0.0,0.0,0.0,0.0,0.0,-1.7174,-1.6978,-1.701,0.0,0.0,0.0,-1.8028,-1.8289,-1.8137,-1.7419,-1.8023,-1.7951,-1.6815,-1.7397,-1.7549,-1.703,-1.7309,-1.7514,-1.7601,-1.7955,-1.817,-1.8229,-1.9353,-2.0483,-2.1652,-2.2849,-2.4047,0.0,-2.543,-2.556,-2.5646,-2.5878,0.0,-2.6332,-2.4469,-2.4216,0.0,0.0,0.0,0.0,0.0,-2.4266,-2.4426,0.0,-2.3478,-2.4964,0.0,0.0,0.0,0.0,0.0,0.0,-2.3153,0.0,0.0,0.0,0.0,0.0,0.0,0.0,0.0,0.0,0.0,0.0,0.0,0.0,0.0,0.0,0.0,0.0,0.0,0.0,0.0,0.0,0.0,-2.6697,-2.6948,-2.7736,-2.896,0.0,-3.0898,-3.1598,-3.3246,-3.3826,-3.4121,-3.4121,-3.3887,-3.3769,-3.3769,-3.3769,-3.4007,-3.4494,-3.4494,-3.4845,-3.5526,-3.6207,-3.7245,-3.8547,-3.9218,-3.9954,-4.0643,-4.0537,-4.065,-4.0854,-4.0854,-4.1527,-4.2393,-4.1527,-4.2162,-4.3242,0.0,0.0,0.0,0.0,0.0,-1.6754,-1.7646,-1.7625,-1.7832,0.0,0.0,0.0,-1.9687,-1.9933,-1.9757,-1.9074,-1.9339,-1.9101,-1.8088,-1.8383,-1.8419,-1.8016,-1.8277,-1.8472,-1.8552,-1.8812,-1.8973,-1.904,-1.9934,-2.0901,-2.1935,-2.2944,-2.4005,0.0,0.0,0.0,0.0,0.0,0.0,0.0,-2.4707,0.0,0.0,-2.4774,-2.4434,0.0,0.0,0.0,-2.5373,-2.3263,-2.4195,0.0,0.0,0.0,0.0,0.0,0.0,0.0,0.0,0.0,0.0,0.0,0.0,0.0,-2.211,-2.1163,0.0,0.0,0.0,0.0,0.0,0.0,0.0,0.0,0.0,0.0,0.0,0.0,0.0,0.0,0.0,-2.6192,-2.6563,-2.7063,-2.7938,-2.9349,-2.9764,-3.0785,-3.2666,-3.2783,-3.285,-3.2891,-3.2891,-3.2891,-3.2891,-3.3223,-3.3773,-3.451,-3.4844,-3.5349,-3.6026,-3.7007,-3.7892,-3.875,-3.9695,-4.0341,-4.0722,-4.063,-4.0359,-3.9996,-3.9996,-4.0508,-4.1162,-4.0304,-4.1085,-4.2379,0.0,0.0,-1.5454,-1.5827,-1.6619,-1.7186,-1.7142,-1.7794,-1.8451,0.0,-1.9692,-2.0405,-2.0788,-2.0796,-2.0629,-2.0221,-2.0084,-1.9841,-1.9386,-1.9365,-1.9379,-1.9383,-1.9547,-1.9717,-1.9891,-1.9997,-2.0127,-2.0245,-2.0622,-2.1359,-2.249,-2.2932,-2.3825,-2.5052,0.0,0.0,0.0,0.0,0.0,-2.6485,-2.4656,-2.5367,0.0,0.0,-2.6034,-2.7296,-2.5821,-2.5784,-2.6076,-2.3799,-2.3657,0.0,0.0,0.0,0.0,0.0,-2.4431,0.0,0.0,0.0,0.0,0.0,0.0,0.0,-2.2624,-2.1953,-2.0907,0.0,0.0,0.0,0.0,0.0,0.0,0.0,0.0,0.0,0.0,0.0,0.0,0.0,0.0,0.0,-2.639,-2.6467,-2.6848,-2.7771,-2.8601,-2.9839,-3.1624,-3.1709,-3.1824,-3.2051,-3.2051,-3.2109,-3.2207,-3.291,-3.3696,-3.4523,-3.524,-3.5867,-3.6465,-3.7555,-3.8396,-3.9041,-4.0088,-4.0575,-4.0657,-4.0601,-4.0069,-3.9314,-3.9292,-3.9688,-4.015,-3.9534,-4.0181,-4.1301,0.0,0.0,-1.638,-1.7022,-1.7524,-1.8023,-1.8572,-1.8768,-1.9089,-1.9758,-2.0978,-2.1757,-2.1749,-2.2205,-2.2186,-2.1364,-2.1743,-2.1375,-1.9804,-2.0199,-2.011,-1.9274,-1.9631,-1.9826,-1.9831,-2.0189,-2.0453,-2.0518,-2.1476,-2.2121,-2.244,-2.3548,-2.4313,-2.478,0.0,0.0,0.0,0.0,0.0,-2.627,-2.6023,0.0,-2.6472,-2.6243,-2.5918,-2.551,-2.5364,-2.5831,-2.6477,-2.5857,-2.4447,-2.3171,0.0,0.0,0.0,0.0,0.0,0.0,0.0,0.0,0.0,0.0,0.0,0.0,-2.3095,-2.2487,-2.1819,0.0,0.0,0.0,0.0,0.0,0.0,0.0,0.0,0.0,0.0,0.0,0.0,0.0,0.0,0.0,-2.5538,-2.5558,-2.5919,-2.6815,-2.7727,-2.8724,-2.9852,-2.9961,-3.0341,-3.1133,-3.1152,-3.1484,-3.2187,-3.2363,-3.3158,-3.4577,-3.4678,-3.4742,-3.4814,-3.6424,-3.6851,-3.644,-3.8124,-3.9235,-3.9836,-3.982,-3.9641,-3.9379,-3.9324,-3.8969,-3.8546,-3.9111,-3.9065,-3.8823,0.0,0.0,-1.695,-1.7374,-1.8008,-1.871,-1.9443,-1.9552,-1.9956,-2.1038,-2.2099,-2.2745,0.0,0.0,0.0,0.0,-2.2877,-2.2613,-2.11,-2.1622,-2.1621,-2.073,-2.0855,-2.1036,-2.1232,-2.1447,-2.1603,-2.1697,-2.2394,-2.2832,-2.3031,-2.3858,-2.4158,-2.4028,0.0,0.0,0.0,0.0,-2.6388,-2.7386,-2.6075,0.0,-2.6165,-2.5799,-2.5442,-2.5163,-2.5264,-2.5577,-2.5937,-2.5866,-2.5507,0.0,0.0,-2.5161,-2.5416,0.0,-2.5073,-2.4634,0.0,0.0,0.0,-2.4025,0.0,0.0,0.0,-2.3122,-2.2433,-2.2412,0.0,0.0,0.0,0.0,0.0,0.0,0.0,0.0,0.0,0.0,0.0,0.0,0.0,0.0,-2.4697,-2.5058,-2.5654,-2.6524,-2.7036,-2.7729,-2.8693,-2.9206,-2.9701,-3.0234,-3.0254,-3.0664,-3.1543,-3.1543,-3.2359,-3.3966,-3.4369,-3.4471,-3.4357,-3.5711,-3.5851,-3.5117,-3.6999,-3.8024,-3.8424,-3.8799,-3.8649,-3.8239,-3.8524,-3.8123,-3.7411,-3.7834,-3.8007,-3.8065,-1.5762,0.0,0.0,-1.7503,-1.8244,-1.9075,-1.9825,-2.0006,-2.0606,0.0,0.0,0.0,0.0,0.0,0.0,0.0,0.0,0.0,0.0,0.0,-2.289,-2.2431,-2.2237,-2.2298,-2.2632,-2.2672,-2.2751,-2.2881,-2.3158,-2.3403,-2.3671,-2.4029,-2.3968,0.0,0.0,0.0,0.0,0.0,0.0,-2.8159,0.0,-2.5559,-2.6626,-2.5873,-2.5571,-2.5504,-2.536,-2.5308,-2.5308,-2.5308,-2.6159,-2.6923,-2.5069,-2.5885,0.0,0.0,0.0,0.0,0.0,0.0,0.0,0.0,0.0,-2.4106,0.0,0.0,0.0,0.0,0.0,0.0,0.0,0.0,0.0,0.0,0.0,0.0,0.0,0.0,0.0,0.0,0.0,-2.4172,-2.4335,-2.4937,-2.5601,-2.6294,-2.6376,-2.6818,-2.7796,-2.854,-2.904,-2.9336,-2.9355,-2.9687,-3.0391,-3.0566,-3.1383,-3.2846,-3.3697,-3.401,-3.3871,-3.4824,-3.4769,-3.3979,-3.5666,-3.6592,-3.6937,-3.7527,-3.7452,-3.7051,-3.7733,-3.7469,-3.6731,-3.7084,-3.743,-3.7777,-1.704,-1.7474,0.0,0.0,-1.8306,-1.88,-1.9616,-1.9838,-2.0525,0.0,0.0,0.0,0.0,0.0,0.0,0.0,0.0,0.0,-2.5457,0.0,0.0,-2.3163,-2.2825,-2.2561,-2.244,-2.2773,-2.3033,-2.3139,-2.3416,-2.366,-2.3876,-2.4106,-2.4282,0.0,-2.4445,0.0,0.0,0.0,-2.6244,0.0,-2.5848,-2.6699,0.0,-2.8448,-2.7574,-2.6272,-2.5557,-2.5308,-2.5308,0.0,-2.5413,-2.5782,0.0,-2.5825,-2.4632,0.0,0.0,0.0,0.0,0.0,0.0,0.0,-2.591,0.0,0.0,0.0,-2.4451,-2.3448,0.0,0.0,0.0,0.0,0.0,0.0,0.0,0.0,0.0,0.0,0.0,0.0,-2.4088,-2.4393,-2.5185,-2.5345,-2.5418,-2.5442,-2.5564,-2.6004,-2.6897,-2.71,-2.7564,-2.8418,-2.8457,-2.8496,-2.8594,-2.9355,-3.0234,-3.1171,-3.1932,-3.2259,-3.2192,-3.2973,-3.2845,-3.2054,-3.3117,-3.4402,-3.5794,-3.5859,-3.6299,-3.6973,-3.7706,-3.7469,-3.6885,-3.843,-3.8084,-3.6962,-1.7218,-1.7492,0.0,0.0,-1.8553,-1.93,-2.0149,-2.1627,-2.2707,0.0,0.0,0.0,0.0,0.0,0.0,0.0,0.0,-2.5153,0.0,0.0,0.0,0.0,-2.3564,0.0,-2.3497,-2.3166,-2.307,-2.3205,-2.3547,-2.3785,-2.3907,-2.4266,-2.4158,0.0,-2.4087,0.0,-2.5639,0.0,-2.7277,0.0,0.0,0.0,0.0,-2.7381,-2.6225,-2.5753,-2.5413,-2.5308,-2.5308,0.0,-2.5962,0.0,0.0,0.0,0.0,0.0,0.0,0.0,0.0,0.0,0.0,0.0,0.0,0.0,-2.5963,0.0,-2.482,0.0,0.0,0.0,0.0,0.0,0.0,0.0,-2.411,0.0,0.0,0.0,0.0,0.0,0.0,0.0,-2.5206,-2.4918,-2.4827,-2.5269,-2.4911,-2.5099,-2.5997,-2.6552,-2.7063,-2.7539,-2.7559,-2.7793,-2.8301,-2.8164,-2.9043,-3.0898,-3.1208,-3.1563,-3.1974,-3.2247,-3.1851,-3.1042,-3.1966,-3.2748,-3.3465,-3.4434,-3.5364,-3.6264,-3.75,-3.75,-3.6978,-3.8215,-3.7886,-3.6862,0.0,0.0,0.0,0.0,-1.8852,-1.9737,-2.0904,-2.3071,-2.4467,-2.4183,0.0,0.0,-2.6716,-2.6847,0.0,0.0,-2.6658,-2.6315,0.0,0.0,-2.474,0.0,0.0,0.0,0.0,-2.3653,-2.3448,-2.3583,-2.3688,-2.3806,-2.3927,-2.4275,-2.4162,-2.3676,0.0,-2.4764,-2.5375,0.0,0.0,-2.9326,-2.8547,-2.8526,-2.8662,-2.6144,-2.5239,-2.5331,-2.5317,-2.5308,-2.5351,-2.5587,-2.6505,0.0,-2.6096,0.0,0.0,0.0,0.0,0.0,-2.8256,0.0,0.0,0.0,0.0,0.0,0.0,0.0,0.0,0.0,0.0,0.0,0.0,0.0,0.0,0.0,0.0,-2.3202,0.0,0.0,0.0,0.0,0.0,0.0,0.0,-2.4039,-2.4015,-2.4855,-2.4394,-2.4494,-2.5447,-2.6115,-2.6515,-2.66,-2.6621,-2.6933,-2.7557,-2.7187,-2.7949,-2.9844,-3.0312,-3.0817,-3.1319,-3.1461,-3.1167,-3.0537,-3.1153,-3.155,-3.1879,-3.3314,-3.4519,-3.5585,-3.7074,-3.745,-3.7287,-3.8468,-3.8359,-3.7599,-1.8062,-1.7644,0.0,0.0,0.0,-1.9854,-2.1772,-2.3448,-2.4871,0.0,0.0,0.0,0.0,0.0,0.0,0.0,0.0,-2.6726,-2.7929,0.0,-2.4921,0.0,0.0,-2.4877,0.0,0.0,0.0,-2.4562,-2.3923,-2.3735,-2.3996,-2.4016,-2.4488,-2.5312,-2.5155,-2.6112,-2.782,-2.6816,-2.6272,-2.5978,-2.5314,-2.4827,-2.4628,0.0,-2.5847,-2.5379,-2.5312,0.0,0.0,-2.6294,-2.6601,0.0,0.0,0.0,0.0,0.0,0.0,0.0,0.0,0.0,0.0,-2.9942,0.0,0.0,0.0,0.0,-2.5228,0.0,0.0,0.0,0.0,0.0,0.0,0.0,0.0,0.0,0.0,0.0,0.0,0.0,0.0,0.0,0.0,-2.2637,-2.2945,-2.3877,-2.3975,-2.4439,-2.5447,-2.56,-2.5641,-2.5644,-2.57,-2.572,-2.5681,-2.656,-2.7031,-2.7148,-2.8848,-2.9625,-2.9599,-3.0324,-3.0597,-3.0494,-3.0458,-3.0916,-3.1762,-3.2589,-3.3755,-3.5124,-3.6285,-3.7167,-3.7995,-3.9923,-4.015,-3.9389,0.0,0.0,0.0,0.0,0.0,-2.1408,-2.3272,-2.5037,-2.6496,0.0,0.0,0.0,0.0,-3.0813,-3.0543,0.0,0.0,-2.8792,-2.8197,-2.72,0.0,0.0,0.0,-2.6258,0.0,0.0,0.0,0.0,0.0,-2.4415,-2.4588,-2.4685,-2.4863,-2.5143,0.0,-2.5753,0.0,0.0,0.0,0.0,0.0,-2.5946,-2.5782,0.0,-2.5303,-2.5326,-2.5303,-2.5313,0.0,-2.5649,-2.6039,-2.6337,-2.5983,-2.7221,-2.8628,-2.7785,-2.8679,-2.9908,0.0,0.0,-2.8784,-3.0603,0.0,0.0,0.0,0.0,0.0,0.0,0.0,0.0,0.0,0.0,0.0,0.0,0.0,0.0,0.0,0.0,0.0,0.0,0.0,0.0,0.0,0.0,0.0,-2.4448,-2.4134,-2.4298,-2.5253,-2.5407,-2.5504,-2.5603,-2.6131,-2.6443,-2.6462,-2.678,-2.7533,-2.8711,-2.873,-2.9335,-3.0426,-3.0559,-3.0591,-3.0554,-3.0451,-3.0885,-3.1756,-3.2564,-3.3864,-3.5419,-3.6337,-3.7257,-3.8222,-3.9495,-3.9473,-3.8672,-2.0213,0.0,0.0,0.0,0.0,0.0,-2.4217,0.0,0.0,0.0,-2.9787,0.0,-3.3156,0.0,-3.2144,0.0,-3.1077,-2.9927,-2.8905,-2.8009,0.0,-2.6208,-2.6901,0.0,0.0,0.0,0.0,0.0,0.0,-2.5446,-2.5295,-2.5323,-2.5485,0.0,0.0,-2.5943,-2.5513,0.0,-2.5837,0.0,0.0,-2.5418,0.0,0.0,-2.5266,-2.6106,0.0,-2.5317,-2.5326,-2.5234,-2.5482,-2.5768,-2.5363,-2.6817,-2.8465,-2.7597,-2.8715,-3.0262,-3.0284,-2.9338,0.0,-3.1085,-2.9552,0.0,-2.9502,0.0,0.0,0.0,0.0,0.0,0.0,0.0,0.0,0.0,0.0,0.0,0.0,-2.0563,0.0,0.0,0.0,0.0,0.0,0.0,-2.2609,-2.4235,-2.4005,-2.4215,0.0,-2.5357,-2.5482,-2.5566,-2.6398,-2.6836,-2.6821,-2.6871,-2.7637,-2.9098,-2.8535,-2.9019,-3.0405,-3.0516,-3.0558,-3.0551,-3.0451,-3.0712,-3.1288,-3.2141,-3.3422,-3.4913,-3.5549,-3.6524,-3.7729,-3.9099,-3.927,-3.8734,0.0,0.0,0.0,0.0,-2.3466,0.0,0.0,0.0,-2.9857,0.0,-3.2023,-3.3722,-3.4768,-3.3418,-3.2839,-3.3929,-3.1712,-3.0131,-2.9906,-2.8844,0.0,0.0,-2.6229,-2.6038,-2.4635,0.0,0.0,0.0,0.0,0.0,-2.6051,0.0,0.0,0.0,-2.7076,0.0,-2.6205,-2.6205,-2.5224,-2.3671,-2.3369,-2.3419,-2.3687,-2.4135,-2.5747,-2.756,-2.5909,-2.5348,-2.5352,-2.5089,-2.5004,-2.5063,-2.5529,-2.6237,-2.7008,-2.7603,-2.8524,-2.9602,-3.0649,-3.0441,-3.0214,-3.1405,-3.0352,0.0,0.0,0.0,-2.764,0.0,0.0,0.0,0.0,0.0,0.0,0.0,0.0,0.0,0.0,0.0,0.0,0.0,0.0,0.0,0.0,-2.1155,-2.1843,-2.3349,-2.3701,-2.4243,0.0,-2.5377,-2.5515,-2.5561,-2.6412,-2.6851,-2.6773,-2.6889,-2.7408,-2.8253,-2.8278,-2.8723,-2.9578,-3.0228,-3.0507,-3.0494,-3.0433,-3.0423,-3.0538,-3.1371,-3.2476,-3.3688,-3.4002,-3.5045,-3.6599,-3.8703,-3.9505,-3.9547,-2.2,-2.2791,-2.3437,0.0,-2.4775,-2.6081,0.0,0.0,0.0,0.0,-3.342,-3.4035,-3.5997,-3.4972,-3.381,-3.2972,-3.2511,0.0,0.0,0.0,0.0,-2.4738,-2.6982,-2.7169,-2.4742,-2.6798,0.0,-2.6889,0.0,0.0,-2.6744,0.0,0.0,0.0,0.0,0.0,-2.6205,-2.6205,-2.5224,-2.3714,-2.3886,-2.46,-2.5499,0.0,-2.5717,-2.7317,-2.5822,-2.5308,-2.5298,-2.5069,-2.4924,-2.4891,-2.5162,-2.5902,-2.6783,-2.7215,-2.8175,-2.924,-2.9861,-2.9446,-2.9281,-3.1226,-2.9948,-2.8525,0.0,0.0,0.0,0.0,0.0,0.0,0.0,0.0,0.0,0.0,0.0,0.0,0.0,0.0,0.0,-2.1877,0.0,0.0,0.0,-2.2534,-2.3218,-2.4214,-2.4443,-2.4656,-2.4878,0.0,-2.5761,-2.6365,-2.6621,-2.7057,-2.7656,-2.7743,-2.824,-2.9177,-2.9218,-2.9641,-3.0401,-3.0522,-3.0556,-3.0494,-3.0433,-3.0769,-3.1385,-3.1621,-3.2263,-3.31,-3.3199,-3.4287,-3.5958,-3.7207,-3.8084,-3.8638,-2.3491,0.0,0.0,-2.5265,0.0,0.0,-2.8739,-3.0502,0.0,-3.4146,-3.4416,0.0,-3.5356,-3.4949,-3.413,-3.29,-3.2172,0.0,-2.9455,0.0,0.0,-2.5577,-2.6714,-2.649,-2.4516,-2.6417,0.0,-2.6808,0.0,0.0,-2.7567,0.0,0.0,0.0,0.0,-2.7676,0.0,-2.6129,-2.5316,-2.4366,-2.4085,-2.4455,0.0,-2.4505,-2.5117,-2.6169,-2.5434,-2.5219,-2.5259,-2.4993,-2.4988,-2.5111,-2.5393,-2.6016,-2.6802,-2.7518,-2.8202,-2.8879,-2.9523,-2.9338,-2.9228,-3.0292,-2.9492,-2.8588,-2.9179,-2.8582,-2.764,0.0,-2.7294,-2.7478,0.0,0.0,0.0,0.0,0.0,0.0,0.0,0.0,0.0,0.0,-2.2777,0.0,-2.3069,-2.3345,-2.3853,-2.4628,-2.493,-2.5058,-2.5014,0.0,-2.5742,-2.617,-2.7313,-2.7777,-2.7424,-2.8641,-2.9326,-2.9508,-2.9531,-2.9943,-3.0642,-3.0591,-3.0513,-3.0447,-3.0425,-3.0673,-3.1154,-3.1545,-3.2179,-3.2987,-3.3737,-3.4909,-3.6226,-3.6701,-3.7676,-3.8839,0.0,0.0,0.0,0.0,0.0,0.0,0.0,-3.2419,0.0,-3.4266,0.0,-3.5493,-3.411,-3.4186,-3.3891,-3.2834,0.0,-3.0333,-3.0668,-2.8595,-2.7228,-2.6903,-2.5985,-2.5129,-2.4305,-2.5673,0.0,0.0,0.0,0.0,0.0,0.0,0.0,0.0,0.0,0.0,0.0,-2.6033,-2.539,-2.5112,-2.4153,-2.3774,-2.3777,-2.3966,-2.4334,-2.479,-2.4917,-2.5088,-2.5203,-2.4896,-2.5057,-2.5429,-2.5819,-2.6292,-2.692,-2.8017,-2.8368,-2.8585,-2.9429,-2.9603,-2.9447,-2.913,-2.8917,-2.8588,-2.7895,-2.764,-2.7332,-2.6582,-2.7024,-2.7089,0.0,0.0,0.0,0.0,0.0,0.0,0.0,0.0,0.0,0.0,0.0,0.0,0.0,-2.3898,-2.4145,-2.479,-2.5173,-2.5344,0.0,0.0,-2.5622,-2.5665,-2.7819,-2.8427,-2.7245,-2.9325,-3.0187,-2.9836,-2.9724,-3.0012,-3.0603,-3.0545,-3.0463,-3.0404,-3.0404,-3.0404,-3.0462,-3.1212,-3.2064,-3.3064,-3.4827,-3.6061,-3.6897,-3.7005,-3.8041,-3.9499,0.0,0.0,0.0,0.0,0.0,-3.5016,-3.483,-3.5036,-3.5605,-3.6769,-3.6716,-3.6105,-3.4926,-3.4266,-3.2908,-3.046,-3.0225,0.0,0.0,0.0,0.0,-2.6288,-2.5756,-2.5255,-2.4703,-2.583,-2.6659,0.0,0.0,0.0,-2.9281,0.0,0.0,0.0,0.0,0.0,-2.6617,-2.5819,0.0,-2.4612,-2.4246,-2.4103,-2.4113,-2.4162,-2.4321,-2.4575,-2.4763,-2.493,-2.5036,-2.4855,-2.4957,-2.5197,-2.5492,-2.6114,-2.6865,-2.7737,-2.8183,-2.8554,-2.9254,-2.9054,-2.8661,-2.8798,-2.7947,-2.7005,-2.6851,-2.6269,-2.5712,-2.5558,-2.5654,-2.588,-2.6243,0.0,0.0,0.0,0.0,0.0,0.0,0.0,0.0,0.0,0.0,-2.4625,0.0,0.0,-2.4839,-2.4948,-2.5178,0.0,0.0,0.0,-2.5925,0.0,-2.6361,0.0,0.0,0.0,-2.9646,-3.164,-3.0976,-3.0644,-3.0603,-3.0591,-3.052,-3.0404,-3.0404,-3.0404,-3.0404,-3.0558,-3.1519,-3.3064,-3.4827,-3.6001,-3.6914,-3.833,-3.9056,-3.9336,0.0,0.0,0.0,0.0,0.0,0.0,0.0,-3.7291,-3.7883,-3.815,-3.7072,-3.5802,-3.4518,-3.4027,-3.283,-3.0419,-2.9851,-2.9127,-2.796,-2.7469,-2.6875,-2.6124,-2.61,0.0,-2.5427,-2.6129,-2.728,-2.8858,0.0,0.0,-3.041,0.0,0.0,0.0,0.0,-2.8177,0.0,0.0,0.0,-2.5893,-2.5125,-2.4566,-2.419,-2.419,-2.4312,-2.452,-2.4607,-2.4689,-2.4801,-2.5273,-2.569,-2.6044,-2.61,-2.6376,-2.6866,-2.7659,-2.8006,-2.8221,-2.8632,-2.8493,-2.8122,-2.7637,-2.6969,-2.6356,-2.6004,-2.5596,-2.5308,-2.5308,-2.5308,-2.5577,-2.6447,-2.6443,0.0,0.0,0.0,0.0,0.0,0.0,0.0,0.0,0.0,0.0,0.0,0.0,0.0,0.0,0.0,0.0,0.0,0.0,-2.5829,0.0,0.0,0.0,-2.8716,0.0,-3.0445,-3.0797,-3.0799,-3.0731,-3.0603,-3.0558,-3.0485,-3.0404,-3.0404,-3.0404,-3.0462,-3.1346,-3.2949,-3.4949,-3.5788,-3.6911,-3.8142,-3.8996,-3.9554,-3.9919,0.0,-3.2004,0.0,0.0,-3.5907,0.0,-3.7844,-3.9174,-3.9735,-3.8597,-3.7016,-3.5422,-3.3959,-3.3495,-3.2642,-3.1075,-2.9783,-2.8981,-2.8801,-2.7775,-2.7046,-2.6739,-2.7017,-2.7023,-2.6654,-2.7128,-2.829,0.0,0.0,0.0,0.0,0.0,0.0,0.0,0.0,0.0,0.0,0.0,-2.7084,-2.7121,-2.6126,-2.5213,-2.4456,-2.4456,-2.445,-2.4435,-2.4486,-2.4581,-2.4814,-2.5651,-2.6267,-2.669,-2.6504,-2.6618,-2.6955,-2.7592,-2.784,-2.7946,-2.8125,-2.8012,-2.7633,-2.6716,-2.6269,-2.5906,-2.5412,-2.5308,-2.5308,-2.5308,-2.5308,-2.5577,-2.6447,-2.6337,0.0,0.0,0.0,0.0,0.0,0.0,0.0,0.0,0.0,0.0,-2.4823,0.0,0.0,0.0,0.0,0.0,-2.5512,0.0,0.0,0.0,0.0,-2.8533,-2.8034,0.0,-3.1055,-3.041,-3.0613,-3.065,-3.06,-3.0529,-3.0467,-3.0404,-3.0404,-3.0519,-3.0808,-3.2487,-3.4564,-3.6731,-3.7123,-3.82,-3.9554,-3.9554,-3.9958,-4.0496,0.0,0.0,0.0,0.0,0.0,-4.0673,-3.9784,-4.0398,-4.0194,-3.7915,-3.682,-3.5628,-3.3972,-3.2485,-3.1549,-3.1365,-2.9924,-2.9301,-2.9995,-2.9248,-2.8774,-2.8742,-2.8762,-2.8768,-2.8726,-2.9473,-2.9911,0.0,0.0,-3.0802,0.0,0.0,0.0,0.0,0.0,0.0,0.0,-2.808,-2.7625,-2.6926,-2.6814,-2.6171,-2.5283,-2.5283,-2.4852,-2.4256,-2.4426,-2.4847,-2.5362,-2.5634,-2.5899,-2.6027,-2.5724,-2.6359,-2.7272,-2.7332,-2.7604,-2.796,-2.8286,-2.7714,-2.7019,-2.7094,-2.6117,-2.5141,-2.5278,-2.5308,-2.5308,-2.5308,-2.5308,-2.5577,-2.6447,-2.5803,-2.533,0.0,0.0,0.0,0.0,0.0,0.0,0.0,0.0,0.0,0.0,-2.4712,0.0,0.0,-2.5421,0.0,0.0,0.0,0.0,-2.6758,-2.6308,-2.7871,-3.1679,-2.9687,-3.0137,-3.3027,-3.1452,-3.065,-3.06,-3.0529,-3.0467,-3.0404,-3.0404,-3.0846,-3.1718,-3.3391,-3.5103,-3.6865,-3.843,-3.9611,-4.04,-4.04,-4.0439,-4.0496,0.0,0.0,0.0,0.0,0.0,0.0,0.0,-3.9283,-3.8904,-3.7241,-3.6614,-3.5844,-3.4637,-3.3532,-3.2651,-3.2155,-3.1505,-3.1245,-3.1563,-3.0385,-2.9765,-3.0004,-2.9831,-2.9843,-3.0141,-3.0662,-3.1421,0.0,0.0,0.0,0.0,0.0,0.0,0.0,0.0,-2.899,-2.9512,-2.8556,-2.8026,-2.7843,-2.768,-2.6795,-2.557,-2.5444,-2.4897,-2.4209,-2.4294,-2.4469,-2.4686,-2.4764,-2.5661,-2.6657,-2.6322,-2.6734,-2.7303,-2.7303,-2.7574,-2.7755,-2.7122,-2.6852,-2.654,-2.5767,-2.5139,-2.4762,-2.5059,-2.5111,-2.5157,-2.5274,-2.5308,-2.5404,-2.5769,-2.5833,-2.5791,-2.5613,0.0,0.0,0.0,0.0,0.0,0.0,0.0,0.0,0.0,-2.476,-2.5098,-2.5772,0.0,0.0,0.0,0.0,0.0,-2.6055,0.0,-2.7558,-2.9778,-2.9288,-2.9951,-3.1767,-3.0955,-3.0565,-3.056,-3.1004,-3.1218,-3.1212,-3.1698,-3.2102,-3.2506,-3.3705,-3.518,-3.6769,-3.7469,-3.8584,-3.9785,-3.9785,-4.0092,-4.0439,-3.7104,0.0,-3.6762,0.0,-3.8129,-3.8205,-3.8375,-3.8398,-3.8033,-3.6969,-3.6463,-3.5985,-3.5435,-3.489,-3.4394,-3.4082,-3.3699,-3.3509,-3.3526,-3.2342,-3.1665,-3.1722,-3.1535,0.0,-3.1931,-3.2041,-3.2585,-3.3592,-3.375,0.0,0.0,0.0,0.0,0.0,-2.9197,-2.9292,-3.0113,-2.8974,-2.8577,-2.8751,-2.8614,-2.7744,-2.6471,-2.6014,-2.5336,-2.4607,-2.432,-2.419,-2.419,-2.419,-2.5458,-2.6947,-2.6616,-2.6958,-2.7454,-2.7332,-2.75,-2.7497,-2.6473,-2.6314,-2.6174,-2.5114,-2.4662,-2.4583,-2.4865,-2.4974,-2.5071,-2.5264,-2.5308,-2.5308,-2.5308,-2.5732,-2.5874,-2.5244,0.0,0.0,0.0,0.0,0.0,0.0,-2.5093,-2.5163,-2.4771,-2.5021,-2.5423,0.0,0.0,0.0,0.0,0.0,0.0,0.0,0.0,0.0,-2.8883,-2.9269,-2.9852,-3.0673,-3.0547,-3.0634,-3.0901,-3.1692,-3.2045,-3.2083,-3.2641,-3.3045,-3.3333,-3.4145,-3.5307,-3.6612,-3.6861,-3.7713,-3.8804,-3.8896,-3.9284,-3.9727,-3.6814,-3.6996,-3.742,-3.8512,-3.8699,-3.8632,-3.8426,-3.8398,-3.8114,-3.7298,-3.6428,-3.5988,-3.6252,-3.6266,-3.6593,-3.7364,-3.6464,-3.5879,-3.5952,-3.55,-3.4911,0.0,0.0,-3.4354,-3.4354,-3.3962,-3.3385,-3.2619,0.0,0.0,-3.1563,0.0,-3.1893,-3.0334,-3.1108,-3.0557,-2.9046,-2.9289,-2.9384,-2.9414,-2.9607,-2.9185,-2.8345,-2.7296,-2.6375,-2.5555,-2.4561,-2.419,-2.419,-2.419,-2.5273,-2.6548,-2.6151,-2.6892,-2.7808,-2.7426,-2.7301,-2.7222,-2.6803,-2.6371,-2.5962,-2.5736,-2.5082,-2.4543,-2.476,-2.4904,-2.5071,-2.5264,-2.5308,-2.5308,-2.5308,-2.5303,-2.5201,-2.4867,0.0,0.0,0.0,0.0,0.0,0.0,-2.5685,-2.5895,-2.4908,-2.552,0.0,0.0,0.0,0.0,0.0,0.0,0.0,-2.8015,-2.7247,0.0,-3.0547,-2.9724,-2.9744,-3.0603,-3.0533,-3.0944,-3.1811,-3.2559,-3.2891,-3.2891,-3.2891,-3.3391,-3.4231,-3.4832,-3.5571,-3.64,-3.7248,-3.76,-3.7646,-3.7921,-3.8027,-3.8142,-3.7343,-3.7313,-3.7214,-3.7536,-3.749,-3.7194,-3.6582,-3.6483,-3.6525,-3.6638,-3.685,-3.7161,-3.7613,-3.7496,-3.7863,0.0,-3.8989,-3.869,0.0,-3.7197,-3.6446,-3.5936,-3.5454,-3.5377,-3.5688,-3.5567,-3.5092,-3.4234,0.0,0.0,0.0,-3.3497,-3.2698,-3.1036,-3.0742,-3.0619,-3.0582,-2.9752,-2.9719,-3.0186,-2.9851,-2.9213,-2.8455,-2.8125,-2.7029,-2.5656,-2.5335,-2.5125,-2.4934,-2.4373,-2.5621,-2.7207,-2.5975,-2.6808,-2.8129,-2.7485,-2.7485,-2.7382,-2.5946,-2.5764,-2.5743,-2.4611,-2.4308,-2.4339,-2.4561,-2.4816,-2.5071,-2.5264,-2.5308,-2.5308,-2.5308,-2.5308,-2.5278,-2.5154,-2.5043,0.0,-2.4852,0.0,0.0,0.0,-2.5337,-2.5447,-2.4987,-2.5165,0.0,0.0,0.0,0.0,0.0,0.0,0.0,0.0,-2.7495,0.0,-2.9625,-2.9377,-2.9668,-3.0529,-3.1066,-3.2058,-3.3446,-3.3686,-3.3801,-3.3821,-3.441,-3.4487,-3.425,-3.4851,-3.5257,-3.5505,-3.58,-3.6219,-3.675,-3.7011,-3.7873,-3.8834,-3.6867,-3.6787,-3.6544,-3.6541,-3.6222,-3.5807,-3.5297,-3.5005,-3.5058,-3.5637,-3.6366,-3.7225,-3.8327,-3.8551,0.0,-4.0076,-4.039,-4.0305,-3.9729,-3.8981,-3.8377,-3.8057,-3.7227,-3.6903,-3.7202,-3.6615,0.0,-3.5004,-3.528,-3.4903,-3.3923,-3.3923,-3.318,-3.1825,-3.1329,-3.1035,-3.0901,-3.0371,-3.0145,-3.0149,-3.0143,-2.9708,-2.903,-2.8734,-2.7877,-2.6822,-2.6432,-2.6161,-2.5845,-2.5023,-2.6127,-2.7567,-2.6256,-2.7141,-2.846,-2.7536,-2.7564,-2.7558,-2.6055,-2.5812,-2.5703,-2.4417,-2.4164,-2.4238,-2.4452,-2.4655,-2.4878,-2.5135,-2.5198,-2.5214,-2.5298,-2.5308,-2.5274,-2.5203,-2.5091,-2.4949,-2.4824,0.0,0.0,0.0,0.0,0.0,0.0,-2.5414,-2.5914,0.0,0.0,0.0,0.0,0.0,-2.7155,-2.7155,-2.8008,-2.8844,-2.9637,-2.9641,-3.0085,-3.097,-3.2434,-3.3506,-3.4225,-3.4853,-3.4968,-3.4718,-3.525,-3.5192,-3.4705,-3.4985,-3.5105,-3.5105,-3.5105,-3.541,-3.5883,-3.6147,-3.6949,-3.7834,-3.56,-3.56,-3.56,-3.56,-3.5052,-3.46,-3.46,-3.4037,-3.3827,-3.4496,-3.5251,-3.6436,-3.8332,-3.9261,-3.9936,-4.044,0.0,0.0,-4.0698,-4.0621,-4.0508,-4.0293,-3.9294,-3.875,-3.8781,-3.7202,-3.5899,-3.4931,-3.4201,-3.381,-3.3755,-3.381,-3.3443,-3.2713,-3.2632,-3.1794,-3.0485,-3.114,-3.0706,-2.969,-3.0603,-3.0631,-3.006,-2.9265,-2.8942,-2.8757,-2.7767,-2.7209,-2.6869,-2.6048,-2.6718,-2.7732,-2.6869,-2.7703,-2.8782,-2.7622,-2.758,-2.7766,-2.6918,-2.6359,-2.5811,-2.5013,-2.4543,-2.433,-2.4537,-2.4578,-2.4663,-2.4937,-2.5004,-2.5052,-2.5264,-2.5308,-2.5248,-2.5046,-2.5163,-2.5096,-2.4596,-2.4956,0.0,0.0,0.0,0.0,-2.5551,-2.6169,-2.6308,0.0,0.0,0.0,0.0,0.0,-2.8049,-2.7992,-2.878,-2.9583,-3.0385,-3.0462,-3.0962,-3.191,-3.4269,-3.5026,-3.434,-3.5911,-3.6212,-3.55,-3.55,-3.55,-3.5486,-3.5207,-3.5105,-3.5105,-3.5105,-3.5105,-3.513,-3.5391,-3.5538,-3.5692,0.0,0.0,-3.56,-3.56,-3.5052,-3.46,-3.46,-3.4037,-3.3825,-3.451,-3.5245,-3.6088,-3.7073,-3.8325,-3.9165,-3.9277,-4.0701,-4.1325,-4.0671,-4.0618,-4.0488,-4.0238,-3.939,-3.9141,-3.9606,-3.8043,-3.6174,-3.4082,-3.4104,-3.3783,-3.3189,-3.382,-3.4006,-3.3802,-3.2968,-3.2742,-3.2889,-3.1843,-3.1568,-3.182,-3.166,-3.1616,-3.1605,-3.0966,-3.0333,-2.9674,-2.8767,-2.8161,-2.768,-2.6888,-2.7551,-2.8473,-2.7042,-2.7703,-2.8892,-2.8292,-2.8193,-2.8058,-2.7054,-2.6397,-2.5823,-2.5059,-2.4993,-2.5168,-2.5374,-2.5427,-2.5332,-2.507,-2.5004,-2.5052,-2.5264,-2.5308,-2.5279,-2.5248,-2.5146,-2.5022,-2.4904,-2.4986,-2.504,0.0,-2.533,-2.5793,-2.627,-2.6491,-2.7044,0.0,0.0,-2.8299,-2.8511,-2.9333,-2.9506,-2.8838,-2.966,-3.0192,-3.0404,-3.1058,-3.2141,-3.3628,-3.4218,-3.4757,-3.5212,-3.5596,-3.5673,-3.55,-3.55,-3.55,-3.5486,-3.5207,-3.5105,-3.5105,-3.5105,-3.5105,-3.513,-3.5391,-3.5885,-3.6442,-3.56,-3.56,-3.56,-3.56,-3.48,-3.4137,-3.4137,-3.3297,-3.2979,-3.3979,-3.477,-3.5621,-3.6586,-3.7713,-3.8525,-3.8881,-4.0192,-4.0931,-4.0758,-4.0745,-4.0634,-4.0438,-3.9499,-3.8828,-3.8443,-3.7076,-3.5349,-3.3256,-3.316,-3.2884,-3.2456,-3.2903,-3.3108,-3.3096,-3.2754,-3.2651,-3.2687,-3.2572,-3.232,-3.207,-3.2282,-3.2283,-3.2175,-3.1931,-3.1419,-3.0765,-3.0299,-2.9574,-2.8699,-2.7891,-2.8244,-2.8785,-2.7548,-2.7996,-2.897,-2.8749,-2.867,-2.8517,-2.7748,-2.7174,-2.6634,-2.5863,-2.581,-2.5882,-2.5623,-2.5569,-2.5411,-2.4885,-2.4769,-2.4824,-2.5031,-2.5074,-2.5074,-2.5074,-2.503,-2.498,-2.4923,-2.5041,-2.5252,-2.557,-2.5768,-2.6231,-2.7101,-2.7198,-2.7563,-2.8472,-2.8549,0.0,-2.9088,-2.9544,-2.9583,-2.9107,-3.0333,-3.0981,-3.0981,-3.2218,-3.3295,-3.4205,-3.4968,-3.5411,-3.5519,-3.5885,-3.5846,-3.55,-3.55,-3.55,-3.5493,-3.5335,-3.5289,-3.5289,-3.5289,-3.5289,-3.5297,-3.5446,-3.6,-3.6692,-3.56,-3.56,-3.56,-3.56,-3.4568,-3.371,-3.3624,-3.2489,-3.211,-3.3341,-3.4072,-3.5043,-3.6374,-3.7194,-3.7876,-3.8509,-3.9289,-4.0028,-4.0733,-4.0668,-4.0585,-4.0556,-3.9413,-3.8115,-3.6741,-3.5356,-3.3848,-3.2234,-3.1943,-3.1749,-3.1618,-3.1749,-3.186,-3.2006,-3.241,-3.2228,-3.1659,-3.3036,-3.2834,-3.166,-3.2616,-3.2826,-3.2591,-3.2661,-3.2434,-3.2045,-3.1795,-3.0916,-2.9789,-2.9108,-2.8996,-2.906,-2.8374,-2.8631,-2.9152,-2.9042,-2.9005,-2.8929,-2.8577,-2.8148,-2.764,-2.6961,-2.6778,-2.6576,-2.576,-2.5576,-2.537,-2.4657,-2.4503,-2.4559,-2.4785,-2.4799,-2.4894,-2.5222,-2.5127,-2.5063,-2.5231,0.0,-2.555,-2.6256,-2.6507,-2.6986,-2.7992,-2.8088,-2.8145,-2.8275,-2.8275,-2.8582,-2.9261,-2.93,-2.9357,-2.9492,-3.0929,-3.1814,-3.2064,-3.3494,-3.434,-3.459,-3.6026,-3.6346,-3.5692,-3.6385,-3.625,-3.55,-3.55,-3.5577,-3.5673,-3.5558,-3.5654,-3.5865,-3.5731,-3.575,-3.5885,-3.5885,-3.6308,-3.6904,-3.56,-3.56,-3.56,-3.56,-3.4958,-3.426,-3.3684,-3.2933,-3.2688,-3.3397,-3.3607,-3.4196,-3.5527,-3.6338,-3.6843,-3.6948,-3.7703,-3.8734,-4.0137,-3.9586,-3.943,-3.9924,-3.8516,-3.7406,-3.6725,-3.4262,-3.2179,-3.0577,-3.1396,-3.1456,-3.0804,-3.1475,-3.2173,-3.281,-3.2662,-3.2528,-3.2417,-3.2674,-3.2638,-3.2456,-3.2831,-3.3521,-3.4252,-3.3773,-3.3692,-3.3628,-3.2218,-3.1305,-3.0769,-3.0591,-3.03,-2.9989,-2.9879,-2.9916,-2.9879,-2.9207,-2.9005,-2.8994,-2.8929,-2.8366,-2.778,-2.764,-2.7603,-2.7402,-2.6594,-2.641,-2.6041,-2.4768,-2.4503,-2.4607,-2.4911,-2.4889,-2.5363,-2.7136,-2.6056,-2.5562,-2.7184,0.0,-2.5605,-2.6455,-2.6586,-2.7217,-2.8761,-2.8915,-2.9217,-2.9962,-3.0,-3.0077,-3.0192,-3.0192,-3.0538,-3.1275,-3.1564,-3.2372,-3.3801,-3.4071,-3.4911,-3.6315,-3.6577,-3.6635,-3.6519,-3.6635,-3.625,-3.55,-3.55,-3.5885,-3.6462,-3.5788,-3.6327,-3.7546,-3.6788,-3.6962,-3.7603,-3.7603,-3.77,-3.7796,-3.5684,-3.56,-3.56,-3.56,-3.5052,-3.4503,-3.4186,-3.3572,-3.3239,-3.3475,-3.38,-3.4273,-3.4895,-3.5587,-3.6165,-3.6584,-3.6585,-3.7205,-3.8778,-3.8513,-3.8247,-3.814,-3.6916,-3.5347,-3.3558,-3.1846,-3.0505,-2.9537,-3.0197,-3.0317,-2.9963,-3.0336,-3.0708,-3.1067,-3.0998,-3.1091,-3.1353,-3.2046,-3.2437,-3.2651,-3.3203,-3.3936,-3.4666,-3.4387,-3.3966,-3.3385,-3.2504,-3.1645,-3.0912,-3.078,-3.0787,-3.076,-3.0338,-3.021,-3.0044,-2.9244,-2.9005,-2.9005,-2.9005,-2.873,-2.8448,-2.8448,-2.8117,-2.7585,-2.6778,-2.6602,-2.6295,-2.5208,-2.5319,-2.5708,-2.5976,-2.5971,-2.6242,-2.721,-2.6826,-2.6664,-2.7426,-2.7054,-2.7005,-2.7852,-2.7948,-2.8621,-3.0333,-3.0506,-3.0852,-3.1679,-3.1346,-3.1288,-3.1712,-3.1346,-3.1481,-3.2314,-3.2795,-3.3641,-3.4891,-3.5334,-3.593,-3.6712,-3.718,-3.7161,-3.6692,-3.6692,-3.65,-3.6154,-3.6154,-3.6615,-3.7373,-3.7007,-3.7296,-3.7969,-3.7565,-3.7642,-3.8007,-3.8007,-3.8296,-3.87,-3.6265,-3.6124,-3.6073,-3.5904,-3.5452,-3.4998,-3.4657,-3.4161,-3.3822,-3.3744,-3.4193,-3.4555,-3.4726,-3.5182,-3.5733,-3.6306,-3.5975,-3.6274,-3.7456,-3.7706,-3.7556,-3.6986,-3.5586,-3.3648,-3.1102,-3.027,-2.9649,-2.9144,-2.9437,-2.9495,-2.931,-2.931,-2.9421,-2.9585,-2.9605,-2.993,-3.0534,-3.1447,-3.212,-3.2669,-3.3335,-3.3998,-3.4574,-3.4508,-3.4044,-3.335,-3.2772,-3.2087,-3.145,-3.1237,-3.1397,-3.1531,-3.0723,-3.0485,-3.0283,-2.9299,-2.9005,-2.9005,-2.9005,-2.9005,-2.9005,-2.9005,-2.8528,-2.786,-2.7071,-2.6888,-2.6649,-2.5852,-2.6172,-2.6659,-2.686,-2.6898,-2.7055,-2.7536,0.0,-2.7674,-2.7922,-2.809,-2.8415,-2.903,-2.928,-3.0006,-3.1545,-3.1698,-3.2025,-3.2833,-3.2333,-3.2256,-3.2872,-3.2314,-3.2352,-3.3179,-3.3859,-3.4622,-3.5481,-3.6115,-3.6615,-3.7,-3.768,-3.7757,-3.7296,-3.7296,-3.7199,-3.7,-3.7,-3.7507,-3.8296,-3.8084,-3.8238,-3.8565,-3.8373,-3.8411,-3.8604,-3.8815,-3.9181,-3.9611,-3.7753,-3.7736,-3.7516,-3.6846,-3.6664,-3.6185,-3.4811,-3.4552,-3.4505,-3.4515,-3.4504,-3.4745,-3.5367,-3.5469,-3.5537,-3.5587,-3.618,-3.6554,-3.6661,-3.7397,-3.7782,-3.7725,-3.5391,-3.3352,-3.1756,-3.1064,-3.0328,-2.9562,-2.9935,-2.9756,-2.904,-2.904,-2.9425,-3.0142,-2.9759,-3.0251,-3.1298,-3.1084,-3.1615,-3.2627,-3.2949,-3.3517,-3.4218,-3.3951,-3.4315,-3.4721,-3.3094,-3.2809,-3.3184,-3.2907,-3.2686,-3.2362,-3.158,-3.1323,-3.0999,-2.9445,-2.9005,-2.9005,-2.9005,-2.9005,-2.9005,-2.9005,-2.8968,-2.8693,-2.7897,-2.7714,-2.7475,-2.6686,-2.6557,-2.6667,-2.686,-2.6898,-2.7536,-2.9452,0.0,0.0,-2.9914,-2.9494,-2.903,-2.9088,-2.9813,-3.0673,-3.1621,-3.1698,-3.2025,-3.2833,-3.2852,-3.2833,-3.2891,-3.2833,-3.3218,-3.409,-3.4167,-3.4622,-3.5481,-3.5558,-3.6365,-3.7892,-3.7969,-3.8392,-3.9111,-3.9111,-3.8661,-3.7892,-3.7892,-3.8392,-3.915,-3.8334,-3.8911,-4.0246,-3.9496,-3.9669,-4.0419,-4.1219,-4.1046,-4.0535,-3.799,-3.7533,-3.7263,-3.7449,-3.6688,-3.6044,-3.5964,-3.5532,-3.5065,-3.4644,-3.493,-3.5104,-3.488,-3.5262,-3.5503,-3.5492,-3.6165,-3.6615,-3.6615,-3.7368,-3.7383,-3.6483,-3.5065,-3.3525,-3.1837,-3.1061,-3.0318,-2.9593,-2.9964,-3.0008,-2.9727,-2.9697,-2.9998,-3.0554,-2.9843,-3.0092,-3.1039,-3.1153,-3.1751,-3.2651,-3.3252,-3.3778,-3.4186,-3.4092,-3.4043,-3.3933,-3.3117,-3.2639,-3.2438,-3.2667,-3.2685,-3.2454,-3.1641,-3.1397,-3.1085,-2.9464,-2.9005,-2.9005,-2.9005,-2.9005,-2.9005,-2.9005,-2.862,-2.8172,-2.786,-2.7798,-2.7714,-2.7402,-2.775,-2.8194,-2.8577,-2.9081,-2.9732,-3.0662,0.0,-3.1085,-3.1682,-3.1597,-3.1448,-3.1448,-3.1756,-3.2295,-3.316,-3.3737,-3.4385,-3.5199,-3.5257,-3.5257,-3.5257,-3.4769,-3.4885,-3.5718,-3.5757,-3.5911,-3.6231,-3.6769,-3.7642,-3.8815,-3.9323,-3.9457,-3.9304,-3.9304,-3.913,-3.8815,-3.8815,-3.9284,-4.0015,-3.9688,-3.9938,-4.0516,-4.0758,-4.1046,-4.1412,-4.2277,-4.2047,-4.1354,-3.8684,-3.8176,-3.7929,-3.8193,-3.7195,-3.6518,-3.706,-3.6282,-3.5531,-3.5321,-3.5456,-3.5503,-3.5225,-3.5611,-3.5872,-3.5834,-3.6737,-3.7217,-3.6994,-3.7741,-3.7518,-3.6007,-3.5241,-3.4045,-3.2353,-3.1679,-3.0887,-2.9905,-3.0305,-3.0374,-3.0173,-3.0116,-3.0277,-3.0549,-2.9819,-3.0039,-3.0972,-3.1278,-3.1942,-3.2858,-3.3528,-3.3915,-3.4056,-3.388,-3.3743,-3.3585,-3.3157,-3.281,-3.2597,-3.2882,-3.2968,-3.2797,-3.1733,-3.1048,-3.043,-2.9317,-2.9005,-2.9005,-2.9005,-2.9189,-2.9317,-2.906,-2.8583,-2.8246,-2.8503,-2.8539,-2.8631,-2.8881,-2.9365,-2.9883,-3.0292,-3.0913,-3.1453,-3.1676,-3.2382,-3.2852,-3.2716,-3.3056,-3.3218,-3.2929,-3.3141,-3.3545,-3.4148,-3.4988,-3.5827,-3.6635,-3.6942,-3.7123,-3.7123,-3.6577,-3.6538,-3.7084,-3.7123,-3.7238,-3.7507,-3.7834,-3.843,-3.9304,-3.9861,-3.9977,-3.9688,-3.9688,-3.9688,-3.9688,-3.9688,-3.9996,-4.0516,-4.0804,-4.0912,-4.0989,-4.1873,-4.222,-4.2316,-4.3162,-4.2951,-4.222,-4.0096,-4.0096,-3.9859,-3.9123,-3.8396,-3.7905,-3.7922,-3.6597,-3.591,-3.6711,-3.6113,-3.5901,-3.6633,-3.6686,-3.6663,-3.6599,-3.7999,-3.8564,-3.7847,-3.8546,-3.8304,-3.6741,-3.5978,-3.489,-3.344,-3.3112,-3.2187,-3.0594,-3.1055,-3.0896,-3.0123,-3.0108,-3.0108,-3.0092,-2.9706,-3.019,-3.1317,-3.1381,-3.211,-3.3243,-3.3634,-3.3807,-3.3742,-3.3215,-3.3513,-3.4095,-3.3297,-3.3531,-3.414,-3.3889,-3.3807,-3.3513,-3.1911,-3.032,-2.9023,-2.9023,-2.9023,-2.9023,-2.9023,-2.9592,-3.0008,-2.9207,-2.9005,-2.9225,-3.0026,-3.021,-3.0448,-3.125,-3.1397,-3.1476,-3.1767,-3.2029,-3.2315,-3.2561,-3.2785,-3.2929,-3.291,-3.366,-3.3898,-3.3026,-3.368,-3.4225,-3.4225,-3.5007,-3.5865,-3.6654,-3.7526,-3.8007,-3.8007,-3.8007,-3.8007,-3.8007,-3.8007,-3.843,-3.9304,-3.845,-3.845,-3.9304,-3.9304,-3.9727,-4.0496,-4.0496,-4.0496,-4.0516,-4.0516,-4.0516,-4.0593,-4.145,-4.1808,-4.1904,-4.2777,-4.3104,-4.3201,-4.4008,-4.3797,-4.3104,-4.0096,-3.969,-3.9436,-3.9723,-3.8717,-3.8075,-3.8582,-3.7838,-3.7313,-3.755,-3.6912,-3.6517,-3.6684,-3.6247,-3.5915,-3.5906,-3.6783,-3.7272,-3.7103,-3.7319,-3.7006,-3.5981,-3.5223,-3.4387,-3.3423,-3.2315,-3.137,-3.0594,-3.1019,-3.1132,-3.0949,-3.0889,-3.1202,-3.1762,-3.1307,-3.1668,-3.2624,-3.2655,-3.3023,-3.362,-3.3748,-3.3807,-3.3784,-3.3618,-3.3712,-3.3891,-3.3657,-3.3362,-3.3147,-3.3645,-3.3421,-3.2858,-3.2381,-3.1531,-3.0687,-3.0687,-3.0687,-3.0687,-3.0687,-3.0852,-3.0705,-2.9335,-2.9861,-3.0595,-3.0265,-3.0632,-3.1164,-3.1584,-3.153,-3.1601,-3.2231,-3.3232,-3.3903,-3.3755,-3.4761,-3.5365,-3.4788,-3.4942,-3.5019,-3.475,-3.5449,-3.5949,-3.5949,-3.7296,-3.8277,-3.8507,-3.8757,-3.8911,-3.8911,-3.8334,-3.8277,-3.8892,-3.8911,-3.9304,-4.0131,-3.9323,-3.9342,-4.015,-4.015,-4.0265,-4.0496,-4.0496,-4.0835,-4.1412,-4.1412,-4.1758,-4.2335,-4.2604,-4.272,-4.2797,-4.3624,-4.3932,-4.4047,-4.4902,-4.4662,-4.3855,-4.0096,-3.974,-3.9588,-4.0028,-3.9106,-3.8481,-3.892,-3.8544,-3.8236,-3.8236,-3.7826,-3.7535,-3.7485,-3.6909,-3.6372,-3.6055,-3.644,-3.6472,-3.5938,-3.6146,-3.5859,-3.4771,-3.4015,-3.3677,-3.3829,-3.2679,-3.182,-3.1269,-3.1208,-3.1227,-3.1272,-3.1378,-3.1732,-3.2213,-3.2109,-3.2383,-3.2937,-3.3105,-3.3332,-3.3578,-3.3734,-3.3807,-3.3807,-3.3807,-3.3807,-3.3807,-3.3807,-3.3495,-3.3146,-3.3642,-3.3275,-3.2601,-3.2601,-3.2045,-3.1397,-3.1397,-3.1397,-3.1397,-3.1397,-3.1623,-3.1568,-3.0283,-3.0687,-3.136,-3.1201,-3.1531,-3.2035,-3.2627,-3.2609,-3.2829,-3.3876,-3.4495,-3.5035,-3.5619,-3.6257,-3.6519,-3.6038,-3.5962,-3.5865,-3.5538,-3.6212,-3.6692,-3.6692,-3.8277,-3.9438,-3.9746,-3.9765,-3.9765,-3.9765,-3.9284,-3.9227,-3.9765,-3.9765,-4.0015,-4.0496,-4.0015,-4.0015,-4.0496,-4.0854,-4.0835,-4.0516,-4.0854,-4.1296,-4.1788,-4.1788,-4.2297,-4.3124,-4.3431,-4.3566,-4.3662,-4.4489,-4.4797,-4.4874,-4.5421,-4.5267,-4.4643,-4.0096,-4.0096,-4.0096,-4.0096,-3.9529,-3.9089,-3.9089,-3.898,-3.8885,-3.8885,-3.8855,-3.8786,-3.8782,-3.822,-3.7559,-3.6804,-3.6738,-3.6143,-3.4737,-3.5336,-3.5072,-3.3643,-3.2913,-3.3164,-3.4455,-3.3643,-3.2865,-3.2209,-3.1616,-3.1258,-3.121,-3.169,-3.1877,-3.188,-3.2349,-3.2583,-3.2648,-3.3075,-3.3258,-3.3288,-3.3648,-3.3807,-3.3807,-3.3807,-3.3807,-3.3807,-3.3807,-3.3807,-3.3807,-3.3807,-3.3311,-3.2711,-3.2711,-3.221,-3.1617,-3.1617,-3.1617,-3.1617,-3.1617,-3.2155,-3.2546,-3.188,-3.1715,-3.188,-3.2559,-3.2766,-3.3127,-3.4203,-3.4423,-3.4825,-3.6168,-3.5867,-3.6001,-3.7728,-3.7411,-3.6904,-3.6827,-3.6808,-3.6538,-3.5808,-3.6442,-3.6923,-3.6923,-3.843,-3.9708,-4.0439,-4.0496,-4.0496,-4.0496,-4.0573,-4.0573,-4.0496,-4.0573,-4.0631,-4.0631,-4.0535,-4.0496,-4.0516,-4.1373,-4.1335,-4.0535,-4.1393,-4.1788,-4.1788,-4.1885,-4.2412,-4.3278,-4.4085,-4.4412,-4.4489,-4.5287,-4.5594,-4.5594,-4.5594,-4.5594,-4.5364,-4.0096,-4.0096,-4.0096,-4.0096,-3.9977,-3.9859,-3.9859,-4.0175,-4.0418,-4.0418,-3.9921,-3.9508,-3.9341,-3.8281,-3.7456,-3.7132,-3.7082,-3.6689,-3.5741,-3.6426,-3.6265,-3.4962,-3.4734,-3.46,-3.451,-3.2645,-3.1596,-3.1427,-3.187,-3.1769,-3.1227,-3.2257,-3.2596,-3.2384,-3.284,-3.3211,-3.3518,-3.3638,-3.368,-3.368,-3.3762,-3.3807,-3.3807,-3.3807,-3.3807,-3.3807,-3.3807,-3.3807,-3.3807,-3.3807,-3.3678,-3.3532,-3.3532,-3.3421,-3.3275,-3.3275,-3.3275,-3.3275,-3.3275,-3.3403,-3.366,-3.4105,-3.4215,-3.4105,-3.3642,-3.4032,-3.4788,-3.5925,-3.6174,-3.6379,-3.71,-3.7697,-3.8053,-3.8016,-3.8411,-3.8507,-3.7815,-3.7719,-3.7642,-3.7488,-3.82,-3.8738,-3.8738,-3.965,-4.0304,-4.0496,-4.0496,-4.0496,-4.0496,-4.1143,-4.12,-4.0516,-4.1162,-4.1527,-4.1527,-4.0835,-4.0496,-4.0516,-4.1373,-4.1335,-4.0535,-4.1393,-4.1788,-4.1846,-4.2527,-4.3278,-4.4105,-4.496,-4.5325,-4.5344,-4.5537,-4.5594,-4.5594,-4.5594,-4.5594,-4.5364,-4.0096,-4.0096,-4.0096,-4.0096,-4.0096,-3.9994,-3.9639,-4.0573,-4.1195,-4.0845,-4.0662,-4.0385,-3.9917,-3.8684,-3.7529,-3.6695,-3.6979,-3.662,-3.5232,-3.6071,-3.5952,-3.4466,-3.431,-3.4002,-3.3461,-3.2327,-3.1901,-3.2256,-3.2293,-3.2107,-3.1735,-3.2584,-3.2807,-3.2517,-3.2999,-3.3419,-3.3807,-3.3807,-3.3807,-3.3807,-3.3807,-3.3807,-3.3807,-3.3807,-3.3807,-3.3807,-3.3807,-3.4045,-3.4307,-3.3935,-3.4064,-3.4307,-3.3917,-3.4064,-3.4362,-3.4362,-3.4669,-3.5023,-3.5156,-3.4899,-3.4845,-3.5802,-3.5639,-3.5204,-3.5023,-3.533,-3.5832,-3.6556,-3.6789,-3.7134,-3.7976,-3.8312,-3.8629,-3.9108,-3.9246,-3.915,-3.8681,-3.8623,-3.8469,-3.8046,-3.8757,-3.9457,-3.9842,-4.0246,-4.0669,-4.1085,-4.1123,-4.1296,-4.172,-4.2162,-4.222,-4.1739,-4.2181,-4.2431,-4.2431,-4.197,-4.1739,-4.1739,-4.1777,-4.1566,-4.1143,-4.1585,-4.2019,-4.245,-4.2893,-4.3566,-4.4374,-4.5248,-4.5344,-4.4979,-4.4979,-4.4748,-4.4451,-4.4844,-4.4979,-4.4855,-4.0096,-4.0096,-4.0096,-4.0096,-4.0096,-3.9893,-3.9276,-4.0585,-4.1456,-4.0943,-4.1223,-4.1247,-4.0691,-3.9407,-3.811,-3.697,-3.7344,-3.6948,-3.5268,-3.6095,-3.5911,-3.424,-3.3878,-3.3478,-3.2935,-3.2815,-3.2903,-3.322,-3.2852,-3.2547,-3.2313,-3.2911,-3.2947,-3.2517,-3.2999,-3.3419,-3.3807,-3.3807,-3.3807,-3.3807,-3.3807,-3.3807,-3.3807,-3.3807,-3.3807,-3.3807,-3.3807,-3.4307,-3.4931,-3.4394,-3.4669,-3.5114,-3.4449,-3.4688,-3.5224,-3.5224,-3.572,-3.6352,-3.6638,-3.6205,-3.5992,-3.7125,-3.6701,-3.6162,-3.673,-3.6679,-3.6609,-3.696,-3.7297,-3.7826,-3.8764,-3.8659,-3.8873,-4.0265,-3.9938,-3.9515,-3.9515,-3.9515,-3.9246,-3.8507,-3.9073,-3.9765,-4.0439,-4.0631,-4.1027,-4.175,-4.1942,-4.2335,-4.3066,-4.3239,-4.3239,-4.3104,-4.3239,-4.3316,-4.3316,-4.3162,-4.3162,-4.3297,-4.2431,-4.1942,-4.1808,-4.1942,-4.2258,-4.2662,-4.2816,-4.3335,-4.4143,-4.4883,-4.4816,-4.4297,-4.4143,-4.3682,-4.3201,-4.3989,-4.4297,-4.4297,-4.0096,-4.0096,-4.0096,-4.0096,-4.0096,-4.0079,-3.9977,-4.0556,-4.1171,-4.1605,-4.1714,-4.1821,-4.2024,-4.0632,-3.9869,-4.0379,-3.9867,-3.9412,-3.9144,-3.9284,-3.8742,-3.7345,-3.6642,-3.604,-3.5504,-3.487,-3.3869,-3.2446,-3.3647,-3.3563,-3.231,-3.3424,-3.3434,-3.2517,-3.2999,-3.3419,-3.3807,-3.3807,-3.3807,-3.3807,-3.3807,-3.3807,-3.3807,-3.3807,-3.3807,-3.3807,-3.3807,-3.4307,-3.5096,-3.5752,-3.6028,-3.6101,-3.5991,-3.6046,-3.6119,-3.6119,-3.6211,-3.6352,-3.6638,-3.6628,-3.6814,-3.7951,-3.8128,-3.8203,-3.8985,-3.8213,-3.7562,-3.8272,-3.8867,-3.9309,-3.9467,-3.9862,-4.0246,-4.0458,-4.0419,-4.0342,-4.0342,-4.0342,-4.0285,-4.0189,-4.0265,-4.0381,-4.0496,-4.1181,-4.1673,-4.1788,-4.2508,-4.2989,-4.3085,-4.3758,-4.3816,-4.3124,-4.3778,-4.4143,-4.4143,-4.3451,-4.3451,-4.4124,-4.3316,-4.2527,-4.1827,-4.2585,-4.2162,-4.09,-4.1643,-4.247,-4.3278,-4.3393,-4.3778,-4.422,-4.3528,-4.3201,-4.3201,-4.3989,-4.4297,-4.4297,-4.0096,-4.0096,-4.0096,-4.0096,-4.0096,-4.0096,-4.0096,-4.0552,-4.111,-4.1707,-4.167,-4.1751,-4.2255,-4.1258,-4.0524,-4.0432,-4.0102,-3.9768,-3.9465,-3.9315,-3.8715,-3.756,-3.7052,-3.6552,-3.6006,-3.5687,-3.5151,-3.4368,-3.4332,-3.4003,-3.335,-3.3166,-3.2747,-3.2127,-3.2599,-3.306,-3.348,-3.3707,-3.3807,-3.3807,-3.3807,-3.3807,-3.3807,-3.3807,-3.3807,-3.3862,-3.4307,-3.5004,-3.5789,-3.6174,-3.6597,-3.6905,-3.6431,-3.6611,-3.6978,-3.6978,-3.7294,-3.7695,-3.7963,-3.7823,-3.7889,-3.9069,-3.8979,-3.8836,-3.969,-3.9623,-3.9307,-3.8998,-3.9269,-3.9599,-3.9599,-4.0082,-4.0496,-4.0496,-4.0496,-4.0496,-4.0496,-4.0496,-4.0689,-4.1162,-4.1662,-4.195,-4.195,-4.2297,-4.272,-4.3162,-4.3547,-4.397,-4.447,-4.4816,-4.4855,-4.4509,-4.4844,-4.5037,-4.5037,-4.4662,-4.4662,-4.5017,-4.4662,-4.4047,-4.3201,-4.3124,-4.2931,-4.2624,-4.2547,-4.2739,-4.3124,-4.3585,-4.3701,-4.3643,-4.372,-4.3778,-4.3758,-4.3662,-4.422,-4.5037]},{"header":{"parameterUnit":"m.s-1","parameterCategory":1,"la1":30.6,"la2":28.766,"lo1":-90.7593,"lo2":-88.6598,"dy":0.0162,"dx":0.0183,"nx":116,"ny":114,"refTime":"2023-09-11T18:00:00:Z","depth":0,"parameterNumber":3,"parameterNumberName":"V-component_of_WINDS"},"data":[0.0,0.0,0.0,0.0,0.0,0.0,0.0,0.0,0.0,0.0,0.0,0.0,0.0,0.0,0.0,0.0,0.0,0.0,0.0,0.0,0.0,0.0,0.0,0.0,0.0,0.0,0.0,0.0,0.0,0.0,0.0,0.0,0.0,0.0,0.0,0.0,0.0,0.0,0.0,0.0,0.0,0.0,0.0,0.0,0.0,0.0,0.0,0.0,0.0,0.0,0.0,0.0,0.0,0.0,0.0,0.0,0.0,0.0,0.0,0.0,0.0,0.0,0.0,0.0,0.0,0.0,0.0,0.0,0.0,0.0,0.0,0.0,0.0,0.0,0.0,0.0,0.0,0.0,0.0,0.0,0.0,0.0,0.0,0.0,0.0,0.0,0.0,0.0,0.0,0.0,0.0,0.0,0.0,0.0,0.0,0.0,0.0,0.0,0.0,0.0,0.0,0.0,0.0,0.0,0.0,0.0,0.0,0.0,0.0,0.0,0.0,0.0,0.0,0.0,0.0,0.0,0.0,0.0,0.0,0.0,0.0,0.0,0.0,0.0,0.0,0.0,0.0,0.0,0.0,0.0,0.0,0.0,0.0,0.0,0.0,0.0,0.0,0.0,0.0,0.0,0.0,0.0,0.0,0.0,0.0,0.0,0.0,0.0,0.0,0.0,0.0,0.0,0.0,0.0,0.0,0.0,0.0,0.0,0.0,0.0,0.0,0.0,0.0,0.0,0.0,0.0,0.0,0.0,0.0,0.0,0.0,0.0,0.0,0.0,0.0,0.0,0.0,0.0,0.0,0.0,0.0,0.0,0.0,0.0,0.0,0.0,0.0,0.0,0.0,0.0,0.0,0.0,0.0,0.0,0.0,0.0,0.0,0.0,0.0,0.0,0.0,0.0,0.0,0.0,0.0,0.0,0.0,0.0,0.0,0.0,0.0,0.0,0.0,0.0,0.0,0.0,0.0,0.0,0.0,0.0,0.0,0.0,0.0,0.0,0.0,0.0,0.0,0.0,0.0,0.0,0.0,0.0,0.0,0.0,0.0,0.0,0.0,0.0,0.0,0.0,0.0,0.0,0.0,0.0,0.0,0.0,0.0,0.0,0.0,0.0,0.0,0.0,0.0,0.0,0.0,0.0,0.0,0.0,0.0,0.0,0.0,0.0,0.0,0.0,0.0,0.0,0.0,0.0,0.0,0.0,0.0,0.0,0.0,0.0,0.0,0.0,0.0,0.0,0.0,0.0,0.0,0.0,0.0,0.0,0.0,0.0,0.0,0.0,0.0,0.0,0.0,0.0,0.0,0.0,0.0,0.0,0.0,0.0,0.0,0.0,0.0,0.0,0.0,0.0,0.0,0.0,0.0,0.0,0.0,0.0,0.0,0.0,0.0,0.0,0.0,0.0,0.0,0.0,0.0,0.0,0.0,0.0,0.0,0.0,0.0,0.0,0.0,0.0,0.0,0.0,0.0,0.0,0.0,0.0,0.0,0.0,0.0,0.0,0.0,0.0,0.0,0.0,0.0,0.0,0.0,0.0,0.0,0.0,0.0,0.0,0.0,0.0,0.0,0.0,0.0,0.0,0.0,0.0,0.0,0.0,0.0,0.0,0.0,0.0,0.0,0.0,0.0,0.0,0.0,0.0,0.0,0.0,0.0,0.0,0.0,0.0,0.0,0.0,0.0,0.0,0.0,0.0,0.0,0.0,0.0,0.0,0.0,0.0,0.0,0.0,0.0,0.0,0.0,0.0,0.0,0.0,0.0,0.0,0.0,0.0,0.0,0.0,0.0,0.0,0.0,0.0,0.0,0.0,0.0,0.0,0.0,0.0,0.0,0.0,0.0,0.0,0.0,0.0,0.0,0.0,0.0,0.0,0.0,0.0,0.0,0.0,0.0,0.0,0.0,0.0,0.0,0.0,0.0,0.0,0.0,0.0,0.0,0.0,0.0,0.0,0.0,0.0,0.0,0.0,0.0,0.0,0.0,0.0,0.0,0.0,0.0,0.0,0.0,0.0,0.0,0.0,0.0,0.0,0.0,0.0,0.0,0.0,0.0,0.0,0.0,0.0,0.0,0.0,0.0,0.0,0.0,0.0,0.0,0.0,0.0,0.0,0.0,0.0,0.0,0.0,0.0,0.0,0.0,0.0,0.0,0.0,0.0,0.0,0.0,0.0,0.0,0.0,0.0,0.0,0.0,0.0,0.0,0.0,0.0,0.0,0.0,0.0,0.0,0.0,0.0,0.0,0.0,0.0,0.0,0.0,0.0,0.0,0.0,0.0,0.0,0.0,0.0,0.0,0.0,0.0,0.0,0.0,0.0,0.0,0.0,0.0,0.0,0.0,0.0,0.0,0.0,0.0,0.0,0.0,0.0,0.0,0.0,0.0,0.0,0.0,0.0,0.0,0.0,0.0,0.0,0.0,0.0,0.0,0.0,0.0,0.0,0.0,0.0,0.0,0.0,0.0,0.0,0.0,0.0,0.0,0.0,0.0,0.0,0.0,0.0,0.0,0.0,0.0,0.0,0.0,0.0,0.0,0.0,0.0,0.0,0.0,0.0,0.0,0.0,0.0,0.0,0.0,0.0,0.0,0.0,0.0,0.0,0.0,0.0,0.0,0.0,0.0,0.0,0.0,0.0,0.0,0.0,0.0,0.0,0.0,0.0,0.0,0.0,0.0,0.0,0.0,0.0,0.0,0.0,0.0,0.0,0.0,0.0,0.0,0.0,0.0,0.0,0.0,0.0,0.0,0.0,0.0,0.0,0.0,0.0,0.0,0.0,0.0,0.0,0.0,0.0,0.0,0.0,0.0,0.0,0.0,0.0,0.0,0.0,0.0,0.0,0.0,0.0,0.0,0.0,0.0,0.0,0.0,0.0,0.0,0.0,0.0,0.0,0.0,0.0,0.0,0.0,0.0,0.0,0.0,0.0,0.0,0.0,0.0,0.0,0.0,0.0,0.0,0.0,0.0,0.0,0.0,0.0,0.0,0.0,0.0,0.0,0.0,0.0,0.0,0.0,0.0,0.0,0.0,0.0,0.0,0.0,0.0,0.0,0.0,0.0,0.0,0.0,0.0,0.0,0.0,0.0,0.0,0.0,0.0,0.0,0.0,0.0,0.0,0.0,0.0,0.0,0.0,0.0,0.0,0.0,0.0,0.0,0.0,0.0,0.0,0.0,0.0,0.0,0.0,0.0,0.0,0.0,0.0,0.0,0.0,0.0,0.0,0.0,0.0,0.0,0.0,0.0,0.0,0.0,0.0,0.0,0.0,0.0,0.0,0.0,0.0,0.0,0.0,0.0,0.0,0.0,0.0,0.0,0.0,0.0,0.0,0.0,0.0,0.0,0.0,0.0,0.0,0.0,0.0,0.0,0.0,0.0,0.0,0.0,0.0,0.0,0.0,0.0,0.0,0.0,0.0,0.0,0.0,0.0,0.0,0.0,0.0,0.0,0.0,0.0,0.0,0.0,0.0,0.0,0.0,0.0,0.0,0.0,0.0,0.0,0.0,0.0,0.0,0.0,0.0,0.0,0.0,0.0,0.0,0.0,0.0,0.0,0.0,0.0,0.0,0.0,0.0,0.0,0.0,0.0,0.0,0.0,0.0,0.0,0.0,0.0,0.0,0.0,0.0,0.0,0.0,0.0,0.0,0.0,0.0,0.0,0.0,0.0,0.0,0.0,0.0,0.0,0.0,0.0,0.0,0.0,0.0,0.0,0.0,0.0,0.0,0.0,0.0,0.0,0.0,0.0,0.0,0.0,0.0,0.0,0.0,0.0,0.0,0.0,0.0,0.0,0.0,0.0,0.0,0.0,0.0,0.0,0.0,0.0,0.0,0.0,0.0,0.0,0.0,0.0,0.0,0.0,0.0,0.0,0.0,0.0,0.0,0.0,0.0,0.0,0.0,0.0,0.0,0.0,0.0,0.0,0.0,0.0,0.0,0.0,0.0,0.0,0.0,0.0,0.0,0.0,0.0,0.0,0.0,0.0,0.0,0.0,0.0,0.0,0.0,0.0,0.0,0.0,0.0,0.0,0.0,0.0,0.0,0.0,0.0,0.0,0.0,0.0,0.0,0.0,0.0,0.0,0.0,0.0,0.0,0.0,0.0,0.0,0.0,0.0,0.0,0.0,0.0,0.0,0.0,0.0,0.0,0.0,0.0,0.0,0.0,0.0,0.0,0.0,0.0,0.0,0.0,0.0,0.0,0.0,0.0,0.0,0.0,0.0,0.0,0.0,0.0,0.0,0.0,0.0,0.0,0.0,0.0,0.0,0.0,0.0,0.0,0.0,0.0,0.0,0.0,0.0,0.0,0.0,0.0,0.0,0.0,0.0,0.0,0.0,0.0,0.0,0.0,0.0,0.0,0.0,0.0,0.0,0.0,0.0,0.0,0.0,0.0,0.0,0.0,0.0,0.0,0.0,0.0,0.0,0.0,0.0,0.0,0.0,0.0,0.0,0.0,0.0,0.0,0.0,0.0,0.0,0.0,0.0,0.0,0.0,0.0,0.0,0.0,0.0,0.0,0.0,0.0,0.0,0.0,0.0,0.0,0.0,0.0,0.0,0.0,0.0,0.0,0.0,0.0,0.0,0.0,0.0,0.0,0.0,0.0,0.0,0.0,0.0,0.0,0.0,0.0,0.0,0.0,0.0,0.0,0.0,0.0,0.0,0.0,0.0,0.0,0.0,0.0,0.0,0.0,0.0,0.0,0.0,0.0,0.0,0.0,0.0,0.0,0.0,0.0,0.0,0.0,0.0,0.0,0.0,0.0,0.0,0.0,0.0,0.0,0.0,0.0,0.0,0.0,0.0,0.0,0.0,0.0,0.0,0.0,0.0,0.0,0.0,0.0,0.0,0.0,0.0,0.0,0.0,0.0,0.0,0.0,0.0,0.0,0.0,0.0,0.0,0.0,0.0,0.0,0.0,0.0,0.0,0.0,0.0,0.0,0.0,0.0,0.0,0.0,0.0,0.0,0.0,0.0,0.0,0.0,0.0,0.0,0.0,0.0,0.0,0.0,0.0,0.0,0.0,0.0,0.0,0.0,0.0,0.0,0.0,0.0,0.0,0.0,0.0,0.0,0.0,0.0,0.0,0.0,0.0,0.0,0.0,0.0,0.0,0.0,0.0,0.0,0.0,0.0,0.0,0.0,0.0,0.0,0.0,0.0,0.0,0.0,0.0,0.0,0.0,0.0,0.0,0.0,0.0,0.0,0.0,0.0,0.0,0.0,0.0,0.0,0.0,0.0,0.0,0.0,0.0,0.0,0.0,0.0,0.0,0.0,0.0,0.0,0.0,0.0,0.0,0.0,0.0,0.0,0.0,0.0,0.0,0.0,0.0,0.0,0.0,0.0,0.0,0.0,0.0,0.0,0.0,0.0,0.0,0.0,0.0,0.0,0.0,0.0,0.0,0.0,0.0,0.0,0.0,0.0,0.0,0.0,0.0,0.0,0.0,0.0,0.0,0.0,0.0,0.0,0.0,0.0,0.0,0.0,0.0,0.0,0.0,0.0,0.0,0.0,0.0,0.0,0.0,0.0,0.0,0.0,0.0,0.0,0.0,0.0,0.0,0.0,0.0,0.0,0.0,0.0,0.0,0.0,0.0,0.0,0.0,0.0,0.0,0.0,0.0,0.0,0.0,0.0,0.0,0.0,0.0,0.0,0.0,0.0,0.0,0.0,0.0,0.0,0.0,0.0,0.0,0.0,0.0,0.0,0.0,0.0,0.0,0.0,0.0,0.0,0.0,0.0,0.0,0.0,0.0,0.0,0.0,0.0,0.0,0.0,0.0,0.0,0.0,0.0,0.0,0.0,0.0,0.0,0.0,0.0,0.0,0.0,0.0,0.0,0.0,0.0,0.0,0.0,0.0,0.0,0.0,0.0,0.0,0.0,0.0,0.0,0.0,0.0,0.0,0.0,0.0,0.0,0.0,0.0,0.0,0.0,0.0,0.0,0.0,0.0,0.0,0.0,0.0,0.0,0.0,0.0,0.0,0.0,0.0,0.0,0.0,0.0,0.0,0.0,0.0,0.0,0.0,0.0,0.0,0.0,0.0,0.0,0.0,0.0,0.0,0.0,0.0,0.0,0.0,0.0,0.0,0.0,-0.1832,0.0,0.0,0.0,0.0,0.0,0.0,0.0,0.0,0.0,0.0,0.0,0.0,0.0,0.0,0.0,0.0,0.0,0.0,0.0,0.0,0.0,0.0,0.0,0.0,0.0,0.0,0.0,0.0,0.0,0.0,0.0,0.0,0.0,0.0,0.0,0.0,0.0,0.0,0.0,-0.7373,-0.7196,-0.7099,-0.693,-0.6654,-0.6262,0.0,0.0,0.0,0.0,0.0,0.0,0.0,0.0,0.0,0.0,0.0,0.0,0.0,0.0,0.0,0.0,0.0,0.0,0.0,0.0,0.0,0.0,0.0,0.0,0.0,0.0,0.0,0.0,0.0,0.0,0.0,0.0,0.0,0.0,0.0,0.0,0.0,0.0,0.0,0.0,0.0,0.0,0.0,0.0,0.0,0.0,0.0,0.0,0.0,0.0,0.0,0.0,0.0,0.0,0.0,0.0,0.0,0.0,0.0,0.0,0.0,0.0,0.0,0.0,0.0,0.0,0.0,0.0,0.0,0.0,0.0,-0.2162,0.0,0.0,0.0,0.0,0.0,0.0,0.0,0.0,0.0,0.0,0.0,0.0,0.0,0.0,0.0,0.0,0.0,0.0,0.0,0.0,0.0,0.0,0.0,0.0,-0.6055,-0.7131,-0.6705,-0.6606,0.0,0.0,0.0,0.0,0.0,0.0,0.0,0.0,0.0,-0.7819,-0.7283,-0.7207,-0.751,-0.7084,-0.6854,-0.6797,-0.6373,0.0,0.0,0.0,0.0,0.0,0.0,0.0,0.0,0.0,0.0,0.0,0.0,0.0,0.0,0.0,0.0,0.0,0.0,0.0,0.0,0.0,0.0,0.0,0.0,0.0,0.0,0.0,0.0,0.0,0.0,0.0,0.0,0.0,0.0,0.0,0.0,0.0,0.0,0.0,0.0,0.0,0.0,0.0,0.0,0.0,0.0,0.0,0.0,0.0,0.0,0.0,0.0,0.0,0.0,0.0,0.0,0.0,0.0,0.0,0.0,0.0,0.0,0.0,-0.4415,-0.45,-0.433,-0.4575,-0.4489,-0.4146,-0.3794,-0.3163,-0.2346,-0.2416,0.0,0.0,0.0,0.0,0.0,0.0,0.0,0.0,0.0,0.0,0.0,0.0,0.0,0.0,0.0,0.0,0.0,0.0,0.0,0.0,0.0,-0.624,-0.6955,-0.8048,-0.7435,-0.7309,0.0,0.0,0.0,0.0,0.0,0.0,0.0,-0.785,-0.8034,-0.7475,-0.7272,-0.7609,-0.8416,-0.7272,-0.6946,-0.7269,-0.6164,-0.5909,-0.625,0.0,0.0,0.0,0.0,0.0,0.0,0.0,0.0,0.0,0.0,0.0,0.0,0.0,0.0,0.0,0.0,0.0,0.0,0.0,0.0,0.0,0.0,0.0,0.0,0.0,0.0,0.0,0.0,0.0,0.0,0.0,0.0,0.0,0.0,0.0,0.0,0.0,0.0,0.0,0.0,0.0,-0.3889,-0.4068,0.0,0.0,0.0,0.0,0.0,0.0,0.0,0.0,0.0,0.0,0.0,0.0,0.0,-0.4276,-0.4669,-0.47,-0.481,-0.4945,-0.515,-0.5091,-0.4803,-0.4963,-0.4926,-0.477,-0.471,0.0,-0.3681,-0.2957,0.0,0.0,0.0,0.0,0.0,0.0,0.0,0.0,0.0,0.0,0.0,0.0,0.0,0.0,0.0,0.0,0.0,0.0,0.0,0.0,0.0,-0.7358,-0.8214,-0.9169,-0.9217,-0.9077,-0.8882,-0.8371,0.0,0.0,0.0,-0.7378,-0.7462,-0.7749,-0.7687,-0.7293,-0.8057,-0.8197,-0.7753,-0.7258,-0.6915,-0.6673,-0.5665,-0.5569,-0.6151,-0.5502,0.0,0.0,0.0,0.0,0.0,0.0,0.0,0.0,0.0,0.0,0.0,0.0,0.0,0.0,0.0,0.0,0.0,0.0,0.0,0.0,0.0,0.0,0.0,0.0,0.0,0.0,0.0,0.0,0.0,0.0,0.0,0.0,0.0,0.0,0.0,0.0,0.0,0.0,0.0,-0.3735,-0.4126,-0.4195,-0.3661,-0.3184,0.0,0.0,0.0,0.0,0.0,0.0,0.0,0.0,0.0,-0.4499,-0.4702,-0.4922,-0.5163,-0.5166,-0.4938,-0.4487,-0.5179,-0.5114,-0.4435,-0.5167,-0.5382,-0.5172,-0.5257,-0.5021,-0.4585,-0.4008,-0.3626,-0.3388,0.0,0.0,0.0,0.0,-0.3019,-0.3136,0.0,0.0,0.0,0.0,0.0,0.0,0.0,0.0,0.0,0.0,0.0,0.0,-0.739,-0.8078,-0.8943,-1.0209,-1.0149,-0.9878,-0.9494,-0.8928,0.0,0.0,0.0,-0.7693,-0.7838,-0.7585,-0.7563,-0.7768,-0.8678,-0.8582,-0.7542,-0.7438,-0.7054,-0.6392,-0.551,-0.5481,-0.6018,-0.5488,-0.5057,-0.4721,0.0,0.0,0.0,0.0,0.0,0.0,0.0,0.0,0.0,0.0,0.0,0.0,0.0,0.0,0.0,0.0,0.0,0.0,0.0,0.0,0.0,0.0,0.0,0.0,0.0,0.0,0.0,0.0,0.0,0.0,0.0,0.0,0.0,0.0,0.0,0.0,0.0,-0.4107,-0.4332,-0.4326,-0.4011,-0.3717,0.0,0.0,0.0,0.0,0.0,0.0,-0.4368,-0.4386,-0.4484,-0.4659,-0.4882,-0.5061,-0.5168,-0.5411,-0.5061,-0.4126,-0.495,-0.4845,-0.405,-0.5012,-0.5428,-0.5405,-0.5562,-0.5491,-0.5197,-0.482,-0.4201,-0.3477,-0.3125,-0.2838,-0.2638,-0.2651,-0.2679,-0.2767,0.0,0.0,0.0,0.0,0.0,0.0,0.0,0.0,0.0,0.0,0.0,-0.6247,-0.7963,-0.7926,-0.87,-1.1043,-0.9233,-0.8518,-0.9883,-0.8455,-0.7586,-0.7581,-0.8327,-0.8407,-0.7723,-0.7625,-0.8146,-0.9289,-0.8728,-0.8548,-0.8695,-0.8001,-0.7464,-0.7001,-0.6147,-0.5814,-0.5876,-0.5348,-0.5144,-0.5129,-0.4578,0.0,0.0,0.0,0.0,0.0,0.0,0.0,0.0,0.0,0.0,0.0,0.0,0.0,0.0,0.0,0.0,0.0,0.0,0.0,0.0,0.0,0.0,0.0,0.0,0.0,0.0,0.0,0.0,0.0,0.0,0.0,0.0,0.0,0.0,0.0,0.0,0.0,0.0,-0.468,-0.4761,0.0,0.0,0.0,0.0,-0.4346,-0.4645,-0.5016,-0.5399,-0.4403,-0.3903,-0.4049,-0.4188,-0.4364,-0.4534,-0.5494,-0.547,-0.446,-0.4537,-0.4354,-0.4017,-0.4408,-0.4869,-0.5412,-0.5667,-0.5705,-0.5532,-0.5066,-0.4457,-0.3746,-0.3402,-0.2916,-0.238,-0.2123,-0.2042,-0.2034,0.0,0.0,0.0,0.0,0.0,0.0,0.0,0.0,-0.41,-0.5498,-0.597,-0.6818,-0.847,-0.924,-0.9899,-1.053,-1.0532,-1.0244,-0.9639,-0.8933,-0.8354,-0.794,-0.7976,-0.7993,-0.7963,-0.8146,-0.85,-0.9012,-0.8591,-0.8259,-0.7943,-0.7414,-0.6838,-0.6265,-0.5943,-0.5868,-0.594,-0.5475,-0.4839,-0.406,-0.3714,-0.3304,0.0,0.0,0.0,0.0,0.0,0.0,0.0,0.0,0.0,0.0,0.0,0.0,0.0,0.0,0.0,0.0,0.0,0.0,0.0,0.0,0.0,0.0,0.0,0.0,0.0,0.0,0.0,0.0,0.0,0.0,0.0,0.0,0.0,0.0,0.0,0.0,0.0,-0.5199,-0.5572,0.0,-0.5017,-0.5174,-0.5259,-0.5116,-0.542,-0.5718,-0.6016,-0.4986,-0.4435,-0.4584,-0.3861,-0.3542,-0.3595,-0.3961,-0.3954,-0.3584,-0.3584,-0.3895,-0.4472,-0.4589,-0.5049,-0.5803,-0.6006,-0.5584,-0.4687,-0.4666,-0.4356,-0.378,-0.2431,-0.1744,-0.1553,-0.1456,-0.1435,-0.1474,0.0,0.0,0.0,0.0,0.0,0.0,0.0,0.0,-0.4085,-0.5371,-0.5976,-0.6874,-0.8405,-0.9273,-0.9937,-1.036,-1.0524,-1.0279,-0.9466,-0.8998,-0.8613,-0.828,-0.8143,-0.8232,-0.8532,-0.8711,-0.8798,-0.8788,-0.8675,-0.8155,-0.7283,-0.7116,-0.6627,-0.5881,-0.5932,-0.5783,-0.5478,-0.5255,-0.4588,-0.365,-0.3629,-0.3352,-0.2896,0.0,0.0,0.0,0.0,0.0,0.0,0.0,0.0,0.0,0.0,0.0,0.0,0.0,0.0,0.0,0.0,0.0,0.0,0.0,0.0,0.0,0.0,0.0,0.0,0.0,0.0,0.0,0.0,0.0,0.0,0.0,0.0,0.0,0.0,0.0,-0.5649,-0.5758,-0.6141,-0.6197,-0.5819,-0.5948,-0.6013,-0.5916,-0.5736,-0.5689,-0.5907,-0.4476,-0.3711,-0.3767,-0.3071,-0.2628,-0.261,-0.2959,-0.2955,-0.261,-0.2589,-0.2918,-0.3552,-0.3969,-0.4604,-0.5442,-0.6055,-0.5541,-0.4272,-0.4112,-0.3702,-0.309,-0.204,-0.1277,-0.0773,-0.105,-0.1166,-0.1243,0.0,0.0,0.0,0.0,0.0,0.0,0.0,-0.3441,-0.3882,-0.437,-0.5306,-0.6428,-0.7747,-0.7942,-0.8713,-1.0572,-0.9014,-0.8324,-0.9313,-0.8568,-0.8228,-0.8575,-0.8851,-0.9125,-0.9404,-0.9266,-0.909,-0.8819,-0.8906,-0.827,-0.692,-0.7097,-0.6756,-0.5966,-0.612,-0.5559,-0.4467,-0.4614,-0.4378,-0.3946,-0.4361,-0.4105,-0.3528,0.0,0.0,0.0,0.0,0.0,0.0,0.0,0.0,0.0,0.0,0.0,0.0,0.0,0.0,0.0,0.0,0.0,0.0,0.0,0.0,0.0,0.0,0.0,0.0,0.0,0.0,0.0,0.0,0.0,0.0,0.0,0.0,0.0,-0.5395,-0.5766,-0.6101,-0.63,-0.6446,-0.6477,-0.6334,-0.645,-0.6552,-0.6698,-0.5582,-0.4962,-0.5104,-0.2863,-0.1608,-0.1606,-0.1684,-0.1684,-0.156,-0.2628,-0.2654,-0.1583,-0.1548,-0.1471,-0.14,-0.2551,-0.3465,-0.4232,-0.5594,-0.5516,-0.434,-0.344,-0.247,-0.1633,-0.2331,-0.1539,-0.0105,-0.095,-0.1252,-0.1243,0.0,0.0,0.0,0.0,0.0,0.0,0.0,-0.3441,-0.4044,-0.5001,-0.5965,-0.6888,-0.7802,-0.8722,-0.9303,-0.934,-0.8728,-0.8484,-0.8796,-0.7958,-0.7791,-0.8561,-0.8851,-0.92,-0.9603,-0.9352,-0.9223,-0.9323,-0.8463,-0.7693,-0.7008,-0.5842,-0.5124,-0.4878,-0.4242,-0.3802,-0.3494,-0.3515,-0.3025,-0.2265,-0.2382,-0.2094,-0.1712,0.0,0.0,0.0,0.0,0.0,0.0,0.0,0.0,0.0,0.0,0.0,0.0,0.0,0.0,0.0,0.0,0.0,0.0,0.0,0.0,0.0,0.0,0.0,0.0,0.0,0.0,0.0,0.0,0.0,0.0,0.0,0.0,-0.576,-0.584,-0.6135,-0.6447,-0.6715,-0.6871,-0.6902,-0.6759,-0.6871,-0.6932,-0.6871,-0.5873,-0.5268,-0.5295,-0.3035,-0.1752,-0.1726,-0.0913,-0.0496,-0.0435,-0.0734,-0.114,-0.1583,-0.0807,-0.1191,-0.2593,-0.2184,-0.2524,-0.341,-0.3805,-0.3385,-0.2365,-0.2108,-0.1385,-0.0448,-0.0655,-0.0423,-0.0034,-0.027,-0.0359,-0.0343,0.0,0.0,0.0,0.0,0.0,0.0,0.0,-0.3549,-0.4079,-0.4648,-0.5911,-0.6872,-0.7153,-0.8268,-0.8795,-0.8306,-0.8259,-0.8162,-0.7936,-0.7836,-0.8071,-0.8753,-0.9159,-0.9376,-0.9411,-0.9349,-0.906,-0.8495,-0.7844,-0.7224,-0.6622,-0.5211,-0.457,-0.452,-0.3538,-0.2884,-0.2464,-0.2464,-0.1881,-0.0946,-0.0943,-0.1076,-0.14,-0.2436,-0.3163,-0.3714,-0.4194,-0.4241,-0.4005,-0.3509,0.0,0.0,0.0,0.0,0.0,0.0,0.0,0.0,0.0,0.0,0.0,0.0,0.0,0.0,0.0,0.0,0.0,0.0,0.0,0.0,0.0,0.0,0.0,0.0,-0.5035,-0.5596,-0.5708,-0.5847,-0.5832,-0.5555,-0.5594,-0.5805,-0.6231,-0.5883,-0.5802,-0.6231,-0.481,-0.3874,-0.3874,-0.2079,-0.1042,-0.103,-0.0375,0.0,0.0,0.0,-0.0305,-0.0933,-0.0291,-0.0652,-0.1786,-0.167,-0.1937,-0.2501,-0.2929,-0.2542,-0.1605,-0.1589,-0.0952,0.0,0.0,0.0,0.0,0.0,-0.0324,-0.0062,0.0,0.0,0.0,0.0,0.0,0.0,0.0,-0.3684,-0.3993,-0.3833,-0.543,-0.6446,-0.6079,-0.7068,-0.7695,-0.7504,-0.7629,-0.7519,-0.7101,-0.8024,-0.874,-0.9023,-0.9609,-0.9657,-0.9087,-0.935,-0.873,-0.7176,-0.7273,-0.68,-0.5829,-0.4925,-0.4449,-0.4306,-0.3217,-0.2257,-0.1436,-0.1436,-0.0881,0.0,0.0,-0.0653,-0.1754,-0.3151,-0.4031,-0.4555,-0.4874,-0.4959,-0.4836,-0.402,0.0,0.0,0.0,0.0,0.0,0.0,0.0,0.0,0.0,0.0,0.0,0.0,0.0,0.0,0.0,0.0,0.0,0.0,0.0,0.0,0.0,0.0,0.0,0.0,-0.458,-0.4949,-0.4982,-0.4838,-0.4433,-0.3686,-0.3588,-0.4009,-0.5083,-0.424,-0.4055,-0.5129,-0.3063,-0.1815,-0.1815,0.0,0.0,0.0,0.0,0.0,0.0,0.0,0.0,0.0,0.0,0.0,-0.0041,-0.0979,-0.1411,-0.1461,-0.2358,-0.2238,-0.1414,-0.1419,-0.0862,-0.0074,-0.0855,-0.0691,-0.0105,-0.0881,-0.0649,-0.0124,0.0,0.0,0.0,0.0,0.0,0.0,0.0,-0.3485,-0.374,-0.387,-0.5102,-0.5746,-0.5137,-0.6146,-0.7035,-0.745,-0.6915,-0.6821,-0.7516,-0.8225,-0.8803,-0.9316,-0.98,-0.9861,-0.9417,-0.9475,-0.8892,-0.7673,-0.7434,-0.6476,-0.4928,-0.3895,-0.2971,-0.2166,-0.1063,-0.0479,-0.0312,-0.0312,-0.0179,0.0,0.0,-0.0133,-0.0475,-0.1458,-0.2399,-0.3339,-0.3983,-0.4632,-0.504,-0.3859,-0.3255,-0.2799,-0.1761,0.0,0.0,0.0,0.0,0.0,0.0,0.0,0.0,0.0,0.0,0.0,0.0,0.0,0.0,0.0,0.0,0.0,0.0,0.0,0.0,-0.4638,-0.506,-0.4664,-0.2744,-0.2461,-0.2734,-0.3515,-0.3588,-0.3708,-0.391,-0.3719,-0.3709,-0.3912,-0.2599,-0.1803,-0.1803,-0.0644,0.0,0.0,0.0,0.0,0.0,0.0,0.0,0.0,0.0,0.0,0.0,-0.0209,-0.0292,-0.0332,-0.0529,-0.0484,-0.0322,-0.0315,-0.0194,0.0,-0.0178,-0.0137,-0.0034,-0.0202,-0.0132,-0.0032,0.0,0.0,0.0,0.0,0.0,0.0,0.0,-0.3449,-0.3726,-0.4102,-0.5091,-0.5695,-0.5568,-0.6258,-0.6833,-0.7035,-0.6532,-0.6679,-0.7825,-0.8269,-0.8734,-0.9267,-0.9552,-0.947,-0.8956,-0.8668,-0.8015,-0.7061,-0.6349,-0.5545,-0.4649,-0.3084,-0.2093,-0.1553,-0.0473,0.0,0.0,0.0,0.0,0.0,0.0,0.0,-0.0088,-0.1064,-0.2109,-0.3103,-0.4044,-0.4572,-0.4795,-0.4057,-0.329,-0.25,-0.1693,-0.1358,-0.1258,0.0,0.0,0.0,0.0,0.0,0.0,0.0,0.0,0.0,0.0,0.0,0.0,0.0,0.0,-0.2047,0.0,0.0,-0.5195,-0.5422,-0.5036,-0.4264,-0.3066,-0.1739,-0.114,-0.1715,-0.178,-0.2051,-0.2649,-0.2151,-0.2052,-0.265,-0.1573,-0.0895,-0.0895,-0.0352,0.0,0.0,0.0,0.0,0.0,0.0,0.0,0.0,0.0,0.0,0.0,0.0,0.0,0.0,0.0,0.0,0.0,0.0,0.0,0.0,0.0,0.0,0.0,0.0,0.0,0.0,0.0,0.0,0.0,0.0,0.0,0.0,0.0,-0.3407,-0.3715,-0.4215,-0.4936,-0.5525,-0.5839,-0.618,-0.6401,-0.6435,-0.6393,-0.6861,-0.8014,-0.8284,-0.8657,-0.9271,-0.9285,-0.9008,-0.8428,-0.7758,-0.6958,-0.5983,-0.5118,-0.4491,-0.4066,-0.2367,-0.1479,-0.126,-0.0387,0.0,0.0,0.0,0.0,0.0,0.0,0.0,-0.0089,-0.0957,-0.2043,-0.3212,-0.408,-0.4457,-0.4447,-0.3869,-0.3085,-0.2232,-0.1649,-0.1399,-0.1288,-0.1138,-0.0937,0.0,0.0,0.0,0.0,0.0,0.0,0.0,0.0,0.0,-0.086,-0.1812,-0.2032,-0.2487,-0.3972,-0.5103,-0.5894,-0.6007,-0.4872,-0.3915,-0.3667,-0.1511,0.0,0.0,0.0,-0.0393,-0.138,-0.059,-0.0393,-0.138,-0.055,0.0,0.0,0.0,0.0,0.0,0.0,0.0,0.0,0.0,0.0,0.0,0.0,0.0,0.0,0.0,0.0,0.0,0.0,0.0,0.0,0.0,0.0,0.0,0.0,-0.0111,-0.0294,-0.0069,0.0,0.0,0.0,0.0,0.0,0.0,0.0,0.0,0.0,0.0,-0.3471,-0.3826,-0.4167,-0.4361,-0.4348,-0.4436,-0.4871,-0.5801,-0.652,-0.7251,-0.8041,-0.8284,-0.8777,-0.9593,-0.942,-0.9008,-0.8428,-0.7588,-0.6394,-0.4882,-0.4766,-0.375,-0.1959,-0.1726,-0.1111,-0.0168,-0.0043,0.0,0.0,0.0,0.0,0.0,0.0,0.0,0.0,-0.0128,-0.1388,-0.3116,-0.3233,-0.3876,-0.4395,-0.2527,-0.1822,-0.1537,-0.0526,-0.0258,-0.0339,-0.0338,0.0,-0.0729,-0.0752,-0.0714,0.0,-0.0472,-0.0442,-0.0386,0.0,0.0,-0.0244,-0.0261,-0.0269,-0.1053,-0.3568,-0.417,-0.4645,-0.5792,-0.4864,-0.3565,-0.2413,-0.0958,0.0,0.0,0.0,-0.0049,-0.0201,-0.0099,-0.0049,-0.0201,-0.0101,0.0,0.0,0.0,0.0,0.0,0.0,0.0,0.0,0.0,0.0,0.0,0.0,0.0,0.0,0.0,0.0,0.0,0.0,0.0,0.0,0.0,0.0,0.0,0.0,-0.0595,-0.1311,-0.0359,0.0,0.0,0.0,0.0,0.0,0.0,0.0,0.0,0.0,0.0,0.0,0.0,-0.4209,-0.4519,-0.4933,-0.5424,-0.5989,-0.6666,-0.6639,-0.7024,-0.8027,-0.797,-0.8342,-0.9379,-0.8666,-0.8174,-0.7995,-0.6896,-0.5749,-0.4586,-0.4033,-0.3008,-0.1568,-0.0964,-0.0412,0.0,0.0,0.0,0.0,0.0,0.0,0.0,0.0,0.0,-0.0085,-0.0697,-0.1548,-0.2426,-0.2278,-0.2527,0.0,-0.1893,-0.1177,-0.0601,-0.0219,-0.0093,-0.0123,-0.0272,-0.0383,0.0,-0.046,0.0,0.0,0.0,-0.0342,-0.0321,-0.0214,-0.0217,-0.0438,-0.1058,-0.118,-0.1729,-0.3666,-0.4642,-0.5329,0.0,-0.5525,-0.472,-0.3366,-0.2013,-0.0854,-0.0099,0.0,0.0,0.0,0.0,0.0,0.0,0.0,0.0,0.0,0.0,0.0,0.0,0.0,0.0,0.0,0.0,0.0,0.0,0.0,0.0,0.0,0.0,0.0,0.0,0.0,0.0,0.0,0.0,0.0,0.0,0.0,-0.0647,-0.1548,-0.0958,-0.0816,-0.0903,0.0,0.0,0.0,0.0,0.0,0.0,0.0,0.0,0.0,0.0,-0.4202,-0.4638,-0.5262,-0.6041,-0.6659,-0.6963,-0.6624,-0.68,-0.7713,-0.7674,-0.7937,-0.8656,-0.7823,-0.736,-0.7437,-0.6036,-0.4905,-0.4061,-0.315,-0.2155,-0.1126,-0.0356,0.0,0.0,0.0,0.0,0.0,0.0,0.0,0.0,0.0,0.0,-0.0081,-0.0885,-0.1241,-0.1254,-0.1323,-0.1391,-0.1326,-0.0875,-0.0242,0.0336,0.0119,0.003,-0.003,-0.024,-0.03,-0.0305,-0.0319,0.0,0.0,-0.0268,-0.0248,-0.022,-0.0223,-0.0227,-0.0465,-0.1298,-0.1461,-0.1866,-0.3181,-0.4237,-0.5135,-0.5882,-0.5356,-0.4672,-0.4066,-0.2503,-0.1094,-0.0098,0.0,0.0,0.0,0.0,0.0,0.0,0.0,0.0,0.0,0.0,0.0,0.0,0.0,0.0,0.0,0.0,0.0,0.0,0.0,0.0,0.0,0.0,0.0,0.0,0.0,0.0,0.0044,0.0351,0.0304,0.0043,0.0379,-0.0539,-0.1992,-0.1802,-0.1872,-0.1951,0.0,0.0,0.0,0.0,0.0,0.0,0.0,0.0,0.0,0.0,0.0,0.0,0.0,-0.5353,-0.5857,-0.5933,-0.6409,-0.6767,-0.6921,-0.7534,-0.7735,-0.7379,-0.7083,-0.6873,-0.6739,-0.4981,-0.3687,-0.2944,-0.2075,-0.1108,-0.0038,0.0,0.0,0.0,0.0,0.0,0.0,0.0,0.0,0.0,0.0,0.0,0.0,-0.0175,0.0131,0.0496,-0.0401,-0.0799,-0.0671,0.0952,0.14,0.1189,0.0808,0.0354,0.0,0.0,-0.0157,-0.0322,0.0,0.0,-0.0268,-0.0201,-0.0086,0.0,0.0,0.0,0.0,-0.005,-0.005,-0.049,-0.1811,-0.2104,-0.2983,-0.5572,-0.3823,-0.2564,-0.3815,-0.1734,-0.0049,0.0,0.0,0.0,0.0,0.0,0.0,0.0,0.0,0.0,0.0,0.0,0.0,0.0,0.0,0.0,0.0,0.0,0.0,0.0,0.0,0.0,0.0,0.0,0.0,0.0,0.0,0.0,0.009,0.1253,0.1074,0.0135,0.1296,-0.0217,-0.3044,-0.2889,-0.2938,-0.2926,0.0,0.0,0.0,0.0,0.0,0.0,0.0,0.0,0.0,0.0,0.0,0.0,0.0,0.0,0.0,0.0,-0.5737,-0.5971,-0.6289,-0.6255,-0.6312,-0.6489,-0.5602,-0.5093,-0.5039,-0.3869,-0.2794,-0.1847,-0.1675,-0.104,0.0,0.0,0.0,0.0,0.0,0.0,0.0,0.0,0.0,0.0,0.0,0.0253,0.0591,0.0652,0.1082,0.172,0.0,0.1421,0.1001,0.1634,0.1607,0.1237,0.0937,0.0504,0.0087,-0.0125,-0.0162,-0.0135,-0.029,0.0,-0.0084,-0.0088,-0.0046,0.0,0.0,0.0,0.0,0.0,-0.0096,-0.0328,-0.0774,-0.1584,-0.2508,-0.342,-0.3443,-0.3176,-0.2756,-0.1902,-0.0989,-0.0097,0.0,0.0,0.0,0.0,0.0,0.0,0.0,0.0,0.0,0.0,0.0,0.0,0.0,0.0,0.0,0.0,0.0,0.0,0.0,0.0,0.0,0.0,0.0,0.0,0.0,0.0,0.0046,0.0458,0.0366,0.0046,0.0444,-0.0956,-0.3246,-0.3173,-0.414,-0.5209,0.0,0.0,0.0,0.0,0.0,0.0,0.0,0.0,0.0,0.0,0.0,0.0,0.0,0.0,0.0,0.0,0.0,-0.5275,-0.5497,-0.5433,-0.5397,-0.541,-0.4702,-0.4209,-0.4036,-0.3113,-0.2345,-0.1777,-0.1399,-0.088,-0.0257,-0.0063,0.0,0.0,0.0,0.0,0.0,0.0141,0.0213,0.0285,0.0513,0.0928,0.1455,0.1672,0.225,0.0,0.3564,0.3391,0.2892,0.2697,0.2276,0.1729,0.1356,0.0661,0.0,-0.0161,-0.0137,-0.0109,-0.0158,-0.0085,0.0,0.0,0.0,0.0,0.0,0.0,0.0,0.0,-0.0137,-0.0265,-0.021,-0.0953,-0.1722,-0.2237,-0.2533,-0.2574,-0.2156,-0.1727,-0.1079,-0.0097,0.0,0.0,0.0,0.0,0.0,0.0,0.0,0.0,0.0,0.0,0.0,0.0,0.0,0.0,0.0,0.0,-0.0252,-0.0706,-0.0701,-0.0739,-0.0721,-0.0717,-0.047,0.0,0.0,0.0,0.0047,0.0467,0.0374,0.0047,0.0454,-0.0711,-0.2755,-0.3148,-0.4202,-0.5188,0.0,0.0,0.0,0.0,0.0,0.0,0.0,0.0,0.0,0.0,0.0,0.0,0.0,0.0,0.0,0.0,0.0,0.0,-0.4546,-0.5011,-0.4936,-0.4148,-0.4278,-0.4114,-0.3586,-0.2615,-0.2244,-0.2474,-0.1122,-0.0522,-0.0643,-0.0192,0.0028,0.0029,0.0029,0.006,0.0092,0.0429,0.0622,0.0827,0.1479,0.2037,0.2501,0.285,0.3605,0.4559,0.4834,0.4953,0.0,0.0,0.0,0.0,0.0,0.0787,-0.0237,-0.0068,-0.0147,-0.0239,-0.0042,0.0,0.0,0.0,0.0,0.0,0.0,0.0,0.0,0.0,-0.0086,-0.0164,0.0,0.0,-0.0652,-0.1973,-0.1184,-0.0802,-0.2032,-0.1147,-0.0289,0.0,0.0,0.0,0.0,0.0,0.0,0.0,0.0,0.0,0.0,0.0,0.0,0.0,0.0,0.0,0.0,0.0,-0.0656,-0.2012,-0.1976,-0.2007,-0.2004,-0.2018,-0.1287,0.0,0.0,0.0,0.0095,0.124,0.1049,0.0095,0.1238,0.0372,-0.1748,-0.2822,-0.3185,-0.3157,0.0,0.0,0.0,0.0,0.0,0.0,0.0,0.0,0.0,0.0,0.0,0.0,0.0,0.0,0.0,0.0,0.0,0.0,-0.3651,-0.366,-0.3507,-0.3095,-0.2659,-0.2281,-0.1992,-0.1296,-0.0954,-0.0971,-0.0309,0.0,-0.0026,0.0258,0.0413,0.0526,0.0622,0.0769,0.0998,0.1217,0.1443,0.1721,0.2243,0.2813,0.3415,0.3807,0.4781,0.5927,0.5673,0.0,0.0,0.0,0.0,0.0,0.0,0.0363,0.007,0.0,-0.0041,-0.0086,0.0,0.0,0.0,0.0,0.0,0.0,0.0,0.0,0.0044,0.0248,0.0,-0.0182,0.0,0.0,0.0,-0.0739,-0.0433,0.0,-0.0542,-0.0302,0.0,0.0,0.0,0.0,0.0,0.0,0.0,0.0,0.0,0.0,0.0,0.0,0.0,0.0,0.0,0.0,0.0,0.0,-0.0656,-0.2013,-0.2003,-0.1983,-0.2005,-0.1995,-0.1254,0.0,0.0,0.0,0.0,0.0341,0.0292,0.0049,0.0335,-0.0469,-0.1787,-0.206,-0.2727,-0.3329,0.0,0.0,0.0,0.0,0.0,0.0,0.0,0.0,0.0,0.0,0.0,0.0,0.0,0.0,0.0,0.0,0.0,0.0,0.0,-0.2835,-0.2712,-0.254,-0.2159,-0.1792,-0.1448,-0.1059,-0.0801,-0.0719,-0.0212,0.0023,0.0023,0.0344,0.0598,0.0796,0.0933,0.1122,0.1362,0.1802,0.2139,0.0,0.0,0.3952,0.4673,0.5124,0.6055,0.7041,0.0,0.0,0.0,0.0,0.0,0.125,0.0446,0.011,0.0,0.0,0.0,-0.0092,-0.0048,0.0,0.0,0.0,0.0,0.0048,0.0189,0.0178,0.0248,0.0609,0.039,0.0,0.0,0.0,0.0,0.0,0.0,0.0,-0.0142,-0.0148,-0.0151,0.0,0.0,0.0,0.0,0.0,0.0,0.0,0.0,0.0,0.0,0.0,0.0,0.0,0.0,0.0,0.0,0.0,-0.0656,-0.2013,-0.2614,-0.255,-0.203,-0.2623,-0.1822,0.0,0.0,0.0,0.0,0.0,0.0,0.0,0.0,-0.0435,-0.1091,-0.1612,-0.1884,-0.2009,0.0,0.0,0.0,0.0,0.0,0.0,0.0,0.0,0.0,0.0,0.0,0.0,0.0,0.0,0.0,0.0,0.0,0.0,0.0,0.0,0.0,-0.2125,-0.2122,-0.1907,-0.1381,-0.1244,-0.1105,-0.0955,-0.0364,-0.0063,-0.0042,0.0407,0.0757,0.102,0.1186,0.1383,0.1655,0.2328,0.2775,0.3121,0.4131,0.5043,0.5859,0.0,0.0,0.0,0.0,0.0,0.0,0.0,0.1999,0.0926,0.034,-0.0041,-0.0221,-0.0045,-0.014,-0.024,-0.0049,0.0,0.0,0.0,0.0098,0.0235,0.046,0.0554,0.0658,0.0985,0.0,0.0681,0.0487,0.034,0.0119,-0.0202,0.0,-0.031,-0.0267,-0.0327,-0.0244,-0.0052,0.0,0.0,0.0,0.0,0.0,0.0,0.0,0.0,0.0,0.0,0.0,0.0,0.0,0.0,0.0,0.0,-0.0656,-0.2013,-0.3165,-0.3115,-0.2063,-0.3215,-0.2363,0.0,0.0,0.0,0.0,0.0,0.0,0.0,0.0,0.0,-0.0147,-0.1176,-0.0922,-0.0144,0.0,0.0,0.0,0.0,0.0,0.0,0.0,0.0,0.0,0.0,-0.328,-0.2808,0.0,0.0,0.0,0.0,0.0,0.0,0.0,0.0,0.0,0.0,-0.1245,-0.1118,-0.0673,-0.0545,-0.0387,-0.0192,0.0296,0.06,0.0708,0.1077,0.1387,0.1663,0.1947,0.233,0.2738,0.3095,0.3605,0.424,0.4654,0.5191,0.5817,0.0,0.0,0.0,0.0,0.0,0.0,0.0,0.1989,0.0478,0.0121,0.0,-0.0046,0.0,-0.0049,-0.0049,0.0,0.0,0.0,0.0,0.0526,0.0941,0.0518,0.1005,0.0,0.0,0.0,0.0865,0.0817,0.0567,0.0,0.0,0.0,0.0,0.0,0.0,-0.005,0.0,0.0,0.0,0.0,0.0,0.0,0.0,0.0,0.0,0.0,0.0,0.0,0.0,0.0,0.0,0.0,0.0,-0.0656,-0.2013,-0.2213,-0.2213,-0.2013,-0.2264,-0.1511,0.0,0.0,0.0,0.0,0.0,0.0,0.0,0.0,0.0,-0.0049,-0.0245,-0.0196,-0.0049,0.0,0.0,0.0,0.0,0.0,0.0,0.0,-0.3266,-0.3543,-0.3678,-0.3316,-0.2924,-0.2583,-0.2035,-0.1604,0.0,0.0,0.0,0.0,0.0,0.0,0.0,0.0,0.0,0.0,-0.0057,0.0,0.0,0.0,0.0947,0.1112,0.0,0.0,0.0,0.2216,0.2637,0.3024,0.3468,0.3992,0.4543,0.5015,0.5528,0.0,0.0,0.0,0.0,0.0,0.0,0.0,0.0,0.2917,0.1259,0.0319,0.0,0.0,0.0,0.0,0.0,0.0,0.0,0.0,0.0,0.0605,0.1114,0.078,0.0,0.0,0.0,0.1593,0.1379,0.106,0.0,0.0,0.0,0.0,0.0,0.0,0.0,0.0,0.0,0.0,0.0,0.0,0.0,0.0,0.0,0.0,0.0,0.0,0.0,0.0,0.0,0.0,0.0,0.0,0.0,-0.0303,-0.0958,-0.1661,-0.1611,-0.1008,-0.1661,-0.126,0.0,0.0,0.0,0.0,0.0,0.0,0.0,0.0,0.0,0.0,0.0,0.0,0.0,0.0,0.0,0.0,0.0,0.0,0.0,0.0,-0.3183,-0.3398,-0.358,-0.3364,-0.3018,-0.2595,-0.1846,-0.1195,0.0,0.0,0.0,0.0,0.0,0.0,0.0,0.0,0.0,0.0,0.0,0.0,0.0,0.0,0.0,0.0,0.0,0.0,0.0,0.0,0.0,0.0,0.3652,0.4145,0.0,0.0,0.0,0.0,0.0,0.0,0.0,0.0,0.0,0.0,0.0,0.3876,0.2431,0.0961,0.0374,0.0272,0.0232,0.0143,0.0049,0.0,0.0,0.0,0.0,0.0728,0.132,0.107,0.1701,0.0,0.0,0.2082,0.1875,0.1345,0.0,0.0,0.0,0.0,0.0,0.0,0.0,0.0,0.0,0.0,0.0,0.0,0.0,0.0,0.0,0.0,0.0,0.0,0.0,0.0,0.0,0.0,0.0,0.0,0.0,0.0,0.0,-0.1058,-0.1008,-0.0051,-0.1109,-0.1008,0.0,0.0,0.0,0.0,0.0,0.0,0.0,0.0,0.0,0.0,0.0,0.0,0.0,0.0,0.0,0.0,0.0,0.0,0.0,0.0,-0.288,-0.3328,-0.3886,-0.3458,-0.2932,-0.2477,-0.1703,-0.0966,0.0,0.0,0.0,0.0,0.0,0.0,0.0,0.0,0.0,0.0,0.0,0.0,0.0,0.0,0.0,0.0,0.0,0.0,0.0,0.0,0.0,0.0,0.0,0.0,0.0,0.0,0.0,0.0,0.0,0.0,0.0,0.0,0.0,0.0,0.0,0.0,0.3488,0.2347,0.1656,0.1203,0.0909,0.0,0.0,0.0049,0.0,0.0,0.0,0.1182,0.2142,0.1303,0.0,0.0,0.2377,0.2189,0.2099,0.179,0.1734,0.163,0.0,0.0,0.1288,0.0,0.0,0.0,0.0,0.0,0.0,0.0,0.0,0.0,0.0,0.0,0.0,0.0,0.0,0.0,0.0,0.0,0.0,0.0,0.0,0.0,0.0,-0.0101,-0.0101,0.0,-0.0151,-0.0101,0.0,0.0,0.0,0.0,0.0,0.0,0.0,0.0,0.0,0.0,0.0,0.0,0.0,0.0,0.0,0.0,0.0,0.0,0.0,-0.2129,-0.2527,-0.2872,-0.3225,-0.318,-0.2793,-0.2012,-0.1457,-0.0854,-0.0139,0.0,0.0,0.0,0.0,0.0,0.0,0.0,0.0,0.0,0.0,0.0,0.0,0.0,0.0,0.0,0.0,0.0,0.0,0.0,0.0,0.0,0.0,0.0,0.0,0.0,0.0,0.0,0.0,0.0,0.0,0.0,0.0,0.0,0.0,0.0,0.0,0.3939,0.3282,0.0,0.0,0.0801,0.045,0.0094,0.0,0.0,0.0,0.1061,0.1889,0.125,0.0,0.0,0.2497,0.238,0.2296,0.1987,0.1987,0.1989,0.1874,0.0,0.0,0.0,0.0,0.0,0.0,0.0,0.0,0.0,0.0,0.0,0.0,0.0,0.0,0.0,0.0,0.0,0.0,0.0,0.0,0.0,0.0,0.0,0.0,0.0,0.0,0.0,0.0,0.0,0.0,0.0,0.0,0.0,0.0,0.0,0.0,0.0,0.0,0.0,0.0,0.0504,0.1109,0.0,0.0,0.0,0.0,0.0,-0.1076,-0.2021,-0.2318,-0.2525,-0.2747,-0.2751,-0.2402,-0.1522,-0.0983,-0.0423,0.0239,0.027,0.0,0.0,0.0,0.0,0.0,0.0,0.0,0.0,0.0,0.1229,0.1249,0.1178,0.0,0.0,0.0,0.0,0.0,0.0,0.0,0.0,0.0,0.0,0.0,0.0,0.0,0.0,0.0,0.0,0.0,0.0,0.0,0.0,0.0,0.0,0.0,0.0,0.0,0.0,0.0,0.1381,0.1128,0.0747,0.0511,0.0481,0.0794,0.1312,0.1745,0.0,0.0,0.288,0.2605,0.2549,0.2493,0.224,0.2296,0.235,0.237,0.0,0.2626,0.0,0.0,0.0,0.0,0.0,0.0,0.0,0.0,0.0,0.0,0.0,0.0,0.0,0.0,0.0,0.0,0.0,0.0,0.0,0.0,0.0,0.0,0.0,0.0,0.0,0.0,0.0,0.0,0.0,0.0,0.0,0.0,0.0,0.0,0.0,0.0,0.0,0.0,0.0605,0.126,0.0,0.0,0.0,0.0,0.0,0.0,-0.2098,-0.2306,-0.2397,-0.2668,-0.2236,-0.1678,-0.1078,-0.0235,0.0478,0.0943,0.0623,0.0,0.0,0.0,0.0,0.0,0.0,0.0,0.0,0.0,0.1241,0.1094,0.1031,0.1065,0.1214,0.1616,0.0,0.0,0.0,0.0,0.0,0.0,0.0,0.0,0.0,0.0,0.0,0.0,0.0,0.0,0.0,0.0,0.0,0.0,0.0,0.0,0.0,0.0,0.0,0.0,0.2479,0.2446,0.2231,0.1722,0.1522,0.2601,0.235,0.1952,0.0,0.0,0.3021,0.2747,0.2691,0.2691,0.2691,0.2691,0.2721,0.2784,0.2897,0.0,0.0,0.0,0.0,0.0,0.0,0.0,0.0,0.0,0.0,0.0,0.0,0.0,0.0,0.0,0.0,0.0,0.0,0.0,0.0,0.0,0.0,0.0,0.0,0.0,0.0,0.0,0.0,0.0,0.0,0.0,0.0,0.0,0.0,0.0,0.0,0.0,0.0,0.0,0.0,0.0,0.0,0.0,0.0,0.0,0.0,0.0,0.0,-0.1689,-0.1957,-0.2133,-0.1731,-0.1297,-0.0962,-0.0159,0.0527,0.0901,0.0893,0.0,0.0,0.0,0.0,0.0,0.0,0.0,0.0,0.0,0.1367,0.1228,0.1086,0.1234,0.1685,0.1853,0.2249,0.2818,0.0,0.0,0.0,0.0,0.0,0.0,0.0,0.0,0.0,0.0,0.0,0.0,0.0,0.0,0.0,0.0,0.0,0.0,0.0,0.0,0.0,0.3675,0.0,0.0,0.1986,0.162,0.1413,0.1904,0.196,0.1987,0.2165,0.0,0.28,0.2719,0.2691,0.2691,0.2691,0.2775,0.2856,0.2919,0.306,0.0,0.0,0.0,0.0,0.0,0.0,0.0,0.0,0.0,0.0,0.0,0.0,0.0,0.0,0.0,0.0,0.0,0.0,0.0,0.0,0.0,0.0,0.0,0.0,0.0,0.0,0.0,0.0,0.0,0.0,0.0,0.0,0.0,0.0,0.0,0.0,0.0,0.0,0.0,0.0555,0.136,0.0,0.0,0.0,0.0,0.0,0.0,0.0,-0.1173,-0.1324,-0.1227,-0.0906,-0.0512,-0.0113,0.0508,0.1015,0.1329,0.1342,0.0,0.0,0.0,0.0,0.0,0.0,0.0,0.0,0.1742,0.1535,0.1297,0.1116,0.1278,0.1726,0.2014,0.2371,0.2782,0.3182,0.0,0.0,0.0,0.0,0.0,0.0,0.0,0.6245,0.0,0.0,0.0,0.0,0.0,0.0,0.0,0.0,0.0,0.0,0.0,0.0,0.0,0.3565,0.0,0.0,0.2233,0.1976,0.2533,0.2351,0.0,0.0,0.0,0.2691,0.2691,0.2691,0.2691,0.2691,0.2635,0.2652,0.2883,0.2873,0.0,0.0,0.0,0.0,0.0,0.0,0.0,0.0,0.0,0.0,0.0,0.0,0.0,0.0,0.0,0.0,0.0,0.0,0.0,0.0,0.0,0.0,0.0,0.0,0.0,0.0,0.0,0.0,0.0,0.0,0.0,0.0,0.0,0.0,0.0,0.0,0.0,0.0,0.0,0.0504,0.131,0.0,0.0,0.0,0.0,0.0,0.0,0.0,-0.075,-0.0588,-0.0128,0.0133,0.0538,0.1279,0.1581,0.1841,0.2099,0.0,0.0,0.0,0.0,0.0,0.0,0.0,0.0,0.1997,0.1911,0.1694,0.1303,0.1192,0.1262,0.1491,0.2142,0.2436,0.2495,0.3244,0.3617,0.3684,0.4081,0.4887,0.5843,0.5286,0.5428,0.0,0.0,0.0,0.0,0.0,0.0,0.0,0.0,0.0,0.0,0.0,0.0,0.0,0.0,0.0,0.0,0.0,0.0,0.0,0.0,0.0,0.0,0.0,0.0,0.0,0.2719,0.2719,0.2693,0.2727,0.2361,0.2217,0.2741,0.2556,0.0,0.0,0.0,0.0,0.0,0.0,0.0,0.0,0.0,0.0106,0.0,0.0,0.0,0.0,0.0,0.0,0.0,0.0,0.0,0.0,0.0,0.0,0.0,0.0,0.0,0.0,0.0,0.0,0.0,0.0,0.0,0.0,0.0,0.0,0.0,0.0,0.0,0.0,0.0,0.0,0.0202,0.0,0.0,0.0,0.0,0.0,0.0,0.0,0.0,0.0,0.0,0.0631,0.1146,0.1833,0.1974,0.2113,0.0,0.0,0.0,0.0,0.0,0.0,0.0,0.0,0.0,0.1778,0.1759,0.1603,0.1295,0.1483,0.179,0.2257,0.2602,0.2901,0.3104,0.3337,0.3742,0.4237,0.4638,0.5169,0.574,0.5646,0.5679,0.0,0.0,0.0,0.0,0.6125,0.6197,0.0,0.0,0.0,0.0,0.0,0.0,0.0,0.0,0.4845,0.4808,0.4521,0.0,0.3335,0.3416,0.3053,0.0,0.0,0.0,0.0,0.0,0.0,0.0,0.0,0.2762,0.2696,0.2972,0.3007,0.0,0.0,0.0,0.0,0.0,0.0,0.0,0.0,0.0,0.1233,0.0104,0.0,0.0,0.0,0.0,0.0,0.0,0.0,0.0,0.0,0.0,0.0,0.0,0.0,0.0,0.0,0.0,0.0,0.0,0.0,0.0,0.0,0.0,0.0,0.0,0.0,0.0,0.0,0.0,0.0,0.0202,0.0,0.0,0.0,0.0,0.0,0.0,0.0,0.0,0.0,0.0,0.0,0.0,0.0,0.0,0.0,0.0,0.0,0.0,0.0,0.0,0.0,0.0,0.0,0.2398,0.1809,0.1845,0.1771,0.153,0.1706,0.2013,0.2415,0.2735,0.3004,0.3215,0.3505,0.3983,0.4581,0.458,0.4969,0.5543,0.5302,0.0,0.0,0.0,0.0,0.0,0.5744,0.5915,0.0,0.622,0.6331,0.6307,0.0,0.0,0.0,0.0,0.5069,0.5076,0.4816,0.415,0.3531,0.3434,0.2993,0.2549,0.0,0.0,0.0,0.0,0.0,0.0,0.0,0.0,0.0,0.0,0.2586,0.0,0.0,0.0,0.0,0.0,0.0,0.0,0.0,0.0,0.1529,0.0103,0.0,0.0,0.0,0.0,0.0,0.0,0.0,0.0,0.0,0.0,0.0,0.0,0.0,0.0,0.0,0.0,0.0,0.0,0.0,0.0353,0.0857,0.0252,0.0353,0.0907,0.0907,0.0555,0.005,0.0706,0.0504,0.0202,0.0,0.0,0.0,0.0,0.0,0.0,0.0,0.0,0.0,0.0,0.0,0.0,0.0,0.0,0.0,0.0,0.0,0.0,0.0,0.0,0.0,0.0,0.0,0.2405,0.2068,0.2158,0.2131,0.196,0.2054,0.2236,0.2483,0.289,0.3129,0.3245,0.3647,0.4158,0.4726,0.4323,0.463,0.5338,0.482,0.0,0.0,0.0,0.0,0.0,0.0,0.0,0.0,0.6211,0.6315,0.6301,0.625,0.0,0.0,0.0,0.0,0.0,0.5081,0.4401,0.3767,0.3792,0.3019,0.2268,0.2212,0.0,0.0,0.0,0.0,0.0,0.0,0.0,0.0,0.0,0.0,0.0,0.0,0.0,0.0,0.0,0.0,0.0,0.0,0.2909,0.1695,0.0101,0.0,0.0,0.0,0.0,0.0,0.0,0.0,0.0,0.0,0.0,0.0,0.0,0.0,0.0,0.0,0.0,0.0101,0.0303,0.0,0.0,0.2213,0.1058,0.126,0.2314,0.2314,0.1511,0.0454,0.1561,0.1159,0.0202,0.0,0.0,0.0,0.0,0.0,0.0,0.0,0.0,0.0,0.0,0.0,0.0,0.0,0.0,0.0,0.0,0.0,0.0,0.0,0.0,0.0,0.2747,0.28,0.2816,0.2746,0.2709,0.2676,0.2648,0.2946,0.3146,0.3251,0.3647,0.3844,0.3853,0.353,0.3827,0.4532,0.4415,0.472,0.5293,0.516,0.0,0.0,0.0,0.0,0.0,0.0,0.0,0.0,0.6287,0.6346,0.6301,0.6361,0.0,0.0,0.0,0.0,0.0,0.563,0.5065,0.433,0.3902,0.3216,0.2549,0.2268,0.0,0.0,0.0,0.0,0.0,0.0,0.0,0.0,0.0,0.0,0.0,0.0,0.0,0.0,0.0,0.0,0.0,0.0,0.3494,0.277,0.0202,0.0,0.0,0.0,0.0,0.0,0.0,0.0,0.0,0.0,0.0,0.0,0.0,0.0,0.0,0.0,0.0,0.0605,0.1711,0.0,0.2464,0.3665,0.3465,0.3515,0.3715,0.3715,0.2864,0.1711,0.1913,0.1159,0.0353,0.0,0.0,0.0,0.0,0.0,0.0,0.0,0.0,0.0,0.0,0.0,0.0,0.0,0.0,0.0,0.0,0.0,0.0,0.0,0.0,0.0,0.3127,0.3216,0.3138,0.2857,0.2918,0.3048,0.3224,0.3534,0.3713,0.3772,0.3893,0.398,0.4041,0.3876,0.4071,0.4548,0.4522,0.4794,0.5239,0.0,0.0,0.0,0.0,0.0,0.0,0.0,0.0,0.0,0.0,0.6523,0.6662,0.651,0.0,0.0,0.0,0.0,0.0,0.5635,0.5164,0.4568,0.4202,0.3207,0.2258,0.2022,0.0,0.0,0.0,0.0,0.0,0.0,0.0,0.0,0.0,0.0,0.0,0.0,0.0,0.0,0.0,0.0,0.6352,0.3674,0.3827,0.2943,0.0202,0.0,0.0,0.0,0.0,0.0,0.0,0.0,0.0,0.0,0.0,0.0,0.0,0.0,0.0,0.0,0.0,0.0353,0.0958,0.0,0.2764,0.4016,0.4016,0.4418,0.5072,0.5072,0.3819,0.1913,0.1209,0.0504,0.0404,0.0,0.0,0.0,0.0,0.0,0.0,0.0,0.0,0.0,0.0,0.0,0.0,0.0,0.0,0.0,0.0,0.0,0.0,0.0,0.0,0.3776,0.3437,0.3577,0.347,0.3027,0.321,0.3444,0.3722,0.3921,0.4087,0.4186,0.4017,0.407,0.4269,0.4067,0.4189,0.4554,0.4436,0.4644,0.5027,0.0,0.0,0.0,0.0,0.0,0.0,0.0,0.0,0.0,0.0,0.0,0.0,0.0,0.0,0.0,0.589,0.5766,0.569,0.5583,0.5224,0.4775,0.4557,0.0,0.2171,0.1858,0.1371,0.0,0.0,0.0,0.0,0.0,0.0,0.0,0.0,0.0,0.0,0.0,0.0,0.5758,0.7155,0.7134,0.6232,0.421,0.4016,0.2864,0.0202,0.0,0.0,0.0,0.0,0.0,0.0,0.0,0.0,0.0,0.0,0.0,0.0,0.0,0.0,0.0,0.0,0.0151,0.0555,0.1862,0.3215,0.4518,0.4818,0.5522,0.6431,0.6129,0.4372,0.1862,0.0504,0.0,0.0353,0.0,0.0,0.0,0.0,0.0,0.0,0.0,0.0,0.0,0.0,0.0,0.0,0.0,0.0,0.0,0.0,0.0,0.0,0.0,0.0,0.4028,0.351,0.3744,0.3804,0.3639,0.383,0.3972,0.4064,0.4084,0.4221,0.4454,0.4202,0.4361,0.4788,0.3743,0.3698,0.4382,0.3946,0.407,0.4558,0.4596,0.0,0.0,0.0,0.0,0.0,0.0,0.0,0.0,0.0,0.0,0.0,0.0,0.0,0.62,0.6163,0.5954,0.5706,0.5766,0.5534,0.5173,0.4853,0.3892,0.0,0.2,0.1526,0.0,0.0955,0.0,0.0,0.0,0.0,0.0,0.0,0.0,0.0,0.0,0.0,0.7799,0.7922,0.7925,0.6869,0.4266,0.4016,0.2864,0.0202,0.0,0.0,0.0,0.0,0.0,0.0,0.0,0.0,0.0,0.0,0.0,0.0,0.0,0.0,0.0,0.0,0.0656,0.1913,0.3265,0.4618,0.5929,0.7182,0.7786,0.7739,0.6481,0.4372,0.1862,0.0504,0.0,0.0202,0.0,0.0,0.0,0.0,0.0,0.0,0.0,0.0,0.0,0.0,0.0,0.0,0.0,0.0,0.0,0.0,0.0,0.0,0.0,0.4508,0.4441,0.3896,0.3966,0.3917,0.3698,0.3943,0.4158,0.4359,0.4506,0.4614,0.4606,0.4268,0.4044,0.3958,0.3551,0.3587,0.3895,0.3846,0.401,0.4323,0.4476,0.4682,0.0,0.0,0.0,0.0,0.0,0.0,0.0,0.0,0.7149,0.7121,0.7128,0.6937,0.6626,0.6307,0.6062,0.5847,0.5672,0.5735,0.5659,0.4814,0.4625,0.0,0.0,0.1952,0.1159,0.1566,0.2192,0.0,0.0,0.0,0.0,0.0,0.0,0.0,0.0,0.0,0.7988,0.7988,0.7988,0.693,0.4266,0.4016,0.2864,0.0202,0.0,0.0,0.0,0.0,0.0,0.0,0.0,0.0,0.0,0.0802,0.0802,0.0,0.0,0.0,0.0,0.0,0.0252,0.0857,0.3065,0.4268,0.492,0.708,0.7988,0.7789,0.5622,0.3616,0.1862,0.0504,0.0,0.0202,0.0,0.0,0.0,0.0,0.0,0.0,0.0,0.0,0.0,0.0,0.0,0.0,0.0,0.0,0.0,0.0,0.0,0.0,0.4614,0.4744,0.464,0.4129,0.4125,0.3985,0.3673,0.3994,0.429,0.4527,0.4815,0.483,0.4561,0.4274,0.3979,0.3711,0.358,0.3564,0.3641,0.3684,0.3814,0.3986,0.4121,0.4387,0.0,0.0,0.0,0.0,0.0,0.0,0.0,0.0,0.7335,0.7414,0.7334,0.7147,0.688,0.6398,0.6132,0.5943,0.5776,0.5937,0.5935,0.0,0.0,0.0,0.4375,0.2961,0.1918,0.2327,0.2776,0.0,0.0,0.0,0.0,0.0,0.0,0.0,0.0,0.0,0.7887,0.7978,0.7948,0.6883,0.4264,0.4016,0.2908,0.02,0.0,0.0,0.0,0.0347,0.0397,0.0,0.0347,0.0596,0.0637,0.1488,0.1493,0.0643,0.0598,0.0351,0.0,0.0,0.0,0.015,0.2773,0.3961,0.4182,0.6869,0.7697,0.7185,0.537,0.3817,0.2514,0.1611,0.126,0.141,0.0,0.0,0.0,0.0,0.0,0.0,0.0,0.0,0.0,0.0,0.0,0.0,0.0,0.0,0.0,0.0,0.0,0.0,0.5131,0.4912,0.4597,0.4129,0.4159,0.4009,0.3614,0.408,0.4408,0.4596,0.4944,0.4818,0.4312,0.4236,0.4271,0.4376,0.3833,0.3643,0.3676,0.3409,0.3374,0.3508,0.3504,0.3902,0.4516,0.0,0.0,0.0,0.0,0.0,0.0,0.0,0.7354,0.7324,0.7464,0.7217,0.6829,0.6496,0.6166,0.5954,0.6141,0.6157,0.0,0.0,0.0,0.0,0.5419,0.4583,0.3675,0.3195,0.0,0.441,0.5068,0.0,0.0,0.5462,0.6378,0.7203,0.0,0.0,0.7709,0.7951,0.7899,0.6781,0.4255,0.4014,0.2891,0.0197,0.0,0.0,0.0,0.1164,0.1263,0.0048,0.1165,0.186,0.2004,0.1909,0.1878,0.2011,0.1877,0.1188,0.0,0.0,0.0,0.0147,0.2683,0.3888,0.4203,0.6737,0.711,0.5979,0.5979,0.5172,0.4016,0.4016,0.4016,0.4016,0.0,0.0,0.0,0.0,0.0,0.0,0.0,0.0,0.0,0.0,0.0,0.0,0.0,0.0,0.0,0.0,0.0,0.0,0.5336,0.4992,0.4758,0.4666,0.423,0.4093,0.4289,0.4945,0.5173,0.4944,0.5009,0.4901,0.4644,0.424,0.3905,0.3626,0.3507,0.3493,0.3542,0.3324,0.3387,0.3648,0.385,0.3958,0.4103,0.0,0.0,0.0,0.0,0.0,0.0,0.0,0.0,0.0,0.7423,0.7377,0.7314,0.6602,0.6338,0.6256,0.6197,0.6228,0.0,0.0,0.0,0.0,0.0,0.4582,0.0,0.0,0.0,0.4297,0.5344,0.0,0.0,0.556,0.6461,0.7166,0.7411,0.7533,0.7631,0.7719,0.7689,0.6667,0.4101,0.3862,0.2796,0.0192,0.0,0.0,0.0,0.1141,0.1618,0.1259,0.1616,0.2239,0.3095,0.3188,0.2769,0.1849,0.2769,0.2083,0.0,0.0,0.0,0.0096,0.1812,0.305,0.4074,0.6699,0.711,0.5979,0.5979,0.5172,0.4016,0.4016,0.4016,0.4016,0.0,0.0,0.0,0.0,0.0,0.0,0.0,0.0,0.0,0.0,0.0,0.0,0.0,0.0,0.0,0.0,0.0,0.0,0.0,0.5049,0.4864,0.4899,0.4339,0.4264,0.4793,0.5341,0.5593,0.5534,0.5265,0.4944,0.4626,0.4152,0.3709,0.3351,0.3489,0.3503,0.3423,0.3353,0.3404,0.3563,0.3926,0.4081,0.4212,0.0,0.0,0.0,0.0,0.0,0.0,0.0,0.0,0.0,0.7383,0.7294,0.7287,0.6562,0.637,0.6307,0.6034,0.0,0.0,0.0,0.0,0.0,0.0,0.0,0.0,0.0,0.0,0.5103,0.5933,0.5844,0.0,0.6102,0.6692,0.7149,0.735,0.7397,0.0,0.7587,0.7546,0.654,0.4031,0.3798,0.2745,0.0188,0.0,0.0188,0.0686,0.1859,0.2281,0.1826,0.2278,0.2893,0.3684,0.3608,0.3252,0.2614,0.3299,0.2345,0.0,0.0,0.0,0.0094,0.1411,0.2972,0.4701,0.6337,0.6882,0.67,0.6652,0.6141,0.5454,0.5494,0.5506,0.5513,0.0,0.0,0.0,0.0,0.0,0.0,0.0,0.0,0.0,0.0,0.0,0.0,0.0,0.0,0.0,0.0,0.0,0.0,0.0,0.0,0.4947,0.4953,0.4555,0.4604,0.518,0.5416,0.5749,0.6193,0.5567,0.4986,0.4456,0.4005,0.3654,0.3426,0.3668,0.3622,0.3347,0.3441,0.3425,0.3379,0.3822,0.4232,0.4622,0.5145,0.0,0.0,0.0,0.0,0.0,0.0,0.0,0.0,0.7335,0.7097,0.6926,0.6445,0.6313,0.6207,0.5812,0.0,0.0,0.0,0.0,0.0,0.0,0.0,0.0,0.0,0.0,0.6422,0.6651,0.6586,0.6583,0.6861,0.6974,0.7105,0.7288,0.719,0.7166,0.7506,0.7404,0.6402,0.4004,0.3765,0.2707,0.0184,0.0,0.0512,0.1744,0.2953,0.3096,0.2014,0.3048,0.3716,0.3937,0.3509,0.3493,0.3896,0.3582,0.2253,0.0138,0.0046,0.0,0.0092,0.1428,0.3347,0.5625,0.5722,0.6555,0.778,0.7651,0.76,0.7617,0.7756,0.7811,0.7831,0.0,0.0,0.0,0.0,0.0,0.0,0.0,0.0,0.0,0.0,0.0,0.0,0.0,0.0,0.0,0.0,0.0,0.0,0.0,0.0,0.5286,0.5284,0.5399,0.5594,0.5874,0.5893,0.5995,0.6194,0.5387,0.4973,0.4927,0.4109,0.3669,0.3559,0.3612,0.3629,0.3597,0.3419,0.344,0.3634,0.3959,0.4201,0.4449,0.5306,0.5687,0.0,0.0,0.0,0.0,0.0,0.0,0.0,0.7047,0.6971,0.7049,0.6521,0.634,0.6327,0.0,0.5879,0.0,0.0,0.0,0.0,0.0,0.0,0.0,0.0,0.0,0.0,0.0,0.6675,0.6671,0.6739,0.6773,0.6807,0.6841,0.6817,0.6865,0.7051,0.6939,0.599,0.383,0.3513,0.2471,0.0176,0.0,0.053,0.1746,0.2933,0.3497,0.3215,0.3452,0.4011,0.4821,0.38,0.3777,0.4653,0.3823,0.2667,0.1232,0.0364,0.0,0.009,0.1308,0.2732,0.4308,0.5237,0.6427,0.7641,0.7611,0.76,0.7617,0.7756,0.7811,0.7831,0.0,0.0,0.0,0.0,0.0,0.0,0.0,0.0,0.0,0.0,0.0,0.0,0.0,0.0,0.0,0.0,0.0,0.0,0.0,0.0,0.5617,0.5458,0.579,0.6044,0.6145,0.6052,0.6195,0.6582,0.5487,0.4994,0.5084,0.4241,0.3832,0.3839,0.3741,0.3678,0.3647,0.3502,0.3543,0.3756,0.4337,0.47,0.4975,0.5852,0.622,0.6333,0.6771,0.0,0.0,0.0,0.0,0.0,0.0,0.0,0.7036,0.6688,0.6583,0.6518,0.0,0.0,0.0,0.0,0.0,0.0,0.0,0.0,0.0,0.0,0.0,0.0,0.0,0.0,0.6536,0.6678,0.6702,0.6702,0.6702,0.6702,0.6729,0.681,0.6749,0.5871,0.3716,0.3396,0.2402,0.0171,0.0,0.0782,0.2556,0.3266,0.3614,0.3614,0.3614,0.38,0.4239,0.3555,0.3771,0.4902,0.4367,0.3275,0.1674,0.0496,0.0,0.0045,0.1254,0.2579,0.3911,0.5013,0.6296,0.7485,0.7411,0.7424,0.7509,0.7655,0.7753,0.7831,0.0,0.0,0.0,0.0,0.0,0.0,0.0,0.0,0.0,0.0,0.0,0.0,0.0,0.0,0.0,0.0,0.0,0.0,0.0,0.0,0.0,0.5814,0.6093,0.6311,0.6422,0.6216,0.6374,0.6916,0.5739,0.5182,0.5217,0.4447,0.4069,0.3994,0.3842,0.3679,0.3568,0.3543,0.3612,0.3802,0.4675,0.5188,0.5551,0.6394,0.6793,0.6938,0.7172,0.7151,0.7058,0.7196,0.0,0.0,0.0,0.0,0.7043,0.6875,0.6813,0.6671,0.0,0.0,0.0,0.0,0.0,0.0,0.0,0.0,0.0,0.0,0.0,0.0,0.0,0.0,0.63,0.6505,0.6546,0.6546,0.6546,0.6546,0.6556,0.6583,0.6583,0.5817,0.3827,0.3444,0.2493,0.042,0.0085,0.1034,0.3464,0.3389,0.3374,0.3595,0.3418,0.3204,0.2999,0.3068,0.3697,0.4845,0.4697,0.3617,0.1727,0.0533,0.0,0.0045,0.1254,0.2528,0.3842,0.4947,0.6179,0.7322,0.7221,0.7258,0.7439,0.757,0.7709,0.7831,0.0,0.0,0.0,0.0,0.0,0.0,0.0,0.0,0.0,0.0,0.0,0.0,0.0,0.0,0.0,0.0,0.0,0.0,0.7181,0.0,0.0,0.704,0.6669,0.6731,0.731,0.6802,0.6535,0.6572,0.6044,0.5781,0.0,0.0,0.4155,0.3661,0.3636,0.3556,0.3414,0.3307,0.3458,0.3844,0.4418,0.494,0.5432,0.6343,0.6786,0.6953,0.7334,0.7169,0.6778,0.6967,0.7106,0.0,0.0,0.0,0.7301,0.7043,0.6724,0.651,0.0,0.0,0.0,0.0,0.0,0.0,0.0,0.0,0.0,0.0,0.0,0.0,0.0,0.0,0.0,0.5915,0.5922,0.5922,0.5922,0.5922,0.5969,0.6067,0.6081,0.5674,0.4617,0.3671,0.2647,0.1463,0.0538,0.1043,0.3459,0.2606,0.2523,0.3566,0.2566,0.1963,0.1844,0.2689,0.366,0.4734,0.3784,0.272,0.1607,0.0509,0.0,0.0045,0.1254,0.2508,0.3719,0.4917,0.6083,0.7139,0.7295,0.7353,0.745,0.7682,0.7794,0.7831,0.0,0.0,0.0,0.0,0.0,0.0,0.0,0.0,0.0,0.0,0.0,0.0,0.0,0.0,0.0,0.8372,0.8158,0.7865,0.7496,0.7281,0.7206,0.7304,0.7288,0.7339,0.7442,0.7365,0.7178,0.6884,0.6301,0.0,0.0,0.475,0.4391,0.0,0.0,0.3473,0.3329,0.3193,0.3331,0.368,0.4253,0.4907,0.5601,0.6229,0.6563,0.6755,0.735,0.7016,0.6395,0.7013,0.7097,0.695,0.7118,0.0,0.0,0.0,0.0,0.0,0.0,0.0,0.0,0.0,0.0,0.0,0.0,0.0,0.0,0.0,0.0,0.0,0.0,0.0,0.0,0.0,0.0,0.58,0.58,0.58,0.5827,0.5895,0.5939,0.5623,0.4694,0.4249,0.3349,0.1734,0.1176,0.1392,0.2544,0.2094,0.2037,0.2556,0.2079,0.175,0.1612,0.204,0.3102,0.4822,0.4268,0.381,0.3392,0.2264,0.1452,0.1057,0.2287,0.3492,0.4688,0.5891,0.665,0.7112,0.7312,0.7424,0.7526,0.7733,0.7865,0.7897,0.0,0.0,0.0,0.0,0.0,0.0,0.0,0.0,0.0,0.0,0.0,0.0,0.0,0.0,0.0,0.0,0.8432,0.8289,0.8136,0.8203,0.8174,0.7968,0.8099,0.8059,0.7788,0.7922,0.7766,0.7299,0.0,0.0,0.5142,0.4525,0.4287,0.0,0.369,0.3298,0.0,0.0,0.0,0.0,0.423,0.4959,0.5575,0.0,0.0,0.671,0.7282,0.0,0.0,0.0,0.0,0.0,0.7202,0.7503,0.0,0.0,0.0,0.0,0.0,0.0,0.0,0.0,0.0,0.0,0.0,0.0,0.0,0.0,0.0,0.0,0.0,0.0,0.0,0.0,0.0,0.0,0.0,0.5576,0.5576,0.5576,0.5745,0.5564,0.4793,0.4632,0.3857,0.2074,0.1664,0.1607,0.1796,0.1521,0.1501,0.179,0.1501,0.1316,0.1196,0.1461,0.2684,0.4812,0.4414,0.4454,0.4776,0.3592,0.2911,0.2705,0.3583,0.4513,0.5492,0.665,0.7119,0.7214,0.737,0.7519,0.7672,0.7818,0.7891,0.7939,0.0,0.0,0.0,0.0,0.0,0.0,0.0,0.0,0.0,0.0,0.0,0.0,0.8547,0.8933,0.9042,0.8717,0.8745,0.892,0.9292,0.961,0.9777,0.9761,0.9244,0.0,0.8827,0.8458,0.8046,0.0,0.0,0.0,0.5276,0.423,0.3465,0.3013,0.3097,0.2905,0.2549,0.0,0.0,0.0,0.0,0.0,0.0,0.0,0.0,0.0,0.0,0.0,0.0,0.0,0.0,0.0,0.0,0.7426,0.7857,0.0,0.0,0.0,0.0,0.0,0.0,0.0,0.0,0.0,0.0,0.0,0.0,0.0,0.0,0.0,0.0,0.0,0.0,0.0,0.0,0.0,0.0,0.0,0.4935,0.4935,0.522,0.5396,0.5363,0.4669,0.383,0.2887,0.188,0.1445,0.1793,0.0715,0.0625,0.1749,0.0708,0.0083,0.0079,0.11,0.2596,0.4495,0.3479,0.3521,0.4468,0.3411,0.3661,0.4949,0.5012,0.5165,0.5492,0.665,0.7227,0.7419,0.7529,0.7675,0.7818,0.7921,0.7982,0.7839,0.0,0.0,0.0,0.0,0.0,0.0,0.0,0.0,0.0,0.0,0.0,0.0,0.0,0.9607,0.9745,0.9673,0.9642,0.9684,0.9776,0.9826,0.9879,0.9956,0.9716,0.9509,0.9359,0.9252,0.8799,0.0,0.0,0.6282,0.5148,0.4072,0.3297,0.2758,0.2608,0.2451,0.231,0.2516,0.0,0.0,0.0,0.0,0.0,0.0,0.0,0.0,0.0,0.0,0.0,0.0,0.0,0.0,0.7023,0.7468,0.8018,0.8029,0.0,0.0,0.0,0.0,0.0,0.0,0.0,0.0,0.0,0.0,0.0,0.0,0.0,0.0,0.0,0.0,0.0,0.0,0.0,0.0,0.0,0.0,0.0,0.4887,0.5182,0.5395,0.5395,0.5313,0.4564,0.3012,0.254,0.1846,0.0722,0.0245,0.0205,0.065,0.0205,0.0,0.0,0.1072,0.2284,0.3618,0.3918,0.4634,0.5634,0.5248,0.545,0.6111,0.6119,0.6267,0.6517,0.6918,0.7129,0.7238,0.7394,0.7543,0.7682,0.7736,0.783,0.7813,0.0,0.0,0.0,0.0,0.0,0.0,0.0,0.0,0.0,0.0,0.0,0.0,0.0,0.0,1.0026,1.0156,1.0294,1.036,1.0343,1.0435,1.0522,1.0572,1.0421,1.0203,0.9937,0.9809,0.9348,0.0,0.0,0.0,0.0,0.4267,0.3308,0.2525,0.2379,0.2201,0.0,0.0,0.0,0.248,0.0,0.0,0.4993,0.0,0.0,0.0,0.0,0.0,0.0,0.0,0.0,0.0,0.0,0.7587,0.8199,0.8361,0.0,0.0,0.0,0.0,0.0,0.0,0.0,0.0,0.0,0.0,0.0,0.0,0.0,0.0,0.0,0.0,0.0,0.0,0.0,0.0,0.0,0.0,0.0,0.0,0.5016,0.5187,0.5238,0.5433,0.481,0.297,0.2831,0.0,0.0115,0.0,0.0,0.0,0.0,0.0,0.0,0.0718,0.1737,0.3056,0.3768,0.4885,0.63,0.63,0.6487,0.6776,0.6776,0.6915,0.7095,0.7095,0.7125,0.7227,0.7329,0.7495,0.7665,0.7617,0.7753,0.7677,0.0,0.0,0.0,0.0,0.0,0.0,0.0,0.0,0.0,0.6765,0.0,0.0,0.0,0.0,0.0,1.0124,1.0641,1.0974,1.1016,1.157,1.1833,1.1701,1.137,1.0992,1.0621,1.006,0.9628,0.9299,0.7977,0.6912,0.0,0.0,0.3539,0.2294,0.2464,0.227,0.1829,0.0,0.1993,0.1983,0.0,0.4635,0.4864,0.0,0.0,0.0,0.5749,0.6021,0.0,0.601,0.0,0.0,0.0,0.7742,0.8341,0.8663,0.0,0.0,0.0,0.0,0.0,0.0,0.0,0.0,0.0,0.0,0.0,0.0,0.0,0.0,0.0,0.0,0.0,0.0,0.0,0.0,0.0,0.0,0.0,0.0,0.4627,0.4748,0.4867,0.5009,0.4428,0.2846,0.2717,0.194,0.0145,0.0,0.0,0.0,0.0,0.0,0.0,0.0,0.0982,0.2905,0.2905,0.4087,0.63,0.6264,0.6465,0.6837,0.6797,0.6877,0.7051,0.7095,0.7227,0.7409,0.7409,0.7543,0.778,0.7638,0.7678,0.7392,0.0,0.0,0.0,0.0,0.0,0.0,0.5415,0.5578,0.6086,0.0,0.0,0.0,1.0019,1.0935,1.1444,1.1475,1.1873,1.191,1.1395,1.179,1.1949,1.1704,1.1107,1.0706,1.0602,1.003,0.9636,0.9439,0.839,0.7735,0.7429,0.5723,0.4647,0.0,0.3461,0.2884,0.2441,0.2264,0.0,0.2651,0.3276,0.427,0.0,0.0,0.0,0.0,0.0,0.5047,0.5415,0.0,0.6099,0.704,0.0,0.0,0.0,0.0,0.0,0.0,0.8513,0.0,0.0,0.0,0.0,0.0,0.0,0.0,0.0,0.0,0.0,0.0,0.0,0.0,0.0,0.0,0.0,0.0,0.0,0.0,0.0,0.0,0.0,0.4707,0.4752,0.4891,0.4554,0.0,0.3486,0.2764,0.1016,0.0332,0.0,0.0,0.0,0.0,0.0,0.0,0.1039,0.3056,0.3056,0.4201,0.6264,0.5492,0.5276,0.5417,0.4642,0.4906,0.5938,0.6738,0.7122,0.7204,0.7204,0.7322,0.7475,0.7322,0.7434,0.7382,0.0,0.0,0.0,0.0,0.0,0.5383,0.5798,0.5983,0.6512,0.0,0.0,0.0,1.0358,1.1134,1.1638,1.1861,1.2173,1.2257,1.2057,1.2283,1.2336,1.2095,1.1588,1.1237,1.1065,1.0697,1.0409,1.0204,0.9428,0.8845,0.842,0.6987,0.5846,0.0,0.0,0.0,0.0,0.0,0.0,0.0,0.3941,0.0,0.0,0.5379,0.5473,0.0,0.0,0.0,0.5191,0.5157,0.5976,0.0,0.0,0.0,0.0,0.0,0.0,0.0,0.0,0.0,0.0,0.0,0.0,0.0,0.7775,0.7107,0.0,0.0,0.0,0.0,0.0,0.0,0.0,0.0,0.0,0.0,0.0,0.0,0.0,0.0,0.0,0.4648,0.4684,0.4772,0.4519,0.3766,0.3753,0.3066,0.1391,0.0823,0.0358,0.0,0.0,0.0,0.0,0.0,0.1032,0.3095,0.3087,0.4262,0.6352,0.5283,0.4863,0.493,0.3866,0.3884,0.473,0.5891,0.6618,0.7007,0.7007,0.7143,0.7258,0.7061,0.7244,0.733,0.0,0.0,0.668,0.6075,0.5905,0.5939,0.6239,0.6389,0.6922,0.0,0.8639,0.9246,1.0308,1.0682,1.1084,1.1616,1.189,1.2218,1.268,1.2817,1.2796,1.2648,1.2393,1.2083,1.1717,1.1575,1.1387,1.1136,1.0593,0.9931,0.9144,0.8318,0.6973,0.5296,0.0,0.0,0.0,0.0,0.0,0.4076,0.5185,0.5595,0.0,0.0,0.5921,0.5337,0.4727,0.4924,0.5454,0.5086,0.5789,0.0,0.0,0.0,0.0,0.0,0.7732,0.0,0.0,0.0,0.0,0.0,0.0,0.0,0.7845,0.7452,0.7071,0.0,0.0,0.0,0.0,0.0,0.0,0.0,0.0,0.0,0.0,0.0,0.0,0.0,0.0,0.0,0.4653,0.4667,0.4403,0.378,0.3765,0.3103,0.1519,0.135,0.0868,0.0035,0.0,0.0,0.0,0.0,0.0993,0.2944,0.3044,0.4206,0.6225,0.532,0.4927,0.4967,0.386,0.3461,0.3646,0.4761,0.581,0.6711,0.684,0.6953,0.7034,0.6927,0.7085,0.7143,0.0,0.0,0.7293,0.7579,0.7147,0.6896,0.7316,0.7511,0.781,0.8387,0.9258,1.0001,1.0432,1.1011,1.1396,1.1449,1.1898,1.2155,1.2166,1.253,1.2781,1.2848,1.2296,1.1942,1.1857,1.1277,1.0875,1.0709,1.0186,0.9762,0.9467,0.8512,0.752,0.6524,0.0,0.0,0.0,0.0,0.0,0.5764,0.5324,0.0,0.602,0.5608,0.545,0.5393,0.4729,0.4671,0.4937,0.5261,0.5504,0.5723,0.0,0.0,0.0,0.0,0.0,0.0,0.0,0.0,0.0,0.0,0.0,0.0,0.7672,0.7333,0.6984,0.0,0.0,0.0,0.0,0.0,0.0,0.0,0.0,0.0,0.0,0.0,0.0,0.0,0.0,0.0,0.4532,0.4535,0.4512,0.4487,0.3958,0.3241,0.2317,0.1537,0.0795,0.0034,0.0,0.0,0.0,0.0,0.0651,0.1888,0.2729,0.3728,0.4893,0.4795,0.4688,0.4515,0.2749,0.2529,0.3398,0.379,0.456,0.5534,0.6536,0.6871,0.6797,0.6852,0.6888,0.6802,0.0,0.0,0.8017,0.8078,0.776,0.7654,0.8128,0.8224,0.8471,0.912,0.9955,1.0516,0.0,0.0,0.0,0.0,1.1972,1.2342,1.2398,1.2896,1.3088,1.2859,1.2655,1.2391,1.2012,1.1705,1.1456,1.1235,1.0621,1.0136,0.9776,0.8802,0.7879,0.6975,0.0,0.0,0.0,0.0,0.6213,0.6575,0.626,0.0,0.6221,0.5986,0.5524,0.4948,0.4625,0.4539,0.4632,0.4911,0.5218,0.0,0.0,0.6536,0.687,0.0,0.7012,0.7268,0.0,0.0,0.0,0.746,0.0,0.0,0.0,0.7401,0.7181,0.7309,0.0,0.0,0.0,0.0,0.0,0.0,0.0,0.0,0.0,0.0,0.0,0.0,0.0,0.0,0.4355,0.4447,0.4552,0.4677,0.4343,0.3651,0.2573,0.2042,0.1232,0.0033,0.0,0.0,0.0,0.0,0.053,0.1594,0.2102,0.3092,0.4485,0.4029,0.4006,0.4234,0.2303,0.1785,0.235,0.3139,0.3722,0.4272,0.6102,0.6722,0.6597,0.6671,0.6702,0.6712,0.9261,0.0,0.0,0.849,0.829,0.8344,0.8775,0.8751,0.8987,0.0,0.0,0.0,0.0,0.0,0.0,0.0,0.0,0.0,0.0,0.0,1.3282,1.2983,1.2968,1.2745,1.2224,1.215,1.2002,1.1753,1.1015,1.0389,0.9865,0.9014,0.8078,0.0,0.0,0.0,0.0,0.0,0.0,0.7348,0.0,0.7088,0.6392,0.6511,0.5757,0.4612,0.4529,0.4491,0.4491,0.4491,0.4937,0.5508,0.5673,0.6544,0.0,0.0,0.0,0.0,0.0,0.0,0.0,0.0,0.0,0.7055,0.0,0.0,0.0,0.0,0.0,0.0,0.0,0.0,0.0,0.0,0.0,0.0,0.0,0.0,0.0,0.0,0.0,0.4181,0.4154,0.4341,0.4514,0.4636,0.4503,0.3829,0.2523,0.2309,0.1554,0.0032,0.0,0.0,0.0,0.0,0.0445,0.1291,0.1508,0.249,0.4121,0.3507,0.3654,0.436,0.2611,0.1878,0.2017,0.3118,0.3524,0.3608,0.585,0.6607,0.6518,0.6539,0.66,0.6661,1.0545,1.0242,0.0,0.0,0.9202,0.8992,0.9278,0.9172,0.9219,0.0,0.0,0.0,0.0,0.0,0.0,0.0,0.0,0.0,1.3858,0.0,0.0,1.3474,1.2685,1.2314,1.2535,1.1918,1.1452,1.1192,1.0456,0.9891,0.9465,0.8863,0.8125,0.0,0.762,0.0,0.0,0.0,0.8149,0.0,0.8555,0.7719,0.0,0.6405,0.583,0.5077,0.465,0.4491,0.4491,0.0,0.4567,0.472,0.0,0.5873,0.6399,0.0,0.0,0.0,0.0,0.0,0.0,0.0,0.6761,0.0,0.0,0.0,0.6238,0.7141,0.0,0.0,0.0,0.0,0.0,0.0,0.0,0.0,0.0,0.0,0.0,0.0,0.3977,0.4164,0.4045,0.4156,0.4311,0.4515,0.3764,0.2963,0.2265,0.1628,0.0872,0.0031,0.0,0.0,0.0,0.0,0.0066,0.0204,0.115,0.2044,0.2923,0.3903,0.4726,0.5364,0.4323,0.3958,0.4157,0.4443,0.4537,0.4663,0.6141,0.6607,0.6545,0.6776,0.6715,0.6559,1.0996,1.0667,0.0,0.0,0.9787,0.9702,0.9882,1.0142,1.0318,0.0,0.0,0.0,0.0,0.0,0.0,0.0,0.0,1.2713,0.0,0.0,0.0,0.0,1.2595,0.0,1.2134,1.1708,1.1377,1.1099,1.0208,0.964,0.9387,0.8415,0.7879,0.0,0.803,0.0,0.7656,0.0,0.8896,0.0,0.0,0.0,0.0,0.6922,0.5784,0.4773,0.4567,0.4491,0.4491,0.0,0.4607,0.0,0.0,0.0,0.0,0.0,0.0,0.0,0.0,0.0,0.0,0.0,0.0,0.0,0.6866,0.0,0.6131,0.0,0.0,0.0,0.0,0.0,0.0,0.0,0.6686,0.0,0.0,0.0,0.0,0.0,0.0,0.0,0.4275,0.4226,0.4294,0.4484,0.4029,0.3277,0.2246,0.1915,0.1211,0.003,0.0,0.0,0.0,0.0,0.0,0.0,0.0443,0.1102,0.1921,0.2963,0.3911,0.4639,0.4244,0.413,0.422,0.4495,0.4617,0.4814,0.6191,0.6191,0.5485,0.5669,0.562,0.5468,0.0,0.0,0.0,0.0,1.0182,1.022,1.0337,1.0881,1.1118,1.0799,0.0,0.0,1.207,1.2626,0.0,0.0,1.311,1.3228,0.0,0.0,1.2708,0.0,0.0,0.0,0.0,1.1696,1.1405,1.1122,1.0177,0.9588,0.9335,0.8388,0.8114,0.8384,0.0,0.8648,0.8552,0.0,0.0,0.967,0.9413,0.9097,0.866,0.7097,0.5538,0.4239,0.4436,0.4377,0.4242,0.4483,0.4674,0.0,0.5458,0.0,0.0,0.0,0.0,0.0,0.6882,0.0,0.0,0.0,0.0,0.0,0.0,0.0,0.0,0.0,0.0,0.0,0.0,0.0,0.0,0.0,0.0,0.5839,0.0,0.0,0.0,0.0,0.0,0.0,0.0,0.4482,0.4505,0.4579,0.4274,0.3524,0.2254,0.1998,0.1216,-0.0261,-0.0116,-0.0088,-0.0301,-0.0089,0.0,0.0,0.0,0.0471,0.1333,0.2269,0.3173,0.402,0.4274,0.4399,0.4445,0.4756,0.5159,0.5676,0.637,0.589,0.4826,0.4979,0.4752,0.4367,1.1955,1.1595,0.0,0.0,0.0,1.0418,1.0472,1.0996,1.1269,0.0,0.0,0.0,0.0,0.0,0.0,0.0,0.0,1.4136,1.5442,0.0,1.2391,0.0,0.0,1.2437,0.0,0.0,0.0,1.1193,1.0371,0.971,0.9211,0.9159,0.9125,0.9088,0.9625,0.9633,0.9308,0.9926,1.0415,1.0727,1.0389,0.9221,0.7559,0.0,0.5112,0.3539,0.4236,0.0,0.0,0.44,0.4691,0.0,0.0,0.0,0.0,0.0,0.0,0.0,0.0,0.0,0.0,0.6706,0.0,0.0,0.0,0.0,0.4818,0.0,0.0,0.0,0.0,0.0,0.0,0.0,0.0,0.0,0.0,0.0,0.0,0.0,0.0,0.0,0.0,0.4915,0.506,0.4804,0.4174,0.3353,0.2254,0.151,0.0448,-0.1008,-0.0364,-0.0337,-0.1065,-0.0348,0.0,0.0,0.0,0.0452,0.1325,0.2287,0.3182,0.4048,0.496,0.5417,0.5565,0.571,0.66,0.7787,0.6889,0.5928,0.5129,0.53,0.4575,0.3576,0.0,0.0,0.0,0.0,0.0,1.1115,1.1319,1.1609,1.1797,0.0,0.0,0.0,0.0,1.5237,1.573,0.0,0.0,1.4948,1.3563,1.3599,0.0,0.0,0.0,1.2949,0.0,0.0,0.0,0.0,0.0,1.0364,0.9997,0.9755,0.9731,0.9872,0.0,1.0503,0.0,0.0,0.0,0.0,0.0,0.9347,0.8377,0.0,0.5523,0.4153,0.4405,0.4349,0.0,0.4465,0.4944,0.5448,0.5612,0.6755,0.8007,0.7902,0.8325,0.8647,0.0,0.0,0.6513,0.6226,0.0,0.0,0.0,0.0,0.0,0.0,0.0,0.0,0.0,0.0,0.0,0.0,0.0,0.0,0.0,0.0,0.0,0.0,0.0,0.0,0.0,0.0,0.0,0.5588,0.5102,0.4257,0.2989,0.1777,0.0417,-0.1062,-0.1455,-0.1473,-0.1098,-0.0935,-0.0571,0.0,0.0,0.016,0.0498,0.2003,0.2845,0.3211,0.4755,0.5481,0.5599,0.5742,0.6238,0.6845,0.6612,0.5859,0.4905,0.4282,0.328,0.245,1.2055,0.0,0.0,0.0,0.0,0.0,1.1518,0.0,0.0,0.0,1.3145,0.0,1.446,0.0,1.5852,0.0,1.5452,1.5002,1.3249,1.3548,0.0,1.2606,1.3012,0.0,0.0,0.0,0.0,0.0,0.0,1.1031,1.0639,1.0522,1.0589,0.0,0.0,1.1112,1.0211,0.0,1.0504,0.0,0.0,0.9757,0.0,0.0,0.5949,0.4574,0.0,0.4322,0.4153,0.4677,0.5242,0.5772,0.6294,0.7374,0.8499,0.8602,0.8951,0.9036,0.7867,0.7145,0.0,0.5902,0.5277,0.0,0.5335,0.0,0.0,0.0,0.0,0.0,0.0,0.0,0.0,0.0,0.0,0.0,0.0,0.47,0.0,0.0,0.0,0.0,0.0,0.0,0.5795,0.6296,0.568,0.4707,0.0,0.2163,0.0584,-0.1424,-0.1875,-0.2053,-0.1993,-0.1526,-0.1025,-0.0444,0.0156,0.0475,0.0531,0.2335,0.3178,0.3245,0.4755,0.545,0.5552,0.5667,0.6157,0.6786,0.6468,0.5989,0.5344,0.3937,0.2875,0.2411,0.0,0.0,0.0,0.0,1.1005,0.0,0.0,0.0,1.2025,0.0,1.2816,1.3667,1.3521,1.4835,1.5488,1.4885,1.4578,1.4453,1.4425,1.3335,0.0,0.0,1.2651,1.228,1.1032,0.0,0.0,0.0,0.0,0.0,1.1159,0.0,0.0,0.0,1.1984,0.0,1.0687,1.0687,1.0352,0.9865,1.0466,1.0305,0.957,0.8134,0.6449,0.4767,0.4568,0.4015,0.3591,0.5019,0.5515,0.5873,0.7683,0.843,0.8841,0.9876,0.9787,0.9192,0.8392,0.7484,0.656,0.5785,0.5352,0.0,0.0,0.0,0.4874,0.0,0.0,0.0,0.0,0.0,0.0,0.0,0.0,0.0,0.0,0.0,0.0,0.0,0.0,0.0,0.0,0.5867,0.616,0.6861,0.5937,0.4767,0.0,0.2583,0.0807,-0.2068,-0.1673,-0.2113,-0.3584,-0.2116,-0.1346,-0.1264,0.0432,0.1254,0.1356,0.3144,0.3949,0.4048,0.499,0.5399,0.5419,0.5532,0.6423,0.7584,0.6455,0.6179,0.6248,0.4153,0.3369,0.333,1.2638,1.2342,1.2038,0.0,1.1291,1.1138,0.0,0.0,0.0,0.0,1.4488,1.551,1.4864,1.557,1.5811,1.5157,1.5945,0.0,0.0,0.0,0.0,1.1832,1.2978,1.2814,1.0887,1.1791,0.0,1.1483,0.0,0.0,1.1768,0.0,0.0,0.0,0.0,0.0,1.0687,1.0687,1.0352,0.9762,0.9439,0.9597,0.982,0.0,0.7102,0.6181,0.4932,0.4377,0.4319,0.5214,0.5869,0.664,0.8511,0.9236,0.9616,1.0686,1.0639,0.9926,0.8457,0.7752,0.7131,0.5893,0.5281,0.503,0.0,0.0,0.0,0.0,0.0,0.0,0.0,0.0,0.0,0.0,0.0,0.0,0.0,0.0,0.0,0.5,0.0,0.0,0.0,0.6302,0.6822,0.7172,0.635,0.5551,0.4977,0.0,0.0141,-0.1468,-0.2505,-0.3202,-0.361,-0.2671,-0.1851,-0.1146,-0.0127,0.0679,0.1327,0.2503,0.338,0.4048,0.499,0.546,0.5569,0.5576,0.587,0.6284,0.5966,0.5507,0.4894,0.3624,0.3248,0.3423,1.3055,0.0,0.0,1.2357,0.0,0.0,1.2273,1.2869,0.0,1.2852,1.4343,0.0,1.4106,1.479,1.5107,1.4605,1.5345,0.0,1.401,0.0,0.0,1.1791,1.2635,1.2142,0.9967,1.0942,0.0,1.107,0.0,0.0,1.213,0.0,0.0,0.0,0.0,1.1926,0.0,1.0194,0.975,0.9445,0.9306,0.9541,0.0,0.8618,0.756,0.6616,0.5377,0.4759,0.4653,0.5655,0.6579,0.7647,0.9494,1.0478,1.1033,1.1398,1.1323,1.0654,0.857,0.793,0.7423,0.5785,0.5167,0.5009,0.5145,0.504,0.4874,0.0,0.4813,0.5,0.0,0.0,0.0,0.0,0.0,0.0,0.0,0.0,0.0,0.0,0.5442,0.0,0.5565,0.6146,0.6587,0.6714,0.567,0.4871,0.4467,0.0,0.0084,-0.1457,-0.221,-0.2919,-0.358,-0.2506,-0.1697,-0.1159,0.0,0.1046,0.1941,0.2845,0.3747,0.4652,0.516,0.5443,0.5528,0.5562,0.5674,0.5817,0.5949,0.5451,0.4649,0.4628,0.4376,0.4168,0.0,0.0,0.0,0.0,0.0,0.0,0.0,1.277,0.0,1.2472,0.0,1.3758,1.2499,1.3294,1.3822,1.3517,0.0,1.4346,1.4958,1.4649,1.3761,1.2225,1.2117,1.1122,0.9057,0.9855,0.0,0.0,0.0,0.0,0.0,0.0,0.0,0.0,0.0,0.0,0.0,0.9507,0.8929,0.8893,0.9453,0.9666,0.9607,0.896,0.7906,0.6642,0.5896,0.5218,0.4842,0.615,0.7422,0.8756,1.0497,1.1775,1.2517,1.2073,1.1896,1.126,0.8822,0.8071,0.7513,0.5728,0.5164,0.5009,0.4887,0.4874,0.4819,0.4687,0.4765,0.4959,0.0,0.0,0.0,0.0,0.0,0.0,0.0,0.0,0.0,0.0,0.0,0.0,0.0,0.571,0.5852,0.5923,0.458,0.3647,0.0,0.0,0.0419,-0.1401,-0.1336,-0.1988,-0.3436,-0.2018,-0.1285,-0.127,0.0357,0.1671,0.2711,0.348,0.4417,0.5395,0.5395,0.5395,0.5405,0.5539,0.5654,0.583,0.618,0.5792,0.5227,0.6192,0.6025,0.5376,0.0,0.0,0.0,0.0,0.0,1.3529,1.3632,1.4066,1.4115,1.3247,1.4278,1.4496,1.2885,1.2641,1.2591,1.2461,1.3457,0.0,0.0,0.0,0.0,1.3539,1.2597,1.1509,1.0232,1.0207,1.0501,0.0,0.0,0.0,1.2694,0.0,0.0,0.0,0.0,0.0,0.9787,0.9238,0.0,0.7997,0.8705,0.8982,0.8956,0.8824,0.8256,0.7396,0.6664,0.5928,0.5464,0.6312,0.7749,0.9515,1.1316,1.2212,1.2634,1.275,1.2328,1.1392,0.9576,0.8434,0.7512,0.645,0.5464,0.4762,0.4735,0.4662,0.4563,0.4535,0.4552,0.4622,0.4805,0.0,0.0,0.0,0.0,0.0,0.0,0.0,0.0,0.0,0.0,0.6426,0.0,0.0,0.545,0.5588,0.4326,0.0,0.0,0.0,0.0792,0.0,-0.0575,0.0,0.0,0.0,-0.1132,-0.1139,-0.0203,0.1104,0.2711,0.2845,0.3849,0.5395,0.5395,0.5395,0.5395,0.5423,0.5593,0.583,0.618,0.6267,0.626,0.6672,0.6711,0.6583,0.0,0.0,0.0,0.0,0.0,0.0,0.0,1.4361,1.44,1.3791,1.4277,1.4148,1.2692,1.2385,1.2356,1.2561,1.329,1.3971,1.4516,1.5305,1.5167,1.3854,1.2871,0.0,1.0728,1.0194,1.0301,1.1042,0.0,0.0,1.2325,0.0,0.0,0.0,0.0,1.0746,0.0,0.0,0.0,0.7486,0.8559,0.8911,0.8804,0.8804,0.8342,0.7643,0.7289,0.6934,0.6674,0.6801,0.8471,1.0721,1.1963,1.3151,1.3911,1.3193,1.2726,1.1943,0.965,0.8677,0.7931,0.6444,0.5671,0.5153,0.4702,0.4542,0.4491,0.4491,0.4491,0.4539,0.4663,0.532,0.0,0.0,0.0,0.0,0.0,0.0,0.0,0.0,0.0,0.0,0.0,0.0,0.0,0.0,0.0,0.0,0.0,0.0,0.0761,0.0,0.0,0.0,-0.1756,0.0,-0.0531,-0.0504,0.0302,0.1375,0.2711,0.3178,0.4115,0.5395,0.5395,0.5395,0.5405,0.5562,0.581,0.6162,0.6351,0.6508,0.6725,0.6832,0.693,0.6994,0.0,1.6131,0.0,0.0,1.538,0.0,1.4338,1.4404,1.4462,1.4048,1.3932,1.3509,1.2402,1.2191,1.2245,1.2555,1.3105,1.3823,1.4675,1.5317,1.5302,1.4443,1.3397,1.2386,1.1486,1.0481,1.0332,0.0,0.0,0.0,0.0,0.0,0.0,0.0,0.0,0.0,0.0,0.0,0.854,0.7521,0.8583,0.8959,0.8871,0.8871,0.8479,0.791,0.775,0.7839,0.7943,0.7477,0.9141,1.1501,1.2253,1.3709,1.4903,1.3644,1.313,1.2479,1.0098,0.9101,0.835,0.6599,0.5944,0.5506,0.4681,0.4491,0.4491,0.4491,0.4491,0.4539,0.4663,0.5149,0.0,0.0,0.0,0.0,0.0,0.0,0.0,0.0,0.0,0.0,0.6593,0.0,0.0,0.0,0.0,0.0,0.2963,0.0,0.0,0.0,0.0,-0.0311,-0.0857,0.0,0.0,0.0,0.0868,0.1808,0.2744,0.3613,0.4519,0.5395,0.5395,0.5416,0.5467,0.5728,0.6095,0.6518,0.6546,0.6736,0.693,0.693,0.7001,0.7095,0.0,0.0,0.0,0.0,0.0,1.6433,1.4726,1.4754,1.4629,1.3753,1.3447,1.3012,1.2365,1.1824,1.1483,1.1532,1.2779,1.3741,1.4147,1.5675,1.6529,1.6427,1.4536,1.3453,1.3357,1.1721,1.1072,0.0,0.0,1.1478,0.0,0.0,0.0,0.0,0.0,0.0,0.0,0.8887,0.8578,0.8457,0.8487,0.8757,0.9171,0.9171,0.8984,0.8619,0.7937,0.8284,0.895,0.8329,0.9362,1.1115,1.1893,1.3142,1.4273,1.4115,1.3575,1.2779,1.1789,1.0087,0.8422,0.7546,0.6421,0.5344,0.4656,0.4491,0.4491,0.4491,0.4491,0.4539,0.4663,0.5133,0.5761,0.0,0.0,0.0,0.0,0.0,0.0,0.0,0.0,0.0,0.0,0.6999,0.0,0.0,0.3375,0.0,0.0,0.0,0.0,0.1022,0.023,-0.0152,-0.0104,-0.0032,0.0,0.0,0.0892,0.1808,0.2744,0.3613,0.4519,0.5395,0.5395,0.5474,0.5593,0.5888,0.619,0.6542,0.6776,0.694,0.7078,0.7078,0.7085,0.7095,0.0,0.0,0.0,0.0,0.0,0.0,0.0,1.6574,1.6164,1.4811,1.378,1.3046,1.265,1.2204,1.1884,1.1703,1.3454,1.4611,1.476,1.6241,1.684,1.6248,1.4711,1.364,1.3067,1.1847,1.1436,0.0,0.0,0.0,0.0,0.0,0.0,0.0,0.0,1.023,0.9411,0.8935,0.8401,0.7984,0.8463,0.8545,0.8463,0.901,0.9031,0.8752,0.8454,0.8605,0.8924,0.8648,0.9722,1.1281,1.2135,1.322,1.4213,1.4213,1.3636,1.2758,1.1583,1.0274,0.9009,0.7908,0.7209,0.6519,0.5355,0.5109,0.4976,0.457,0.4491,0.4508,0.4573,0.508,0.5482,0.5473,0.0,0.0,0.0,0.0,0.0,0.0,0.0,0.0,0.0,0.675,0.6229,0.5478,0.0,0.0,0.0,0.0,0.0,0.1736,0.0,0.015,0.065,0.0735,0.0784,0.0797,0.2232,0.3111,0.3516,0.4495,0.5154,0.5539,0.5589,0.5661,0.5732,0.5905,0.6203,0.6525,0.6607,0.6803,0.697,0.697,0.7024,0.7085,2.0199,0.0,1.9805,0.0,1.9167,1.884,1.7945,1.7803,1.7333,1.6075,1.4964,1.3949,1.3029,1.2699,1.2518,1.2405,1.4435,1.567,1.5634,1.6926,1.7282,1.6469,1.4957,0.0,1.3145,1.2179,1.1779,1.1978,1.2117,0.0,0.0,0.0,0.0,0.0,1.0807,1.0373,0.9712,0.917,0.8601,0.8075,0.8408,0.8251,0.7873,0.8673,0.8786,0.8563,0.8732,0.8804,0.8804,0.8804,0.9709,1.099,1.1816,1.2894,1.3876,1.4115,1.3786,1.3079,1.1752,1.0732,0.9689,0.8221,0.7776,0.7369,0.6113,0.5651,0.53,0.4625,0.4491,0.4491,0.4491,0.4885,0.5176,0.5136,0.0,0.0,0.0,0.0,0.0,0.0,0.6169,0.6128,0.6637,0.6529,0.6133,0.0,0.0,0.0,0.0,0.0,0.0,0.0,0.0,0.0,0.1577,0.1662,0.1728,0.1742,0.3278,0.4033,0.4102,0.5161,0.565,0.5657,0.5755,0.5827,0.5878,0.6328,0.6703,0.6951,0.6998,0.7117,0.7236,0.6946,0.6883,0.696,2.0723,2.0719,2.0476,2.0048,1.9985,1.9472,1.802,1.7803,1.7672,1.7343,1.7035,1.5929,1.3464,1.32,1.3273,1.3553,1.5619,1.6826,1.6669,1.77,1.8125,0.0,0.0,1.4186,1.4186,1.2952,1.2151,1.1913,0.0,0.0,1.1216,0.0,1.1099,1.0705,1.0978,1.0896,1.0536,0.9658,0.93,0.9204,0.835,0.782,0.7562,0.8183,0.819,0.7996,0.8577,0.8804,0.8804,0.8804,0.9198,0.986,1.0665,1.1868,1.3152,1.3974,1.4174,1.3945,1.2856,1.1741,1.0456,0.8642,0.7938,0.7503,0.675,0.6036,0.53,0.4625,0.4491,0.4491,0.4491,0.4519,0.4956,0.6344,0.0,0.0,0.0,0.0,0.0,0.0,0.5959,0.5919,0.6182,0.663,0.0,0.0,0.0,0.0,0.0,0.0,0.0,0.2482,0.2294,0.0,0.2673,0.2666,0.2668,0.2711,0.358,0.4074,0.4223,0.5303,0.58,0.58,0.58,0.5888,0.6074,0.7285,0.7845,0.7986,0.813,0.8164,0.8045,0.7071,0.6705,0.6725,2.1452,2.1543,2.1324,2.0914,2.0835,2.0564,1.9811,1.9706,1.9421,1.8567,1.8624,1.8175,1.6648,1.5532,1.4724,0.0,1.5752,1.6572,0.0,1.705,1.7044,1.6094,1.5049,1.4159,1.3521,1.3121,1.2772,1.2502,0.0,0.0,0.0,1.178,1.1579,1.1181,1.1075,1.1069,1.1056,0.9811,0.9406,0.9482,0.8419,0.7793,0.7525,0.7701,0.7846,0.7936,0.811,0.8559,0.9044,0.8871,0.9325,0.9936,0.9776,1.0865,1.2451,1.3816,1.3816,1.3318,1.3007,1.1945,1.063,0.9571,0.8878,0.8262,0.7509,0.6389,0.53,0.4625,0.4491,0.4491,0.4491,0.4491,0.4656,0.5089,0.5609,0.0,0.6167,0.0,0.0,0.0,0.527,0.5119,0.5683,0.5868,0.0,0.0,0.0,0.0,0.0,0.0,0.0,0.0,0.2799,0.0,0.3441,0.3542,0.3577,0.3613,0.4608,0.5221,0.5447,0.5788,0.5922,0.5925,0.6067,0.6081,0.6078,0.7289,0.7816,0.7871,0.7896,0.7988,0.7937,0.6943,0.6678,0.6848,2.1339,2.14,2.1312,2.1044,2.1283,2.1409,2.1156,2.1451,2.1326,2.0265,2.0523,2.0264,1.8901,1.8028,0.0,1.6294,1.7562,1.7998,1.7172,1.756,1.7237,1.5861,1.4899,1.4119,1.354,1.3327,0.0,1.2784,1.271,1.2489,1.2096,1.2096,1.1913,1.1583,1.1403,1.1296,1.1209,1.0421,0.9867,0.947,0.8537,0.7752,0.7171,0.7064,0.7112,0.7281,0.7517,0.8154,0.8868,0.8555,0.9188,1.0033,0.9524,1.0283,1.1571,1.2767,1.3074,1.2997,1.2919,1.1934,1.0778,1.0208,0.9427,0.8613,0.7857,0.6983,0.6059,0.5085,0.4869,0.4787,0.4546,0.4491,0.457,0.4842,0.5391,0.5932,0.6276,0.0,0.0,0.0,0.0,0.0,0.0,0.5084,0.5272,0.0,0.0,0.0,0.0,0.0,0.4089,0.4089,0.3781,0.3861,0.4396,0.4496,0.4563,0.4594,0.5464,0.5908,0.5996,0.6146,0.6166,0.6122,0.6255,0.6245,0.6197,0.7317,0.7783,0.7783,0.7783,0.785,0.7791,0.6781,0.6515,0.6671,2.0605,2.0605,2.0605,2.0605,2.1375,2.1989,2.1989,2.285,2.3195,2.2295,2.2566,2.2219,2.0597,2.0765,2.0569,1.956,0.0,0.0,1.8924,1.8996,1.8354,1.669,1.5084,1.42,1.4115,1.354,1.3066,1.2757,1.2364,1.2181,1.2161,1.2181,1.2048,1.1826,1.1877,1.1611,1.1096,1.1295,1.0648,0.9432,0.8775,0.785,0.6802,0.6421,0.6251,0.6277,0.6827,0.7642,0.8375,0.8057,0.8907,1.0094,0.978,1.0117,1.069,1.1195,1.2099,1.2874,1.2659,1.177,1.0823,1.0553,0.9637,0.8646,0.7913,0.772,0.7306,0.5814,0.5515,0.5296,0.4625,0.4491,0.4708,0.5324,0.4948,0.5277,0.7257,0.5819,0.0,0.0,0.0,0.0,0.4104,0.4438,0.4668,0.0,0.0,0.0,0.0,0.0,0.4914,0.4904,0.5042,0.5216,0.5392,0.5405,0.5494,0.5627,0.6081,0.6176,0.6016,0.6332,0.6426,0.63,0.63,0.63,0.6377,0.7403,0.7783,0.7783,0.7783,0.7783,0.7668,0.6679,0.6306,0.6334,0.0,0.0,2.0605,2.0605,2.1375,2.1989,2.1989,2.285,2.3575,2.3718,2.4167,2.4456,2.4422,2.4065,2.3707,2.3483,2.13,1.9656,1.9074,1.9049,1.8398,1.6822,1.6115,1.5369,1.4416,1.38,1.3166,1.2405,1.1577,1.1058,1.0864,1.107,1.1131,1.1064,1.1634,1.1917,1.1971,1.159,1.1373,1.119,1.0134,0.9066,0.8063,0.722,0.6655,0.6375,0.641,0.7414,0.8661,0.8381,0.9252,1.0399,0.9876,1.0117,1.073,1.1467,1.1859,1.2127,1.2365,1.1684,1.0795,1.0444,0.9719,0.8912,0.8244,0.8078,0.7594,0.5845,0.5515,0.5296,0.4625,0.4491,0.4543,0.4708,0.503,0.5433,0.595,0.5597,0.5351,0.0,0.501,0.4548,0.4544,0.4641,0.4769,0.0,0.0,0.4958,0.4995,0.5172,0.5203,0.5052,0.523,0.5358,0.5395,0.5511,0.5667,0.5892,0.6034,0.6129,0.6248,0.6317,0.633,0.63,0.63,0.63,0.6377,0.7403,0.7783,0.7783,0.7783,0.7783,0.7668,0.6679,0.6368,0.6467,2.0605,2.0605,2.0605,2.0605,2.1745,2.2702,2.2702,2.3916,2.4908,2.4971,2.5378,2.5702,2.5796,2.5678,2.5378,2.483,2.2566,2.0855,2.0155,2.0093,1.9381,1.7793,1.6817,1.5836,1.4902,1.377,1.2866,1.2104,1.1015,1.0408,1.0272,1.0414,1.0479,1.0515,1.1478,1.1884,1.1897,1.1815,1.1764,1.1593,1.0684,0.9639,0.8509,0.7555,0.6714,0.6015,0.5958,0.6998,0.8399,0.8097,0.9143,1.0512,1.0027,1.0224,1.0688,1.1108,1.1257,1.1377,1.1957,1.136,1.0458,1.0123,0.9714,0.9293,0.8792,0.8648,0.8257,0.6814,0.6492,0.6276,0.5578,0.5473,0.5473,0.5473,0.5492,0.5624,0.5955,0.5437,0.5195,0.5581,0.5009,0.4655,0.4779,0.4796,0.486,0.4988,0.5002,0.0,0.5096,0.5209,0.5216,0.51,0.5348,0.5498,0.5498,0.5681,0.5871,0.5993,0.6166,0.6244,0.6303,0.6368,0.6361,0.63,0.63,0.63,0.6338,0.6868,0.7099,0.7099,0.7099,0.7099,0.7061,0.649,0.6388,0.6511,2.0605,2.0605,2.0605,2.0605,2.2075,2.3331,2.3489,2.5099,2.6235,2.6166,2.65,2.6647,2.6427,2.6592,2.6337,2.5368,2.4253,2.3052,2.1658,2.1738,2.1015,1.9181,1.7599,1.6326,1.5313,1.3572,1.2362,1.1772,1.0649,1.0048,1.0007,1.0048,1.0084,1.0207,1.1397,1.173,1.1523,1.2024,1.1951,1.1406,1.0794,0.9801,0.8618,0.7691,0.6636,0.565,0.5606,0.6642,0.7982,0.7731,0.8969,1.0613,1.0327,1.0421,1.0646,1.0606,1.0593,1.0744,1.1437,1.0875,1.006,0.9813,0.9746,0.9673,0.9344,0.9277,0.8984,0.7922,0.7696,0.745,0.6583,0.6529,0.6554,0.6376,0.5859,0.57,0.6261,0.0,0.4793,0.5551,0.5093,0.4758,0.4904,0.4921,0.4931,0.4986,0.4986,0.504,0.5127,0.5133,0.5143,0.5167,0.5454,0.561,0.5654,0.5868,0.6016,0.606,0.6352,0.645,0.6334,0.6457,0.6433,0.63,0.63,0.6313,0.633,0.631,0.6327,0.6364,0.634,0.6344,0.6368,0.6368,0.6443,0.6549,2.0605,2.0605,2.0605,2.0605,2.1527,2.2515,2.3368,2.448,2.5827,2.753,2.7827,2.8189,2.9091,2.839,2.7763,2.7591,2.6584,2.5094,2.294,2.3727,2.311,2.0507,1.9572,1.7892,1.5353,1.3152,1.1752,1.1129,1.0315,0.9805,0.9602,0.9811,1.0067,1.0384,1.1446,1.1879,1.1839,1.1933,1.1919,1.1733,1.0826,0.9929,0.9058,0.7914,0.6817,0.5892,0.5681,0.669,0.8173,0.8233,0.9445,1.0915,1.0875,1.0889,1.0875,1.0667,1.0593,1.0624,1.0744,1.0465,1.0077,1.006,1.0047,0.9973,0.9679,0.9613,0.9254,0.7958,0.7696,0.7289,0.5923,0.6177,0.6294,0.5336,0.536,0.5433,0.5192,0.0,0.4601,0.4843,0.4778,0.4799,0.5039,0.5066,0.5152,0.5317,0.5324,0.5337,0.5358,0.5358,0.5419,0.5515,0.5566,0.5708,0.5922,0.5969,0.6156,0.6403,0.6491,0.6501,0.648,0.6501,0.6433,0.63,0.63,0.6368,0.647,0.6351,0.6446,0.662,0.6528,0.6559,0.663,0.663,0.6647,0.6664,2.0654,2.0605,2.0605,2.0605,2.1375,2.214,2.2627,2.3562,2.4821,2.6627,2.7127,2.7816,2.9151,2.9141,2.8767,2.8136,2.8199,2.7342,2.5062,2.5431,2.466,2.2298,2.0939,1.8303,1.4115,1.2786,1.171,1.0787,0.9958,0.9523,0.9411,0.9528,0.9645,0.987,1.1397,1.1818,1.145,1.2221,1.2289,1.1884,1.1554,1.0578,0.9248,0.8693,0.7414,0.5924,0.6281,0.7233,0.8391,0.8935,1.004,1.1196,1.1042,1.0995,1.0935,1.068,1.0593,1.0593,1.0593,1.0492,1.0354,1.0354,1.0234,1.004,0.9746,0.9715,0.9473,0.868,0.8656,0.8415,0.7265,0.7355,0.7401,0.6879,0.6224,0.5881,0.6143,0.5351,0.4762,0.4911,0.4928,0.5047,0.5348,0.5379,0.544,0.5586,0.5562,0.5552,0.5627,0.5562,0.5586,0.5698,0.5783,0.5932,0.6152,0.623,0.6335,0.6515,0.6556,0.6552,0.6511,0.6511,0.6477,0.6416,0.6416,0.6497,0.659,0.6525,0.6576,0.6695,0.6624,0.6637,0.6702,0.6702,0.6753,0.6824,2.0937,2.0909,2.0879,2.0781,2.1354,2.1869,2.1973,2.2664,2.3682,2.5255,2.6119,2.7119,2.8435,2.9325,2.9456,2.8557,2.9067,2.8661,2.6964,2.6648,2.5631,2.3733,2.1435,1.8174,1.3888,1.2966,1.2017,1.1005,1.0136,0.9655,0.9594,0.9594,0.963,0.9756,1.1439,1.179,1.1189,1.2467,1.2571,1.1891,1.1886,1.0965,0.9588,0.9085,0.7781,0.6332,0.6928,0.7741,0.8648,0.9588,1.062,1.1476,1.1182,1.1096,1.1022,1.07,1.0593,1.0593,1.0593,1.0593,1.0593,1.0593,1.0419,1.014,0.9853,0.9786,0.9699,0.9377,0.9526,0.944,0.8598,0.8416,0.8304,0.8059,0.0,0.6198,0.6768,0.5747,0.4978,0.5086,0.513,0.5291,0.5562,0.5589,0.5647,0.5789,0.5701,0.5688,0.5796,0.5698,0.5705,0.585,0.5932,0.6105,0.6296,0.6409,0.6497,0.6566,0.6644,0.6658,0.6576,0.6576,0.6559,0.6566,0.6566,0.6614,0.6753,0.6715,0.6742,0.68,0.6766,0.6773,0.6807,0.6844,0.6909,0.694,2.1797,2.1787,2.166,2.122,2.1222,2.1421,2.1911,2.2065,2.2676,2.4224,2.5707,2.6842,2.7507,2.8915,2.9753,2.9663,2.8779,2.8176,2.8004,2.7046,2.5785,2.4208,2.0381,1.7734,1.6531,1.4116,1.2679,1.2283,1.1341,1.0757,1.0498,1.0498,1.0637,1.0896,1.1797,1.1878,1.143,1.2323,1.2414,1.1835,1.0905,1.0608,1.0461,0.8425,0.7647,0.7618,0.7375,0.7915,0.8969,1.0139,1.1135,1.1819,1.1455,1.1362,1.1283,1.0754,1.0593,1.0593,1.0593,1.0593,1.0593,1.0593,1.0579,1.0479,1.0154,1.0087,1.0,0.9713,0.9666,0.9476,0.8727,0.8481,0.8059,0.7003,0.0,0.0,0.5578,0.5267,0.5086,0.5096,0.5257,0.5443,0.5576,0.5589,0.5647,0.5789,0.5793,0.5789,0.58,0.5789,0.5857,0.5973,0.5986,0.6105,0.6296,0.631,0.6453,0.6681,0.6695,0.677,0.6852,0.6852,0.6817,0.6681,0.6681,0.677,0.6859,0.6759,0.6861,0.7051,0.692,0.695,0.7082,0.7268,0.7238,0.7102,2.1934,2.167,2.1514,2.1621,2.1182,2.0968,2.145,2.1297,2.154,2.2713,2.3727,2.4982,2.6764,2.7799,2.875,2.9715,2.8767,2.8096,2.8096,2.7087,2.5573,2.3467,2.0707,1.844,1.6839,1.5529,1.4057,1.2409,1.2835,1.2276,1.0893,1.2263,1.2656,1.2228,1.364,1.3516,1.2383,1.3384,1.3071,1.1884,1.1653,1.1261,1.0697,0.9856,0.9162,0.8657,0.9068,0.9398,0.9801,1.101,1.1615,1.1852,1.1516,1.1389,1.1275,1.076,1.0593,1.0593,1.0593,1.0593,1.0593,1.0593,1.0452,1.0254,1.014,1.0083,1.0087,0.9973,1.01,0.9846,0.8465,0.827,0.7967,0.6973,0.0,0.6007,0.641,0.5928,0.5545,0.5545,0.5599,0.5694,0.5847,0.5949,0.6102,0.6207,0.6217,0.6217,0.6217,0.617,0.619,0.6298,0.6305,0.6332,0.6429,0.6525,0.6637,0.6844,0.6889,0.6913,0.6886,0.6886,0.6856,0.6844,0.6844,0.6883,0.7011,0.6953,0.6997,0.7098,0.7187,0.7238,0.7302,0.7455,0.7414,0.7292,2.2334,2.2041,2.1843,2.2051,2.1475,2.1084,2.1396,2.0947,2.0877,2.1645,2.2425,2.361,2.5417,2.6411,2.7588,2.9147,2.7936,2.7227,2.7562,2.6121,2.4598,2.316,2.1175,1.9311,1.7612,1.6844,1.5484,1.355,1.4131,1.3603,1.2076,1.3606,1.3958,1.3402,1.4867,1.4732,1.3507,1.4213,1.3723,1.2449,1.2328,1.1885,1.123,1.0886,1.0276,0.971,1.0256,1.0384,1.0474,1.1644,1.204,1.1937,1.155,1.1262,1.1076,1.0707,1.0593,1.0593,1.0593,1.066,1.0707,1.0613,1.0439,1.0281,1.0374,1.0388,1.0421,1.0476,1.0688,1.0399,0.8865,0.8464,0.8025,0.7095,0.6294,0.6015,0.6619,0.6201,0.5857,0.5806,0.5844,0.5915,0.5983,0.6169,0.6358,0.6501,0.6555,0.6546,0.6546,0.6491,0.6484,0.6539,0.6546,0.6566,0.6614,0.6671,0.6776,0.6886,0.6984,0.7004,0.6953,0.6953,0.6953,0.6953,0.6953,0.7007,0.7098,0.7149,0.7214,0.7227,0.7383,0.7444,0.7461,0.7611,0.7573,0.7444,2.3091,2.3091,2.2955,2.2588,2.2168,2.1885,2.1894,2.1182,2.0732,2.1142,2.2184,2.3037,2.345,2.4861,2.6394,2.7956,2.6055,2.5284,2.6378,2.3969,2.2788,2.3463,2.1617,2.0194,1.9307,1.7932,1.6845,1.6096,1.5188,1.4572,1.4287,1.432,1.432,1.4353,1.5136,1.5217,1.4687,1.455,1.417,1.36,1.2659,1.2305,1.2198,1.1033,1.0687,1.0791,1.0658,1.0693,1.0969,1.1959,1.2305,1.2198,1.1575,1.1035,1.06,1.06,1.06,1.06,1.06,1.0807,1.0922,1.0667,1.0593,1.0673,1.0929,1.0995,1.1082,1.1335,1.1389,1.1108,1.0054,0.9184,0.8282,0.7256,0.6373,0.5806,0.5803,0.5935,0.5939,0.5823,0.5939,0.5996,0.5996,0.6173,0.6364,0.6504,0.6617,0.6702,0.6702,0.6702,0.6702,0.6702,0.6702,0.6776,0.6886,0.678,0.678,0.6886,0.6886,0.696,0.7095,0.7095,0.7095,0.7098,0.7098,0.7098,0.7112,0.7309,0.7419,0.7436,0.7543,0.76,0.7617,0.776,0.7723,0.76,2.3091,2.2857,2.2711,2.2877,2.2353,2.1982,2.2275,2.1846,2.1543,2.168,2.1689,2.2159,2.337,2.3652,2.4397,2.5908,2.4752,2.3574,2.2848,2.2037,2.1527,2.146,2.0593,1.9853,1.9297,1.8283,1.721,1.6096,1.6711,1.6163,1.4597,1.6165,1.6199,1.498,1.5866,1.5446,1.4016,1.3945,1.3468,1.2696,1.2409,1.2305,1.2254,1.1905,1.1814,1.1835,1.1795,1.1691,1.1657,1.2121,1.2164,1.2,1.1826,1.1476,1.1169,1.1169,1.1169,1.1169,1.1169,1.1229,1.1176,1.0713,1.0868,1.1136,1.1015,1.1149,1.1112,1.0491,1.0895,1.0689,0.8373,0.8479,0.8374,0.66,0.6325,0.6276,0.6173,0.6201,0.6214,0.6166,0.6251,0.6339,0.6339,0.6576,0.6749,0.679,0.6834,0.6861,0.6861,0.6759,0.6749,0.6858,0.6861,0.6886,0.7031,0.6889,0.6893,0.7034,0.7034,0.7055,0.7095,0.7095,0.72,0.7302,0.7302,0.7363,0.7465,0.7512,0.7533,0.7546,0.7692,0.7746,0.7767,0.7867,0.7875,0.7733,2.3091,2.2886,2.2799,2.3052,2.2578,2.2217,2.2471,2.1752,2.114,2.114,2.0913,2.1075,2.2025,2.2342,2.306,2.4434,2.3891,2.268,2.0801,2.0869,2.0703,2.0126,1.9639,1.9443,1.9531,1.8867,1.8049,1.711,1.7702,1.7309,1.602,1.6992,1.6828,1.5755,1.5965,1.5403,1.4279,1.3882,1.3382,1.2806,1.2445,1.2305,1.2305,1.2305,1.2305,1.2305,1.2305,1.2191,1.2064,1.2245,1.2111,1.1906,1.1906,1.1663,1.1389,1.1389,1.1389,1.1389,1.1389,1.151,1.149,1.1022,1.1169,1.1375,1.1356,1.1476,1.1344,1.0444,1.0753,1.039,0.7899,0.8083,0.8089,0.6521,0.6393,0.648,0.6395,0.6381,0.6364,0.6306,0.6426,0.6511,0.6511,0.6749,0.691,0.6964,0.6967,0.6967,0.6967,0.6883,0.6873,0.6967,0.6967,0.7011,0.7095,0.7011,0.7011,0.7095,0.7204,0.72,0.7098,0.7204,0.7282,0.7415,0.7415,0.7458,0.7604,0.7658,0.7682,0.7699,0.7845,0.7899,0.7913,0.7958,0.7931,0.7872,2.3091,2.3091,2.3091,2.3091,2.2822,2.2568,2.2568,2.1165,2.0135,2.0135,2.0065,2.003,1.9867,2.0968,2.2014,2.2886,2.2956,2.1986,1.9753,2.0043,1.9995,1.9228,1.8812,1.9003,1.9893,1.9424,1.8975,1.8549,1.8208,1.8047,1.7974,1.7072,1.6594,1.6419,1.5473,1.5021,1.4879,1.3954,1.3564,1.3491,1.2622,1.2305,1.2305,1.2305,1.2305,1.2305,1.2305,1.2305,1.2305,1.2305,1.2124,1.1946,1.1946,1.1724,1.1469,1.1469,1.1469,1.1469,1.1469,1.1703,1.1886,1.1603,1.1543,1.1603,1.185,1.1966,1.1772,1.1031,1.0854,1.0274,0.8392,0.7952,0.7611,0.6822,0.6597,0.6549,0.6535,0.6532,0.6484,0.6354,0.6467,0.6552,0.6552,0.6776,0.6957,0.7085,0.7095,0.7095,0.7095,0.7109,0.7109,0.7095,0.7109,0.7119,0.7119,0.7102,0.7095,0.7098,0.7295,0.7288,0.7102,0.7299,0.7415,0.7415,0.7433,0.7478,0.7631,0.7773,0.7831,0.7845,0.7934,0.7988,0.7988,0.7988,0.7988,0.7948,2.3091,2.3091,2.3091,2.3091,2.3023,2.2955,2.2955,2.187,2.104,2.104,2.0726,2.0076,1.887,1.9558,1.9707,1.8716,1.864,1.8292,1.7432,1.7766,1.818,1.8492,1.842,1.8835,1.9874,1.8848,1.8242,1.8144,1.8354,1.8295,1.7983,1.7378,1.6519,1.5446,1.445,1.3629,1.2908,1.2703,1.2592,1.2592,1.2372,1.2305,1.2305,1.2305,1.2305,1.2305,1.2305,1.2305,1.2305,1.2305,1.2258,1.2204,1.2204,1.2164,1.2111,1.2111,1.2111,1.2111,1.2111,1.2158,1.2251,1.2455,1.2496,1.2455,1.2245,1.2429,1.2405,1.1673,1.1406,1.0733,0.8693,0.8271,0.7915,0.6874,0.6773,0.679,0.6668,0.6651,0.6637,0.661,0.6736,0.6831,0.6831,0.6947,0.7061,0.7095,0.7095,0.7095,0.7095,0.7255,0.7265,0.7098,0.7258,0.7322,0.7322,0.72,0.7095,0.7098,0.7295,0.7288,0.7102,0.7299,0.7415,0.7426,0.7499,0.7631,0.7777,0.7877,0.7941,0.7944,0.7978,0.7988,0.7988,0.7988,0.7988,0.7948,2.3091,2.3091,2.3091,2.3091,2.3091,2.3033,2.2828,2.1459,2.0371,2.0198,1.9504,1.8671,1.7668,1.8296,1.8355,1.7111,1.7195,1.7271,1.7184,1.706,1.7535,1.8714,1.8052,1.8175,1.927,1.8617,1.8418,1.8623,1.8598,1.849,1.8276,1.7554,1.6491,1.5163,1.4135,1.3164,1.2305,1.2305,1.2305,1.2305,1.2305,1.2305,1.2305,1.2305,1.2305,1.2305,1.2305,1.2392,1.2529,1.2351,1.2398,1.2529,1.2345,1.2398,1.2549,1.2549,1.2619,1.2618,1.2062,1.1847,1.1701,1.1417,1.1666,1.2165,1.2618,1.2859,1.2733,1.1878,1.1204,1.0298,0.8811,0.8012,0.7421,0.6984,0.6876,0.6859,0.682,0.681,0.6783,0.6709,0.6834,0.6913,0.698,0.7051,0.7125,0.7244,0.7251,0.7282,0.7356,0.7434,0.7444,0.736,0.7438,0.7482,0.7482,0.74,0.736,0.736,0.7366,0.7329,0.7255,0.7333,0.7456,0.7485,0.7563,0.7682,0.7824,0.7928,0.7944,0.788,0.788,0.784,0.7838,0.7857,0.788,0.7909,2.3091,2.3091,2.3091,2.3091,2.3091,2.2974,2.2676,2.1015,1.9607,1.9092,1.8192,1.7296,1.6492,1.6981,1.7117,1.646,1.6676,1.6936,1.7154,1.664,1.7033,1.8639,1.7402,1.7196,1.8256,1.819,1.8474,1.918,1.8919,1.8744,1.8562,1.773,1.6561,1.5163,1.4135,1.3164,1.2305,1.2305,1.2305,1.2305,1.2305,1.2305,1.2305,1.2305,1.2305,1.2305,1.2305,1.2529,1.2757,1.2518,1.2619,1.2824,1.2538,1.2625,1.2864,1.2864,1.3045,1.2962,1.1816,1.1372,1.1004,1.0034,1.0394,1.1315,1.2468,1.3034,1.3054,1.2277,1.1004,0.9827,0.9128,0.7777,0.6854,0.7055,0.6997,0.6923,0.6923,0.6923,0.6876,0.679,0.6846,0.6967,0.7085,0.7119,0.7234,0.7409,0.7443,0.7465,0.7594,0.7624,0.7624,0.76,0.7624,0.7638,0.7638,0.7611,0.7611,0.7634,0.7482,0.7443,0.7419,0.7443,0.7451,0.7522,0.755,0.7641,0.7784,0.7864,0.7902,0.7811,0.7784,0.7702,0.7617,0.7756,0.7811,0.7811,2.3091,2.3091,2.3091,2.3091,2.3091,2.3081,2.3023,2.1906,2.0639,1.9567,1.9286,1.8239,1.5817,1.5192,1.5055,1.5198,1.5005,1.4883,1.4928,1.4835,1.5212,1.6141,1.5648,1.5858,1.6935,1.6539,1.7118,1.8685,1.9377,1.9329,1.8607,1.8054,1.6852,1.5163,1.4135,1.3164,1.2305,1.2305,1.2305,1.2305,1.2305,1.2305,1.2305,1.2305,1.2305,1.2305,1.2305,1.2529,1.2817,1.3013,1.3113,1.314,1.31,1.312,1.3146,1.3146,1.318,1.2962,1.1816,1.1461,1.1255,1.0347,1.0216,1.046,1.0857,1.2278,1.3579,1.3741,1.2022,1.0487,1.0345,0.8518,0.7051,0.7088,0.7082,0.7068,0.7068,0.7068,0.7058,0.7041,0.7055,0.7075,0.7095,0.7261,0.7395,0.7415,0.7495,0.758,0.7597,0.7716,0.7726,0.7604,0.7719,0.7784,0.7784,0.7662,0.7662,0.778,0.7638,0.7499,0.7422,0.7509,0.7434,0.7166,0.7343,0.7489,0.7631,0.7651,0.7719,0.7797,0.7675,0.7617,0.7617,0.7756,0.7811,0.7811,2.3091,2.3091,2.3091,2.3091,2.3091,2.3091,2.3091,2.2076,2.089,1.967,1.8771,1.7508,1.5589,1.5017,1.475,1.4716,1.4596,1.477,1.5347,1.4699,1.4958,1.6527,1.5632,1.561,1.6694,1.6499,1.6766,1.7559,1.8303,1.8462,1.8108,1.8242,1.7457,1.593,1.4985,1.3991,1.3062,1.2519,1.2305,1.2305,1.2305,1.2305,1.2305,1.2305,1.2305,1.2325,1.2529,1.2784,1.3026,1.3166,1.332,1.3387,1.326,1.328,1.3413,1.3413,1.3574,1.3441,1.2289,1.1428,1.0641,0.9696,0.9403,0.9413,0.962,1.0895,1.2252,1.2954,1.1772,1.0611,1.0611,0.8703,0.7095,0.7095,0.7095,0.7095,0.7095,0.7095,0.7129,0.7258,0.7346,0.7397,0.7397,0.7458,0.7533,0.7611,0.7678,0.7753,0.7841,0.7902,0.7909,0.7848,0.7857,0.7891,0.7891,0.7875,0.7875,0.7887,0.7875,0.7767,0.7617,0.7604,0.757,0.7516,0.7502,0.7536,0.7604,0.7685,0.7706,0.7695,0.7709,0.7719,0.7716,0.7699,0.7797,0.7891]}]]